Cruise inventory

FS Meteor MT49

Cruise plan

Cruise Info. 
Ship name (ship code)FS Meteor (06MT)
Cruise identifierMT49
Cruise period1978-07-05 — 1978-09-11
StatusCompleted
ObjectivesJASIN
Chief scientistE Augstein (Max Planck Institute for Meteorology)
ProjectJASIN
Ocean/sea areas 
GeneralNorth East Atlantic Ocean (limit 40W)
Measurements 
Physical oceanography 
BathythermographQuantity: number of profiles = 65
CTD stationsQuantity: number of stations = 4785
Current metersQuantity: 62
Current profiler (eg ADCP)Quantity: 102
Description: radon profiles
Meteorology 
Upper air observationsQuantity: 395
Incident radiation
Routine standard measurements
Atmospheric chemistryDescription: air chemistry
Atmospheric chemistryQuantity: activity duration in hours = 251
Description: air sea interface studies
Other meteorological measurementsQuantity: number of observations = 6
Description: sea and swell
Data held at BODC 
Series/Profiles 
4556  CTD/STD cast
Vertical spatial coordinates
Salinity of the water column
Temperature of the water column
Vertical spatial coordinates
Salinity of the water column
Temperature of the water column

BODC idDate/TimeLocationDoc.
1196271978-08-02 16:43 58° 5' 45" N  12° 2' 54" W  View metadata report for BODC series reference number 119627
1196391978-08-02 16:45 58° 5' 45" N  12° 2' 54" W  View metadata report for BODC series reference number 119639
1196401978-08-02 16:47 58° 5' 45" N  12° 2' 54" W  View metadata report for BODC series reference number 119640
1196521978-08-02 16:49 58° 5' 45" N  12° 2' 54" W  View metadata report for BODC series reference number 119652
1196641978-08-02 16:51 58° 5' 45" N  12° 2' 54" W  View metadata report for BODC series reference number 119664
1196761978-08-02 16:53 58° 5' 45" N  12° 2' 54" W  View metadata report for BODC series reference number 119676
1196881978-08-02 16:57 58° 5' 45" N  12° 2' 54" W  View metadata report for BODC series reference number 119688
1197071978-08-02 21:03 58° 5' 52" N  12° 2' 53" W  View metadata report for BODC series reference number 119707
1197191978-08-03 00:04 58° 5' 52" N  12° 2' 48" W  View metadata report for BODC series reference number 119719
1197201978-08-03 03:01 58° 5' 50" N  12° 2' 43" W  View metadata report for BODC series reference number 119720
1197321978-08-03 03:01 58° 5' 50" N  12° 2' 43" W  View metadata report for BODC series reference number 119732
1197441978-08-03 06:46 58° 5' 50" N  12° 2' 43" W  View metadata report for BODC series reference number 119744
1197561978-08-03 09:00 58° 5' 50" N  12° 2' 43" W  View metadata report for BODC series reference number 119756
1197681978-08-03 09:19 58° 5' 48" N  12° 2' 55" W  View metadata report for BODC series reference number 119768
1197811978-08-03 09:21 58° 5' 48" N  12° 2' 55" W  View metadata report for BODC series reference number 119781
1197931978-08-03 09:23 58° 5' 48" N  12° 2' 55" W  View metadata report for BODC series reference number 119793
1198001978-08-03 09:25 58° 5' 48" N  12° 2' 55" W  View metadata report for BODC series reference number 119800
1198121978-08-03 09:27 58° 5' 48" N  12° 2' 55" W  View metadata report for BODC series reference number 119812
1198241978-08-03 09:29 58° 5' 48" N  12° 2' 55" W  View metadata report for BODC series reference number 119824
1288521978-08-18 08:52 59° 0' 0" N  12° 2' 26" W  View metadata report for BODC series reference number 128852
1288641978-08-18 08:54 59° 0' 0" N  12° 2' 26" W  View metadata report for BODC series reference number 128864
1288761978-08-18 08:56 59° 0' 0" N  12° 2' 26" W  View metadata report for BODC series reference number 128876
1288881978-08-18 08:58 59° 0' 0" N  12° 2' 26" W  View metadata report for BODC series reference number 128888
1289071978-08-18 09:00 59° 0' 0" N  12° 2' 26" W  View metadata report for BODC series reference number 128907
1289191978-08-18 09:02 59° 0' 0" N  12° 2' 26" W  View metadata report for BODC series reference number 128919
1289201978-08-18 09:04 59° 0' 0" N  12° 2' 26" W  View metadata report for BODC series reference number 128920
1289321978-08-18 09:06 59° 0' 0" N  12° 2' 26" W  View metadata report for BODC series reference number 128932
1289441978-08-18 09:08 59° 0' 0" N  12° 2' 26" W  View metadata report for BODC series reference number 128944
1289561978-08-18 09:10 59° 0' 0" N  12° 2' 26" W  View metadata report for BODC series reference number 128956
1289681978-08-18 09:12 59° 0' 0" N  12° 2' 26" W  View metadata report for BODC series reference number 128968
1289811978-08-18 09:14 59° 0' 0" N  12° 2' 26" W  View metadata report for BODC series reference number 128981
1289931978-08-18 09:16 59° 0' 0" N  12° 2' 26" W  View metadata report for BODC series reference number 128993
1290071978-08-18 09:18 59° 0' 0" N  12° 2' 26" W  View metadata report for BODC series reference number 129007
1290191978-08-18 11:46 58° 5' 51" N  12° 2' 50" W  View metadata report for BODC series reference number 129019
1290201978-08-18 11:48 58° 5' 51" N  12° 2' 50" W  View metadata report for BODC series reference number 129020
1290321978-08-18 11:50 58° 5' 51" N  12° 2' 50" W  View metadata report for BODC series reference number 129032
1290441978-08-18 11:52 58° 5' 51" N  12° 2' 50" W  View metadata report for BODC series reference number 129044
1290561978-08-18 11:54 58° 5' 51" N  12° 2' 50" W  View metadata report for BODC series reference number 129056
1290681978-08-18 11:56 58° 5' 51" N  12° 2' 50" W  View metadata report for BODC series reference number 129068
1290811978-08-18 11:58 58° 5' 51" N  12° 2' 50" W  View metadata report for BODC series reference number 129081
1290931978-08-18 12:00 58° 5' 51" N  12° 2' 50" W  View metadata report for BODC series reference number 129093
1291001978-08-18 12:02 58° 5' 51" N  12° 2' 50" W  View metadata report for BODC series reference number 129100
1291121978-08-18 12:04 58° 5' 51" N  12° 2' 50" W  View metadata report for BODC series reference number 129112
1291241978-08-18 12:06 58° 5' 51" N  12° 2' 50" W  View metadata report for BODC series reference number 129124
1291361978-08-18 12:08 58° 5' 51" N  12° 2' 50" W  View metadata report for BODC series reference number 129136
1283911978-08-18 06:14 59° 0' 0" N  12° 2' 26" W  View metadata report for BODC series reference number 128391
1284091978-08-18 06:16 59° 0' 0" N  12° 2' 26" W  View metadata report for BODC series reference number 128409
1284101978-08-18 06:18 59° 0' 0" N  12° 2' 26" W  View metadata report for BODC series reference number 128410
1284221978-08-18 06:20 59° 0' 0" N  12° 2' 26" W  View metadata report for BODC series reference number 128422
1284341978-08-18 06:22 59° 0' 0" N  12° 2' 26" W  View metadata report for BODC series reference number 128434
1284461978-08-18 06:24 59° 0' 0" N  12° 2' 26" W  View metadata report for BODC series reference number 128446
1284581978-08-18 06:26 59° 0' 0" N  12° 2' 26" W  View metadata report for BODC series reference number 128458
1284711978-08-18 06:28 59° 0' 0" N  12° 2' 26" W  View metadata report for BODC series reference number 128471
1284831978-08-18 06:50 59° 0' 0" N  12° 2' 26" W  View metadata report for BODC series reference number 128483
1284951978-08-18 06:52 59° 0' 0" N  12° 2' 26" W  View metadata report for BODC series reference number 128495
1285021978-08-18 06:54 59° 0' 0" N  12° 2' 26" W  View metadata report for BODC series reference number 128502
1285141978-08-18 06:56 59° 0' 0" N  12° 2' 26" W  View metadata report for BODC series reference number 128514
1275591978-08-18 01:10 58° 5' 53" N  12° 2' 35" W  View metadata report for BODC series reference number 127559
1275601978-08-18 01:12 58° 5' 53" N  12° 2' 35" W  View metadata report for BODC series reference number 127560
1275721978-08-18 01:14 58° 5' 53" N  12° 2' 35" W  View metadata report for BODC series reference number 127572
1275841978-08-18 01:16 58° 5' 53" N  12° 2' 35" W  View metadata report for BODC series reference number 127584
1275961978-08-18 01:18 58° 5' 55" N  12° 2' 35" W  View metadata report for BODC series reference number 127596
1276031978-08-18 01:44 59° 0' 0" N  12° 2' 37" W  View metadata report for BODC series reference number 127603
1276151978-08-18 01:46 59° 0' 0" N  12° 2' 37" W  View metadata report for BODC series reference number 127615
1276271978-08-18 01:48 59° 0' 0" N  12° 2' 37" W  View metadata report for BODC series reference number 127627
1276391978-08-18 01:50 59° 0' 0" N  12° 2' 37" W  View metadata report for BODC series reference number 127639
1198361978-08-03 09:31 58° 5' 48" N  12° 2' 55" W  View metadata report for BODC series reference number 119836
1198481978-08-03 09:33 58° 5' 48" N  12° 2' 55" W  View metadata report for BODC series reference number 119848
1198611978-08-03 09:35 58° 5' 48" N  12° 2' 55" W  View metadata report for BODC series reference number 119861
1198731978-08-03 09:37 58° 5' 48" N  12° 2' 55" W  View metadata report for BODC series reference number 119873
1198851978-08-03 09:39 58° 5' 48" N  12° 2' 55" W  View metadata report for BODC series reference number 119885
1198971978-08-03 09:41 58° 5' 48" N  12° 2' 55" W  View metadata report for BODC series reference number 119897
1199041978-08-03 09:43 58° 5' 48" N  12° 2' 55" W  View metadata report for BODC series reference number 119904
1199161978-08-03 09:45 58° 5' 48" N  12° 2' 55" W  View metadata report for BODC series reference number 119916
1199281978-08-04 11:09 58° 5' 48" N  12° 2' 55" W  View metadata report for BODC series reference number 119928
1199411978-08-03 09:49 58° 5' 48" N  12° 2' 55" W  View metadata report for BODC series reference number 119941
1199531978-08-03 09:51 58° 5' 48" N  12° 2' 55" W  View metadata report for BODC series reference number 119953
1199651978-08-03 09:53 58° 5' 48" N  12° 2' 55" W  View metadata report for BODC series reference number 119965
1199771978-08-03 09:55 58° 5' 48" N  12° 2' 55" W  View metadata report for BODC series reference number 119977
1199891978-08-03 09:57 58° 5' 48" N  12° 2' 55" W  View metadata report for BODC series reference number 119989
1199901978-08-03 09:59 58° 5' 48" N  12° 2' 55" W  View metadata report for BODC series reference number 119990
1200021978-08-03 10:01 58° 5' 48" N  12° 2' 55" W  View metadata report for BODC series reference number 120002
1200141978-08-03 10:03 58° 5' 48" N  12° 2' 55" W  View metadata report for BODC series reference number 120014
1200261978-08-03 10:05 58° 5' 48" N  12° 2' 55" W  View metadata report for BODC series reference number 120026
1200381978-08-03 10:07 58° 5' 48" N  12° 2' 55" W  View metadata report for BODC series reference number 120038
1200511978-08-03 10:09 58° 5' 48" N  12° 2' 55" W  View metadata report for BODC series reference number 120051
1200631978-08-03 10:11 58° 5' 48" N  12° 2' 55" W  View metadata report for BODC series reference number 120063
1200751978-08-03 10:13 58° 5' 48" N  12° 2' 55" W  View metadata report for BODC series reference number 120075
1200871978-08-03 10:15 58° 5' 48" N  12° 2' 55" W  View metadata report for BODC series reference number 120087
1200991978-08-03 10:17 58° 5' 48" N  12° 2' 55" W  View metadata report for BODC series reference number 120099
1201061978-08-03 10:19 58° 5' 48" N  12° 2' 55" W  View metadata report for BODC series reference number 120106
1201181978-08-03 10:21 58° 5' 48" N  12° 2' 55" W  View metadata report for BODC series reference number 120118
1201311978-08-03 10:23 58° 5' 48" N  12° 2' 55" W  View metadata report for BODC series reference number 120131
1201431978-08-03 10:25 58° 5' 48" N  12° 2' 55" W  View metadata report for BODC series reference number 120143
1201551978-08-03 10:27 58° 5' 48" N  12° 2' 55" W  View metadata report for BODC series reference number 120155
1201671978-08-03 10:41 58° 5' 44" N  12° 3' 9" W  View metadata report for BODC series reference number 120167
1201791978-08-03 10:43 58° 5' 44" N  12° 3' 9" W  View metadata report for BODC series reference number 120179
1201801978-08-03 10:46 58° 5' 44" N  12° 3' 9" W  View metadata report for BODC series reference number 120180
1201921978-08-03 10:48 58° 5' 44" N  12° 3' 9" W  View metadata report for BODC series reference number 120192
1202111978-08-03 10:51 58° 5' 44" N  12° 3' 9" W  View metadata report for BODC series reference number 120211
1202231978-08-03 10:53 58° 5' 44" N  12° 3' 9" W  View metadata report for BODC series reference number 120223
1202351978-08-03 10:56 58° 5' 44" N  12° 3' 9" W  View metadata report for BODC series reference number 120235
1202471978-08-03 10:58 58° 5' 44" N  12° 3' 9" W  View metadata report for BODC series reference number 120247
1202591978-08-03 11:01 58° 5' 44" N  12° 3' 9" W  View metadata report for BODC series reference number 120259
1202601978-08-03 11:03 58° 5' 44" N  12° 3' 9" W  View metadata report for BODC series reference number 120260
1202721978-08-03 11:06 58° 5' 44" N  12° 3' 9" W  View metadata report for BODC series reference number 120272
1202841978-08-03 11:08 58° 5' 44" N  12° 3' 9" W  View metadata report for BODC series reference number 120284
1202961978-08-03 11:11 58° 5' 44" N  12° 3' 9" W  View metadata report for BODC series reference number 120296
1203031978-08-03 11:13 58° 5' 44" N  12° 3' 9" W  View metadata report for BODC series reference number 120303
1203151978-08-03 11:16 58° 5' 44" N  12° 3' 9" W  View metadata report for BODC series reference number 120315
1203271978-08-03 11:18 58° 5' 44" N  12° 3' 9" W  View metadata report for BODC series reference number 120327
1203391978-08-03 15:20 58° 5' 53" N  12° 2' 46" W  View metadata report for BODC series reference number 120339
1203401978-08-03 15:22 58° 5' 53" N  12° 2' 46" W  View metadata report for BODC series reference number 120340
1203521978-08-03 15:24 58° 5' 53" N  12° 2' 46" W  View metadata report for BODC series reference number 120352
1480911978-08-26 03:41 58° 5' 46" N  12° 2' 37" W  View metadata report for BODC series reference number 148091
1481091978-08-26 03:43 58° 5' 46" N  12° 2' 37" W  View metadata report for BODC series reference number 148109
1481101978-08-26 03:45 58° 5' 46" N  12° 2' 37" W  View metadata report for BODC series reference number 148110
1481221978-08-26 03:47 58° 5' 46" N  12° 2' 37" W  View metadata report for BODC series reference number 148122
1481341978-08-26 03:49 58° 5' 46" N  12° 2' 37" W  View metadata report for BODC series reference number 148134
1481461978-08-26 03:51 58° 5' 46" N  12° 2' 37" W  View metadata report for BODC series reference number 148146
1481581978-08-26 03:53 58° 5' 46" N  12° 2' 37" W  View metadata report for BODC series reference number 148158
1481711978-08-26 03:55 58° 5' 46" N  12° 2' 37" W  View metadata report for BODC series reference number 148171
1481831978-08-26 03:57 58° 5' 46" N  12° 2' 37" W  View metadata report for BODC series reference number 148183
1481951978-08-26 03:59 58° 5' 46" N  12° 2' 37" W  View metadata report for BODC series reference number 148195
1474561978-08-25 23:50 58° 5' 50" N  12° 2' 43" W  View metadata report for BODC series reference number 147456
1474681978-08-25 23:52 58° 5' 50" N  12° 2' 43" W  View metadata report for BODC series reference number 147468
1474811978-08-25 23:54 58° 5' 50" N  12° 2' 43" W  View metadata report for BODC series reference number 147481
1474931978-08-25 23:56 58° 5' 50" N  12° 2' 43" W  View metadata report for BODC series reference number 147493
1475001978-08-25 23:58 58° 5' 50" N  12° 2' 43" W  View metadata report for BODC series reference number 147500
1475121978-08-26 00:29 58° 5' 50" N  12° 2' 43" W  View metadata report for BODC series reference number 147512
1475241978-08-26 00:31 58° 5' 50" N  12° 2' 43" W  View metadata report for BODC series reference number 147524
1475361978-08-26 00:33 58° 5' 50" N  12° 2' 43" W  View metadata report for BODC series reference number 147536
1475481978-08-26 00:35 58° 5' 50" N  12° 2' 43" W  View metadata report for BODC series reference number 147548
1475611978-08-26 00:37 58° 5' 50" N  12° 2' 43" W  View metadata report for BODC series reference number 147561
1475731978-08-26 00:39 58° 5' 50" N  12° 2' 43" W  View metadata report for BODC series reference number 147573
1475851978-08-26 00:41 58° 5' 50" N  12° 2' 43" W  View metadata report for BODC series reference number 147585
1475971978-08-26 00:43 58° 5' 50" N  12° 2' 43" W  View metadata report for BODC series reference number 147597
1476041978-08-26 00:45 58° 5' 50" N  12° 2' 43" W  View metadata report for BODC series reference number 147604
1476161978-08-26 00:49 58° 5' 50" N  12° 2' 43" W  View metadata report for BODC series reference number 147616
1476281978-08-26 00:51 58° 5' 50" N  12° 2' 43" W  View metadata report for BODC series reference number 147628
1476411978-08-26 00:53 58° 5' 50" N  12° 2' 43" W  View metadata report for BODC series reference number 147641
1476531978-08-26 00:55 58° 5' 50" N  12° 2' 43" W  View metadata report for BODC series reference number 147653
1476651978-08-26 00:57 58° 5' 50" N  12° 2' 43" W  View metadata report for BODC series reference number 147665
1476771978-08-26 00:59 58° 5' 50" N  12° 2' 43" W  View metadata report for BODC series reference number 147677
1476891978-08-26 01:01 58° 5' 50" N  12° 2' 43" W  View metadata report for BODC series reference number 147689
1476901978-08-26 01:34 58° 5' 55" N  12° 2' 51" W  View metadata report for BODC series reference number 147690
1477081978-08-26 01:36 58° 5' 55" N  12° 2' 51" W  View metadata report for BODC series reference number 147708
1477211978-08-26 01:38 58° 5' 55" N  12° 2' 51" W  View metadata report for BODC series reference number 147721
1477331978-08-26 01:40 58° 5' 55" N  12° 2' 51" W  View metadata report for BODC series reference number 147733
1477451978-08-26 01:42 58° 5' 55" N  12° 2' 51" W  View metadata report for BODC series reference number 147745
1477571978-08-26 01:44 58° 5' 55" N  12° 2' 51" W  View metadata report for BODC series reference number 147757
1477691978-08-26 01:46 58° 5' 55" N  12° 2' 51" W  View metadata report for BODC series reference number 147769
1477701978-08-26 01:48 58° 5' 55" N  12° 2' 51" W  View metadata report for BODC series reference number 147770
1477821978-08-26 01:50 58° 5' 55" N  12° 2' 51" W  View metadata report for BODC series reference number 147782
1477941978-08-26 01:52 58° 5' 55" N  12° 2' 51" W  View metadata report for BODC series reference number 147794
1478011978-08-26 01:54 58° 5' 55" N  12° 2' 51" W  View metadata report for BODC series reference number 147801
1478131978-08-26 01:56 58° 5' 55" N  12° 2' 51" W  View metadata report for BODC series reference number 147813
1478251978-08-26 01:58 58° 5' 55" N  12° 2' 51" W  View metadata report for BODC series reference number 147825
1470871978-08-25 21:48 58° 5' 46" N  12° 2' 49" W  View metadata report for BODC series reference number 147087
1470991978-08-25 21:50 58° 5' 46" N  12° 2' 49" W  View metadata report for BODC series reference number 147099
1471061978-08-25 21:52 58° 5' 46" N  12° 2' 49" W  View metadata report for BODC series reference number 147106
1471181978-08-25 21:54 58° 5' 46" N  12° 2' 49" W  View metadata report for BODC series reference number 147118
1471311978-08-25 21:56 58° 5' 46" N  12° 2' 49" W  View metadata report for BODC series reference number 147131
1471431978-08-25 21:58 58° 5' 46" N  12° 2' 49" W  View metadata report for BODC series reference number 147143
1471551978-08-25 22:00 58° 5' 46" N  12° 2' 49" W  View metadata report for BODC series reference number 147155
1471671978-08-25 22:36 58° 5' 53" N  12° 2' 50" W  View metadata report for BODC series reference number 147167
1471791978-08-25 22:38 58° 5' 53" N  12° 2' 50" W  View metadata report for BODC series reference number 147179
1471801978-08-25 22:40 58° 5' 53" N  12° 2' 50" W  View metadata report for BODC series reference number 147180
1471921978-08-25 22:42 58° 5' 53" N  12° 2' 50" W  View metadata report for BODC series reference number 147192
1472111978-08-25 22:44 58° 5' 53" N  12° 2' 50" W  View metadata report for BODC series reference number 147211
1472231978-08-25 22:46 58° 5' 53" N  12° 2' 50" W  View metadata report for BODC series reference number 147223
1336211978-08-19 16:54 58° 5' 49" N  12° 2' 50" W  View metadata report for BODC series reference number 133621
1336331978-08-19 16:56 58° 5' 49" N  12° 2' 50" W  View metadata report for BODC series reference number 133633
1328871978-08-19 12:50 58° 5' 51" N  12° 2' 51" W  View metadata report for BODC series reference number 132887
1328991978-08-19 12:52 58° 5' 51" N  12° 2' 51" W  View metadata report for BODC series reference number 132899
1329061978-08-19 12:54 58° 5' 51" N  12° 2' 51" W  View metadata report for BODC series reference number 132906
1329181978-08-19 12:56 58° 5' 51" N  12° 2' 51" W  View metadata report for BODC series reference number 132918
1329311978-08-19 12:58 58° 5' 51" N  12° 2' 51" W  View metadata report for BODC series reference number 132931
1329431978-08-19 13:00 58° 5' 51" N  12° 2' 51" W  View metadata report for BODC series reference number 132943
1329551978-08-19 13:02 58° 5' 51" N  12° 2' 51" W  View metadata report for BODC series reference number 132955
1329671978-08-19 13:04 58° 5' 51" N  12° 2' 51" W  View metadata report for BODC series reference number 132967
1329791978-08-19 13:06 58° 5' 51" N  12° 2' 51" W  View metadata report for BODC series reference number 132979
1329801978-08-19 13:08 58° 5' 51" N  12° 2' 51" W  View metadata report for BODC series reference number 132980
1329921978-08-19 13:10 58° 5' 51" N  12° 2' 51" W  View metadata report for BODC series reference number 132992
1330061978-08-19 13:12 58° 5' 51" N  12° 2' 51" W  View metadata report for BODC series reference number 133006
1330181978-08-19 13:14 58° 5' 51" N  12° 2' 51" W  View metadata report for BODC series reference number 133018
1330311978-08-19 13:16 58° 5' 51" N  12° 2' 51" W  View metadata report for BODC series reference number 133031
1330431978-08-19 13:44 58° 5' 55" N  12° 2' 58" W  View metadata report for BODC series reference number 133043
1330551978-08-19 13:46 58° 5' 55" N  12° 2' 58" W  View metadata report for BODC series reference number 133055
1330671978-08-19 13:48 58° 5' 55" N  12° 2' 58" W  View metadata report for BODC series reference number 133067
1330791978-08-19 13:50 58° 5' 55" N  12° 2' 58" W  View metadata report for BODC series reference number 133079
1330801978-08-19 13:52 58° 5' 55" N  12° 2' 58" W  View metadata report for BODC series reference number 133080
1330921978-08-19 13:54 58° 5' 55" N  12° 2' 58" W  View metadata report for BODC series reference number 133092
1331111978-08-19 13:56 58° 5' 55" N  12° 2' 58" W  View metadata report for BODC series reference number 133111
1331231978-08-19 13:58 58° 5' 55" N  12° 2' 58" W  View metadata report for BODC series reference number 133123
1331351978-08-19 14:00 58° 5' 55" N  12° 2' 58" W  View metadata report for BODC series reference number 133135
1331471978-08-19 14:02 58° 5' 55" N  12° 2' 58" W  View metadata report for BODC series reference number 133147
1331591978-08-19 14:04 58° 5' 55" N  12° 2' 58" W  View metadata report for BODC series reference number 133159
1331601978-08-19 14:06 58° 5' 55" N  12° 2' 58" W  View metadata report for BODC series reference number 133160
1331721978-08-19 14:08 58° 5' 55" N  12° 2' 58" W  View metadata report for BODC series reference number 133172
1331841978-08-19 14:10 58° 5' 55" N  12° 2' 58" W  View metadata report for BODC series reference number 133184
1331961978-08-19 14:12 58° 5' 55" N  12° 2' 58" W  View metadata report for BODC series reference number 133196
1332031978-08-19 14:14 58° 5' 55" N  12° 2' 58" W  View metadata report for BODC series reference number 133203
1332151978-08-19 14:46 58° 5' 55" N  12° 2' 58" W  View metadata report for BODC series reference number 133215
1332271978-08-19 14:48 58° 5' 55" N  12° 2' 58" W  View metadata report for BODC series reference number 133227
1332391978-08-19 14:50 58° 5' 55" N  12° 2' 58" W  View metadata report for BODC series reference number 133239
1332401978-08-19 14:52 58° 5' 55" N  12° 2' 58" W  View metadata report for BODC series reference number 133240
1325131978-08-19 10:42 58° 5' 51" N  12° 2' 48" W  View metadata report for BODC series reference number 132513
1325251978-08-19 10:44 58° 5' 51" N  12° 2' 48" W  View metadata report for BODC series reference number 132525
1325371978-08-19 10:46 58° 5' 51" N  12° 2' 48" W  View metadata report for BODC series reference number 132537
1325491978-08-19 10:48 58° 5' 51" N  12° 2' 48" W  View metadata report for BODC series reference number 132549
1325501978-08-19 10:50 58° 5' 51" N  12° 2' 48" W  View metadata report for BODC series reference number 132550
1325621978-08-19 10:52 58° 5' 51" N  12° 2' 48" W  View metadata report for BODC series reference number 132562
1325741978-08-19 10:54 58° 5' 50" N  12° 2' 41" W  View metadata report for BODC series reference number 132574
1325861978-08-19 10:56 58° 5' 50" N  12° 2' 41" W  View metadata report for BODC series reference number 132586
1325981978-08-19 11:58 58° 5' 50" N  12° 2' 41" W  View metadata report for BODC series reference number 132598
1326051978-08-19 11:00 58° 5' 50" N  12° 2' 41" W  View metadata report for BODC series reference number 132605
1326171978-08-19 11:02 58° 5' 50" N  12° 2' 41" W  View metadata report for BODC series reference number 132617
1326291978-08-19 11:04 58° 5' 50" N  12° 2' 41" W  View metadata report for BODC series reference number 132629
1326301978-08-19 11:06 58° 5' 50" N  12° 2' 41" W  View metadata report for BODC series reference number 132630
1326421978-08-19 11:08 58° 5' 50" N  12° 2' 41" W  View metadata report for BODC series reference number 132642
1326541978-08-19 11:10 58° 5' 50" N  12° 2' 41" W  View metadata report for BODC series reference number 132654
1326661978-08-19 11:12 58° 5' 50" N  12° 2' 41" W  View metadata report for BODC series reference number 132666
1326781978-08-19 11:44 58° 5' 51" N  12° 2' 51" W  View metadata report for BODC series reference number 132678
1326911978-08-19 11:46 58° 5' 51" N  12° 2' 51" W  View metadata report for BODC series reference number 132691
1327091978-08-19 11:48 58° 5' 51" N  12° 2' 51" W  View metadata report for BODC series reference number 132709
1327101978-08-19 11:50 58° 5' 51" N  12° 2' 51" W  View metadata report for BODC series reference number 132710
1327221978-08-19 11:52 58° 5' 51" N  12° 2' 51" W  View metadata report for BODC series reference number 132722
1203641978-08-03 15:26 58° 5' 53" N  12° 2' 46" W  View metadata report for BODC series reference number 120364
1203761978-08-03 15:28 58° 5' 53" N  12° 2' 46" W  View metadata report for BODC series reference number 120376
1203881978-08-03 15:30 58° 5' 53" N  12° 2' 46" W  View metadata report for BODC series reference number 120388
1204071978-08-03 15:32 58° 5' 53" N  12° 2' 46" W  View metadata report for BODC series reference number 120407
1204191978-08-03 15:34 58° 5' 53" N  12° 2' 46" W  View metadata report for BODC series reference number 120419
1204201978-08-03 15:36 58° 5' 53" N  12° 2' 46" W  View metadata report for BODC series reference number 120420
1204321978-08-03 15:38 58° 5' 53" N  12° 2' 46" W  View metadata report for BODC series reference number 120432
1204441978-08-03 15:40 58° 5' 53" N  12° 2' 46" W  View metadata report for BODC series reference number 120444
1204561978-08-03 15:42 58° 5' 53" N  12° 2' 46" W  View metadata report for BODC series reference number 120456
1204681978-08-03 15:44 58° 5' 53" N  12° 2' 46" W  View metadata report for BODC series reference number 120468
1204811978-08-03 15:46 58° 5' 53" N  12° 2' 46" W  View metadata report for BODC series reference number 120481
1204931978-08-03 15:48 58° 5' 53" N  12° 2' 46" W  View metadata report for BODC series reference number 120493
1205001978-08-03 15:50 58° 5' 53" N  12° 2' 46" W  View metadata report for BODC series reference number 120500
1205121978-08-03 15:52 58° 5' 53" N  12° 2' 46" W  View metadata report for BODC series reference number 120512
1205241978-08-03 15:54 58° 5' 53" N  12° 2' 46" W  View metadata report for BODC series reference number 120524
1205361978-08-03 15:56 58° 5' 53" N  12° 2' 46" W  View metadata report for BODC series reference number 120536
1205481978-08-03 15:58 58° 5' 53" N  12° 2' 46" W  View metadata report for BODC series reference number 120548
1205611978-08-03 16:00 58° 5' 53" N  12° 2' 46" W  View metadata report for BODC series reference number 120561
1205731978-08-03 16:02 58° 5' 53" N  12° 2' 46" W  View metadata report for BODC series reference number 120573
1205851978-08-03 16:04 58° 5' 53" N  12° 2' 46" W  View metadata report for BODC series reference number 120585
1205971978-08-03 16:06 58° 5' 53" N  12° 2' 46" W  View metadata report for BODC series reference number 120597
1206041978-08-03 16:08 58° 5' 53" N  12° 2' 46" W  View metadata report for BODC series reference number 120604
1206161978-08-03 16:10 58° 5' 53" N  12° 2' 46" W  View metadata report for BODC series reference number 120616
1206281978-08-03 16:12 58° 5' 53" N  12° 2' 46" W  View metadata report for BODC series reference number 120628
1206411978-08-03 16:14 58° 5' 53" N  12° 2' 46" W  View metadata report for BODC series reference number 120641
1206531978-08-03 16:16 58° 5' 53" N  12° 2' 46" W  View metadata report for BODC series reference number 120653
1206651978-08-03 16:18 58° 5' 53" N  12° 2' 46" W  View metadata report for BODC series reference number 120665
1206771978-08-03 16:20 58° 5' 53" N  12° 2' 46" W  View metadata report for BODC series reference number 120677
1206891978-08-03 16:22 58° 5' 53" N  12° 2' 46" W  View metadata report for BODC series reference number 120689
1206901978-08-03 16:24 58° 5' 53" N  12° 2' 46" W  View metadata report for BODC series reference number 120690
1207081978-08-03 16:26 58° 5' 53" N  12° 2' 46" W  View metadata report for BODC series reference number 120708
1207211978-08-03 16:28 58° 5' 53" N  12° 2' 46" W  View metadata report for BODC series reference number 120721
1207331978-08-03 16:30 58° 5' 53" N  12° 2' 46" W  View metadata report for BODC series reference number 120733
1207451978-08-03 16:32 58° 5' 53" N  12° 2' 46" W  View metadata report for BODC series reference number 120745
1207571978-08-03 16:34 58° 5' 53" N  12° 2' 46" W  View metadata report for BODC series reference number 120757
1207691978-08-03 16:36 58° 5' 53" N  12° 2' 46" W  View metadata report for BODC series reference number 120769
1207701978-08-03 16:38 58° 5' 53" N  12° 2' 46" W  View metadata report for BODC series reference number 120770
1207821978-08-03 16:40 58° 5' 53" N  12° 2' 46" W  View metadata report for BODC series reference number 120782
1207941978-08-03 17:59 58° 5' 48" N  12° 2' 41" W  View metadata report for BODC series reference number 120794
1208011978-08-03 21:07 58° 5' 52" N  12° 2' 47" W  View metadata report for BODC series reference number 120801
1208131978-08-04 00:05 58° 5' 52" N  12° 2' 47" W  View metadata report for BODC series reference number 120813
1208251978-08-04 03:02 58° 5' 48" N  12° 2' 39" W  View metadata report for BODC series reference number 120825
1208371978-08-04 00:34 58° 5' 50" N  12° 2' 50" W  View metadata report for BODC series reference number 120837
1208491978-08-04 09:34 58° 5' 49" N  12° 1' 56" W  View metadata report for BODC series reference number 120849
1208501978-08-04 09:36 58° 5' 49" N  12° 1' 56" W  View metadata report for BODC series reference number 120850
1208621978-08-04 09:38 58° 5' 49" N  12° 1' 56" W  View metadata report for BODC series reference number 120862
1208741978-08-04 09:40 58° 5' 49" N  12° 1' 56" W  View metadata report for BODC series reference number 120874
1208861978-08-04 09:42 58° 5' 49" N  12° 1' 56" W  View metadata report for BODC series reference number 120886
1208981978-08-04 09:44 58° 5' 49" N  12° 1' 56" W  View metadata report for BODC series reference number 120898
1209051978-08-04 09:46 58° 5' 49" N  12° 1' 56" W  View metadata report for BODC series reference number 120905
1209171978-08-04 09:48 58° 5' 49" N  12° 1' 56" W  View metadata report for BODC series reference number 120917
1209291978-08-04 09:50 58° 5' 49" N  12° 1' 56" W  View metadata report for BODC series reference number 120929
1209301978-08-04 09:52 58° 5' 49" N  12° 1' 56" W  View metadata report for BODC series reference number 120930
1209421978-08-04 09:54 58° 5' 49" N  12° 1' 56" W  View metadata report for BODC series reference number 120942
1209541978-08-04 09:56 58° 5' 49" N  12° 1' 56" W  View metadata report for BODC series reference number 120954
1209661978-08-04 09:58 58° 5' 49" N  12° 1' 56" W  View metadata report for BODC series reference number 120966
1209781978-08-04 10:00 58° 5' 49" N  12° 1' 56" W  View metadata report for BODC series reference number 120978
1472351978-08-25 22:48 58° 5' 53" N  12° 2' 50" W  View metadata report for BODC series reference number 147235
1472471978-08-25 22:50 58° 5' 53" N  12° 2' 50" W  View metadata report for BODC series reference number 147247
1472591978-08-25 22:52 58° 5' 53" N  12° 2' 50" W  View metadata report for BODC series reference number 147259
1472601978-08-25 22:54 58° 5' 53" N  12° 2' 50" W  View metadata report for BODC series reference number 147260
1472721978-08-25 22:56 58° 5' 53" N  12° 2' 50" W  View metadata report for BODC series reference number 147272
1472841978-08-25 22:58 58° 5' 53" N  12° 2' 50" W  View metadata report for BODC series reference number 147284
1472961978-08-25 23:00 58° 5' 53" N  12° 2' 50" W  View metadata report for BODC series reference number 147296
1473031978-08-25 23:02 58° 5' 53" N  12° 2' 50" W  View metadata report for BODC series reference number 147303
1473151978-08-25 23:04 58° 5' 53" N  12° 2' 50" W  View metadata report for BODC series reference number 147315
1473271978-08-25 23:06 58° 5' 53" N  12° 2' 50" W  View metadata report for BODC series reference number 147327
1473391978-08-25 23:28 58° 5' 50" N  12° 2' 43" W  View metadata report for BODC series reference number 147339
1473401978-08-25 23:30 58° 5' 50" N  12° 2' 43" W  View metadata report for BODC series reference number 147340
1473521978-08-25 23:32 58° 5' 50" N  12° 2' 43" W  View metadata report for BODC series reference number 147352
1473641978-08-25 23:34 58° 5' 50" N  12° 2' 43" W  View metadata report for BODC series reference number 147364
1473761978-08-25 23:36 58° 5' 50" N  12° 2' 43" W  View metadata report for BODC series reference number 147376
1473881978-08-25 23:38 58° 5' 50" N  12° 2' 43" W  View metadata report for BODC series reference number 147388
1474071978-08-25 23:40 58° 5' 50" N  12° 2' 43" W  View metadata report for BODC series reference number 147407
1474191978-08-25 23:42 58° 5' 50" N  12° 2' 43" W  View metadata report for BODC series reference number 147419
1474201978-08-25 23:44 58° 5' 50" N  12° 2' 43" W  View metadata report for BODC series reference number 147420
1474321978-08-25 23:46 58° 5' 50" N  12° 2' 43" W  View metadata report for BODC series reference number 147432
1474441978-08-25 23:48 58° 5' 50" N  12° 2' 43" W  View metadata report for BODC series reference number 147444
1467051978-08-25 19:42 58° 5' 51" N  12° 2' 55" W  View metadata report for BODC series reference number 146705
1467171978-08-25 19:44 58° 5' 51" N  12° 2' 55" W  View metadata report for BODC series reference number 146717
1467291978-08-25 19:46 58° 5' 51" N  12° 2' 55" W  View metadata report for BODC series reference number 146729
1467301978-08-25 19:48 58° 5' 51" N  12° 2' 55" W  View metadata report for BODC series reference number 146730
1467421978-08-25 19:50 58° 5' 51" N  12° 2' 55" W  View metadata report for BODC series reference number 146742
1467541978-08-25 19:52 58° 5' 51" N  12° 2' 55" W  View metadata report for BODC series reference number 146754
1467661978-08-25 19:54 58° 5' 51" N  12° 2' 55" W  View metadata report for BODC series reference number 146766
1467781978-08-25 19:56 58° 5' 51" N  12° 2' 55" W  View metadata report for BODC series reference number 146778
1467911978-08-25 19:58 58° 5' 51" N  12° 2' 55" W  View metadata report for BODC series reference number 146791
1468091978-08-25 20:30 58° 5' 46" N  12° 2' 49" W  View metadata report for BODC series reference number 146809
1468101978-08-25 20:32 58° 5' 46" N  12° 2' 49" W  View metadata report for BODC series reference number 146810
1468221978-08-25 20:34 58° 5' 46" N  12° 2' 49" W  View metadata report for BODC series reference number 146822
1468341978-08-25 20:36 58° 5' 46" N  12° 2' 49" W  View metadata report for BODC series reference number 146834
1468461978-08-25 20:38 58° 5' 46" N  12° 2' 49" W  View metadata report for BODC series reference number 146846
1468581978-08-25 20:40 58° 5' 46" N  12° 2' 49" W  View metadata report for BODC series reference number 146858
1468711978-08-25 20:42 58° 5' 46" N  12° 2' 49" W  View metadata report for BODC series reference number 146871
1468831978-08-25 20:44 58° 5' 46" N  12° 2' 49" W  View metadata report for BODC series reference number 146883
1468951978-08-25 20:46 58° 5' 46" N  12° 2' 49" W  View metadata report for BODC series reference number 146895
1469021978-08-25 20:48 58° 5' 46" N  12° 2' 49" W  View metadata report for BODC series reference number 146902
1469141978-08-25 20:50 58° 5' 46" N  12° 2' 49" W  View metadata report for BODC series reference number 146914
1469261978-08-25 20:52 58° 5' 46" N  12° 2' 49" W  View metadata report for BODC series reference number 146926
1469381978-08-25 20:54 58° 5' 46" N  12° 2' 49" W  View metadata report for BODC series reference number 146938
1469511978-08-25 20:56 58° 5' 46" N  12° 2' 49" W  View metadata report for BODC series reference number 146951
1469631978-08-25 20:58 58° 5' 46" N  12° 2' 49" W  View metadata report for BODC series reference number 146963
1469751978-08-25 21:00 58° 5' 46" N  12° 2' 49" W  View metadata report for BODC series reference number 146975
1469871978-08-25 21:30 58° 5' 46" N  12° 2' 49" W  View metadata report for BODC series reference number 146987
1469991978-08-25 21:32 58° 5' 46" N  12° 2' 49" W  View metadata report for BODC series reference number 146999
1470021978-08-25 21:34 58° 5' 46" N  12° 2' 49" W  View metadata report for BODC series reference number 147002
1470141978-08-25 21:36 58° 5' 46" N  12° 2' 49" W  View metadata report for BODC series reference number 147014
1470261978-08-25 21:38 58° 5' 46" N  12° 2' 49" W  View metadata report for BODC series reference number 147026
1470381978-08-25 21:40 58° 5' 46" N  12° 2' 49" W  View metadata report for BODC series reference number 147038
1470511978-08-25 21:42 58° 5' 46" N  12° 2' 49" W  View metadata report for BODC series reference number 147051
1470631978-08-25 21:44 58° 5' 46" N  12° 2' 49" W  View metadata report for BODC series reference number 147063
1470751978-08-25 21:46 58° 5' 46" N  12° 2' 49" W  View metadata report for BODC series reference number 147075
1463361978-08-25 17:40 58° 5' 51" N  12° 2' 55" W  View metadata report for BODC series reference number 146336
1463481978-08-25 17:42 58° 5' 51" N  12° 2' 55" W  View metadata report for BODC series reference number 146348
1327341978-08-19 11:54 58° 5' 51" N  12° 2' 51" W  View metadata report for BODC series reference number 132734
1327461978-08-19 11:56 58° 5' 51" N  12° 2' 51" W  View metadata report for BODC series reference number 132746
1327581978-08-19 11:58 58° 5' 51" N  12° 2' 51" W  View metadata report for BODC series reference number 132758
1327711978-08-19 12:00 58° 5' 51" N  12° 2' 51" W  View metadata report for BODC series reference number 132771
1327831978-08-19 12:02 58° 5' 51" N  12° 2' 51" W  View metadata report for BODC series reference number 132783
1327951978-08-19 12:04 58° 5' 51" N  12° 2' 51" W  View metadata report for BODC series reference number 132795
1328021978-08-19 12:06 58° 5' 51" N  12° 2' 51" W  View metadata report for BODC series reference number 132802
1328141978-08-19 12:08 58° 5' 51" N  12° 2' 51" W  View metadata report for BODC series reference number 132814
1328261978-08-19 12:10 58° 5' 51" N  12° 2' 51" W  View metadata report for BODC series reference number 132826
1328381978-08-19 12:12 58° 5' 51" N  12° 2' 51" W  View metadata report for BODC series reference number 132838
1328511978-08-19 12:14 58° 5' 51" N  12° 2' 51" W  View metadata report for BODC series reference number 132851
1328631978-08-19 12:46 58° 5' 51" N  12° 2' 51" W  View metadata report for BODC series reference number 132863
1328751978-08-19 12:48 58° 5' 51" N  12° 2' 51" W  View metadata report for BODC series reference number 132875
1321321978-08-19 08:08 58° 5' 51" N  12° 2' 48" W  View metadata report for BODC series reference number 132132
1321441978-08-19 08:10 58° 5' 51" N  12° 2' 48" W  View metadata report for BODC series reference number 132144
1321561978-08-19 08:12 58° 5' 51" N  12° 2' 48" W  View metadata report for BODC series reference number 132156
1321681978-08-19 08:14 58° 5' 51" N  12° 2' 48" W  View metadata report for BODC series reference number 132168
1321811978-08-19 08:16 58° 5' 51" N  12° 2' 48" W  View metadata report for BODC series reference number 132181
1321931978-08-19 08:46 58° 5' 51" N  12° 2' 48" W  View metadata report for BODC series reference number 132193
1322001978-08-19 08:48 58° 5' 51" N  12° 2' 48" W  View metadata report for BODC series reference number 132200
1322121978-08-19 08:50 58° 5' 51" N  12° 2' 48" W  View metadata report for BODC series reference number 132212
1322241978-08-19 08:52 58° 5' 51" N  12° 2' 48" W  View metadata report for BODC series reference number 132224
1322361978-08-19 08:54 58° 5' 51" N  12° 2' 48" W  View metadata report for BODC series reference number 132236
1322481978-08-19 08:56 58° 5' 51" N  12° 2' 48" W  View metadata report for BODC series reference number 132248
1322611978-08-19 08:58 58° 5' 51" N  12° 2' 48" W  View metadata report for BODC series reference number 132261
1322731978-08-19 09:00 58° 5' 51" N  12° 2' 48" W  View metadata report for BODC series reference number 132273
1322851978-08-19 09:02 58° 5' 51" N  12° 2' 48" W  View metadata report for BODC series reference number 132285
1322971978-08-19 09:04 58° 5' 51" N  12° 2' 48" W  View metadata report for BODC series reference number 132297
1323041978-08-19 09:06 58° 5' 51" N  12° 2' 48" W  View metadata report for BODC series reference number 132304
1323161978-08-19 09:08 58° 5' 51" N  12° 2' 48" W  View metadata report for BODC series reference number 132316
1323281978-08-19 09:10 58° 5' 51" N  12° 2' 48" W  View metadata report for BODC series reference number 132328
1323411978-08-19 09:12 58° 5' 51" N  12° 2' 48" W  View metadata report for BODC series reference number 132341
1323531978-08-19 09:14 58° 5' 51" N  12° 2' 48" W  View metadata report for BODC series reference number 132353
1323651978-08-19 09:16 58° 5' 51" N  12° 2' 48" W  View metadata report for BODC series reference number 132365
1323771978-08-19 09:44 58° 5' 51" N  12° 2' 48" W  View metadata report for BODC series reference number 132377
1323891978-08-19 09:46 58° 5' 51" N  12° 2' 48" W  View metadata report for BODC series reference number 132389
1323901978-08-19 09:48 58° 5' 51" N  12° 2' 48" W  View metadata report for BODC series reference number 132390
1324081978-08-19 09:50 58° 5' 51" N  12° 2' 48" W  View metadata report for BODC series reference number 132408
1324211978-08-19 09:52 58° 5' 51" N  12° 2' 48" W  View metadata report for BODC series reference number 132421
1324331978-08-19 09:54 58° 5' 51" N  12° 2' 48" W  View metadata report for BODC series reference number 132433
1324451978-08-19 09:56 58° 5' 51" N  12° 2' 48" W  View metadata report for BODC series reference number 132445
1324571978-08-19 09:58 58° 5' 51" N  12° 2' 48" W  View metadata report for BODC series reference number 132457
1324691978-08-19 10:00 58° 5' 51" N  12° 2' 48" W  View metadata report for BODC series reference number 132469
1324701978-08-19 10:02 58° 5' 51" N  12° 2' 48" W  View metadata report for BODC series reference number 132470
1324821978-08-19 10:04 58° 5' 51" N  12° 2' 48" W  View metadata report for BODC series reference number 132482
1324941978-08-19 10:06 58° 5' 51" N  12° 2' 48" W  View metadata report for BODC series reference number 132494
1325011978-08-19 10:08 58° 5' 51" N  12° 2' 48" W  View metadata report for BODC series reference number 132501
1317671978-08-19 05:16 58° 5' 51" N  12° 2' 56" W  View metadata report for BODC series reference number 131767
1317791978-08-19 05:46 58° 5' 51" N  12° 2' 56" W  View metadata report for BODC series reference number 131779
1317801978-08-19 05:48 58° 5' 51" N  12° 2' 56" W  View metadata report for BODC series reference number 131780
1317921978-08-19 05:50 58° 5' 51" N  12° 2' 56" W  View metadata report for BODC series reference number 131792
1318111978-08-19 05:52 58° 5' 51" N  12° 2' 56" W  View metadata report for BODC series reference number 131811
1318231978-08-19 05:54 58° 5' 51" N  12° 2' 56" W  View metadata report for BODC series reference number 131823
1318351978-08-19 05:56 58° 5' 51" N  12° 2' 56" W  View metadata report for BODC series reference number 131835
1318471978-08-19 06:46 58° 5' 51" N  12° 2' 56" W  View metadata report for BODC series reference number 131847
1318591978-08-19 06:48 58° 5' 51" N  12° 2' 56" W  View metadata report for BODC series reference number 131859
1318601978-08-19 06:50 58° 5' 51" N  12° 2' 56" W  View metadata report for BODC series reference number 131860
1209911978-08-04 10:02 58° 5' 49" N  12° 1' 56" W  View metadata report for BODC series reference number 120991
1210051978-08-04 10:04 58° 5' 49" N  12° 1' 56" W  View metadata report for BODC series reference number 121005
1210171978-08-04 10:06 58° 5' 49" N  12° 1' 56" W  View metadata report for BODC series reference number 121017
1210291978-08-04 10:08 58° 5' 49" N  12° 1' 56" W  View metadata report for BODC series reference number 121029
1210301978-08-04 10:10 58° 5' 49" N  12° 1' 56" W  View metadata report for BODC series reference number 121030
1210421978-08-04 10:12 58° 5' 49" N  12° 1' 56" W  View metadata report for BODC series reference number 121042
1210541978-08-04 10:14 58° 5' 49" N  12° 1' 56" W  View metadata report for BODC series reference number 121054
1210661978-08-04 10:16 58° 5' 49" N  12° 1' 56" W  View metadata report for BODC series reference number 121066
1210781978-08-04 10:18 58° 5' 49" N  12° 1' 56" W  View metadata report for BODC series reference number 121078
1210911978-08-04 10:20 58° 5' 49" N  12° 1' 56" W  View metadata report for BODC series reference number 121091
1211091978-08-04 10:22 58° 5' 49" N  12° 1' 56" W  View metadata report for BODC series reference number 121109
1211101978-08-04 10:24 58° 5' 49" N  12° 1' 56" W  View metadata report for BODC series reference number 121110
1211221978-08-04 10:26 58° 5' 49" N  12° 1' 56" W  View metadata report for BODC series reference number 121122
1211341978-08-04 10:28 58° 5' 49" N  12° 1' 56" W  View metadata report for BODC series reference number 121134
1211461978-08-04 10:30 58° 5' 49" N  12° 1' 56" W  View metadata report for BODC series reference number 121146
1211581978-08-04 10:32 58° 5' 49" N  12° 1' 56" W  View metadata report for BODC series reference number 121158
1211711978-08-04 10:34 58° 5' 49" N  12° 1' 56" W  View metadata report for BODC series reference number 121171
1211831978-08-04 10:36 58° 5' 49" N  12° 1' 56" W  View metadata report for BODC series reference number 121183
1211951978-08-04 10:38 58° 5' 49" N  12° 1' 56" W  View metadata report for BODC series reference number 121195
1212021978-08-04 10:40 58° 5' 49" N  12° 1' 56" W  View metadata report for BODC series reference number 121202
1212141978-08-04 10:42 58° 5' 49" N  12° 1' 56" W  View metadata report for BODC series reference number 121214
1212261978-08-04 10:44 58° 5' 49" N  12° 1' 56" W  View metadata report for BODC series reference number 121226
1212381978-08-04 10:46 58° 5' 49" N  12° 1' 56" W  View metadata report for BODC series reference number 121238
1212511978-08-04 10:48 58° 5' 49" N  12° 1' 56" W  View metadata report for BODC series reference number 121251
1212631978-08-04 10:50 58° 5' 49" N  12° 1' 56" W  View metadata report for BODC series reference number 121263
1212751978-08-04 10:52 58° 5' 49" N  12° 1' 56" W  View metadata report for BODC series reference number 121275
1212871978-08-04 10:54 58° 5' 49" N  12° 1' 56" W  View metadata report for BODC series reference number 121287
1212991978-08-04 10:56 58° 5' 49" N  12° 1' 56" W  View metadata report for BODC series reference number 121299
1213061978-08-04 10:58 58° 5' 49" N  12° 1' 56" W  View metadata report for BODC series reference number 121306
1213181978-08-04 11:00 58° 5' 49" N  12° 1' 56" W  View metadata report for BODC series reference number 121318
1213311978-08-04 11:02 58° 5' 49" N  12° 1' 56" W  View metadata report for BODC series reference number 121331
1213431978-08-04 11:04 58° 5' 49" N  12° 1' 56" W  View metadata report for BODC series reference number 121343
1213551978-08-04 11:06 58° 5' 49" N  12° 1' 56" W  View metadata report for BODC series reference number 121355
1213671978-08-04 11:08 58° 5' 49" N  12° 1' 56" W  View metadata report for BODC series reference number 121367
1213791978-08-04 15:17 58° 5' 42" N  12° 2' 26" W  View metadata report for BODC series reference number 121379
1213801978-08-04 15:19 58° 5' 42" N  12° 2' 26" W  View metadata report for BODC series reference number 121380
1213921978-08-04 15:21 58° 5' 42" N  12° 2' 26" W  View metadata report for BODC series reference number 121392
1214111978-08-04 15:24 58° 5' 42" N  12° 2' 26" W  View metadata report for BODC series reference number 121411
1214231978-08-04 15:25 58° 5' 42" N  12° 2' 26" W  View metadata report for BODC series reference number 121423
1214351978-08-04 15:27 58° 5' 42" N  12° 2' 26" W  View metadata report for BODC series reference number 121435
1214471978-08-04 15:29 58° 5' 42" N  12° 2' 26" W  View metadata report for BODC series reference number 121447
1214591978-08-04 15:31 58° 5' 42" N  12° 2' 26" W  View metadata report for BODC series reference number 121459
1214601978-08-04 15:33 58° 5' 42" N  12° 2' 26" W  View metadata report for BODC series reference number 121460
1214721978-08-04 15:35 58° 5' 42" N  12° 2' 26" W  View metadata report for BODC series reference number 121472
1214841978-08-04 15:37 58° 5' 42" N  12° 2' 26" W  View metadata report for BODC series reference number 121484
1214961978-08-04 15:39 58° 5' 42" N  12° 2' 26" W  View metadata report for BODC series reference number 121496
1215031978-08-04 15:41 58° 5' 42" N  12° 2' 26" W  View metadata report for BODC series reference number 121503
1215151978-08-04 15:43 58° 5' 42" N  12° 2' 26" W  View metadata report for BODC series reference number 121515
1215271978-08-04 15:45 58° 5' 42" N  12° 2' 26" W  View metadata report for BODC series reference number 121527
1215391978-08-04 15:47 58° 5' 42" N  12° 2' 26" W  View metadata report for BODC series reference number 121539
1215401978-08-04 15:49 58° 5' 42" N  12° 2' 26" W  View metadata report for BODC series reference number 121540
1215521978-08-04 15:51 58° 5' 42" N  12° 2' 26" W  View metadata report for BODC series reference number 121552
1215641978-08-04 15:53 58° 5' 42" N  12° 2' 26" W  View metadata report for BODC series reference number 121564
1215761978-08-04 15:55 58° 5' 42" N  12° 2' 26" W  View metadata report for BODC series reference number 121576
1215881978-08-04 15:57 58° 5' 42" N  12° 2' 26" W  View metadata report for BODC series reference number 121588
1216071978-08-04 15:59 58° 5' 42" N  12° 2' 26" W  View metadata report for BODC series reference number 121607
1216191978-08-04 16:01 58° 5' 42" N  12° 2' 26" W  View metadata report for BODC series reference number 121619
1463611978-08-25 17:44 58° 5' 51" N  12° 2' 55" W  View metadata report for BODC series reference number 146361
1463731978-08-25 17:46 58° 5' 51" N  12° 2' 55" W  View metadata report for BODC series reference number 146373
1463851978-08-25 17:48 58° 5' 51" N  12° 2' 55" W  View metadata report for BODC series reference number 146385
1463971978-08-25 17:50 58° 5' 51" N  12° 2' 55" W  View metadata report for BODC series reference number 146397
1464041978-08-25 17:52 58° 5' 51" N  12° 2' 55" W  View metadata report for BODC series reference number 146404
1464161978-08-25 17:54 58° 5' 51" N  12° 2' 55" W  View metadata report for BODC series reference number 146416
1464281978-08-25 17:56 58° 5' 51" N  12° 2' 55" W  View metadata report for BODC series reference number 146428
1464411978-08-25 17:58 58° 5' 51" N  12° 2' 55" W  View metadata report for BODC series reference number 146441
1464531978-08-25 18:00 58° 5' 51" N  12° 2' 55" W  View metadata report for BODC series reference number 146453
1464651978-08-25 18:28 58° 5' 51" N  12° 2' 55" W  View metadata report for BODC series reference number 146465
1464771978-08-25 18:30 58° 5' 51" N  12° 2' 55" W  View metadata report for BODC series reference number 146477
1464891978-08-25 18:32 58° 5' 51" N  12° 2' 55" W  View metadata report for BODC series reference number 146489
1464901978-08-25 18:34 58° 5' 51" N  12° 2' 55" W  View metadata report for BODC series reference number 146490
1465081978-08-25 18:36 58° 5' 51" N  12° 2' 55" W  View metadata report for BODC series reference number 146508
1465211978-08-25 18:38 58° 5' 51" N  12° 2' 55" W  View metadata report for BODC series reference number 146521
1465331978-08-25 18:40 58° 5' 51" N  12° 2' 55" W  View metadata report for BODC series reference number 146533
1465451978-08-25 18:42 58° 5' 51" N  12° 2' 55" W  View metadata report for BODC series reference number 146545
1465571978-08-25 18:44 58° 5' 51" N  12° 2' 55" W  View metadata report for BODC series reference number 146557
1465691978-08-25 18:46 58° 5' 51" N  12° 2' 55" W  View metadata report for BODC series reference number 146569
1465701978-08-25 18:48 58° 5' 51" N  12° 2' 55" W  View metadata report for BODC series reference number 146570
1465821978-08-25 18:50 58° 5' 51" N  12° 2' 55" W  View metadata report for BODC series reference number 146582
1465941978-08-25 18:52 58° 5' 51" N  12° 2' 55" W  View metadata report for BODC series reference number 146594
1466011978-08-25 18:54 58° 5' 51" N  12° 2' 55" W  View metadata report for BODC series reference number 146601
1466131978-08-25 18:56 58° 5' 51" N  12° 2' 55" W  View metadata report for BODC series reference number 146613
1466251978-08-25 18:58 58° 5' 51" N  12° 2' 55" W  View metadata report for BODC series reference number 146625
1466371978-08-25 19:28 58° 5' 51" N  12° 2' 55" W  View metadata report for BODC series reference number 146637
1466491978-08-25 19:30 58° 5' 51" N  12° 2' 55" W  View metadata report for BODC series reference number 146649
1466501978-08-25 19:32 58° 5' 51" N  12° 2' 55" W  View metadata report for BODC series reference number 146650
1466621978-08-25 19:34 58° 5' 51" N  12° 2' 55" W  View metadata report for BODC series reference number 146662
1466741978-08-25 19:36 58° 5' 51" N  12° 2' 55" W  View metadata report for BODC series reference number 146674
1466861978-08-25 19:38 58° 5' 51" N  12° 2' 55" W  View metadata report for BODC series reference number 146686
1466981978-08-25 19:40 58° 5' 51" N  12° 2' 55" W  View metadata report for BODC series reference number 146698
1459601978-08-25 14:37 58° 5' 49" N  12° 2' 49" W  View metadata report for BODC series reference number 145960
1459721978-08-25 14:39 58° 5' 49" N  12° 2' 49" W  View metadata report for BODC series reference number 145972
1459841978-08-25 14:41 58° 5' 49" N  12° 2' 49" W  View metadata report for BODC series reference number 145984
1459961978-08-25 14:43 58° 5' 49" N  12° 2' 49" W  View metadata report for BODC series reference number 145996
1460111978-08-25 14:45 58° 5' 49" N  12° 2' 49" W  View metadata report for BODC series reference number 146011
1460231978-08-25 14:47 58° 5' 49" N  12° 2' 49" W  View metadata report for BODC series reference number 146023
1460351978-08-25 14:49 58° 5' 49" N  12° 2' 49" W  View metadata report for BODC series reference number 146035
1460471978-08-25 14:51 58° 5' 49" N  12° 2' 49" W  View metadata report for BODC series reference number 146047
1460591978-08-25 14:53 58° 5' 49" N  12° 2' 49" W  View metadata report for BODC series reference number 146059
1460601978-08-25 14:55 58° 5' 49" N  12° 2' 49" W  View metadata report for BODC series reference number 146060
1460721978-08-25 14:57 58° 5' 49" N  12° 2' 49" W  View metadata report for BODC series reference number 146072
1460841978-08-25 14:59 58° 5' 49" N  12° 2' 49" W  View metadata report for BODC series reference number 146084
1460961978-08-25 15:01 58° 5' 49" N  12° 2' 49" W  View metadata report for BODC series reference number 146096
1461031978-08-25 15:32 58° 5' 44" N  12° 2' 46" W  View metadata report for BODC series reference number 146103
1461151978-08-25 15:34 58° 5' 44" N  12° 2' 46" W  View metadata report for BODC series reference number 146115
1461271978-08-25 15:36 58° 5' 44" N  12° 2' 46" W  View metadata report for BODC series reference number 146127
1461391978-08-25 15:38 58° 5' 44" N  12° 2' 46" W  View metadata report for BODC series reference number 146139
1461401978-08-25 15:40 58° 5' 44" N  12° 2' 46" W  View metadata report for BODC series reference number 146140
1461521978-08-25 15:42 58° 5' 44" N  12° 2' 46" W  View metadata report for BODC series reference number 146152
1363171978-08-22 13:34 59° 0' 6" N  12° 3' 9" W  View metadata report for BODC series reference number 136317
1363291978-08-22 13:36 59° 0' 6" N  12° 3' 9" W  View metadata report for BODC series reference number 136329
1363301978-08-22 13:38 59° 0' 6" N  12° 3' 9" W  View metadata report for BODC series reference number 136330
1363421978-08-22 13:40 59° 0' 6" N  12° 3' 9" W  View metadata report for BODC series reference number 136342
1363541978-08-22 13:42 59° 0' 6" N  12° 3' 9" W  View metadata report for BODC series reference number 136354
1363661978-08-22 13:44 59° 0' 6" N  12° 3' 9" W  View metadata report for BODC series reference number 136366
1318721978-08-19 06:52 58° 5' 51" N  12° 2' 56" W  View metadata report for BODC series reference number 131872
1318841978-08-19 06:54 58° 5' 51" N  12° 2' 56" W  View metadata report for BODC series reference number 131884
1318961978-08-19 06:56 58° 5' 51" N  12° 2' 56" W  View metadata report for BODC series reference number 131896
1319031978-08-19 06:58 58° 5' 51" N  12° 2' 56" W  View metadata report for BODC series reference number 131903
1319151978-08-19 07:00 58° 5' 51" N  12° 2' 56" W  View metadata report for BODC series reference number 131915
1319271978-08-19 07:02 58° 5' 51" N  12° 2' 56" W  View metadata report for BODC series reference number 131927
1319391978-08-19 07:04 58° 5' 51" N  12° 2' 56" W  View metadata report for BODC series reference number 131939
1319401978-08-19 07:06 58° 5' 51" N  12° 2' 56" W  View metadata report for BODC series reference number 131940
1319521978-08-19 07:08 58° 5' 51" N  12° 2' 56" W  View metadata report for BODC series reference number 131952
1319641978-08-19 07:10 58° 5' 51" N  12° 2' 56" W  View metadata report for BODC series reference number 131964
1319761978-08-19 07:12 58° 5' 51" N  12° 2' 56" W  View metadata report for BODC series reference number 131976
1319881978-08-19 07:14 58° 5' 51" N  12° 2' 56" W  View metadata report for BODC series reference number 131988
1320031978-08-19 07:16 58° 5' 51" N  12° 2' 56" W  View metadata report for BODC series reference number 132003
1320151978-08-19 07:46 58° 5' 51" N  12° 2' 48" W  View metadata report for BODC series reference number 132015
1320271978-08-19 07:48 58° 5' 51" N  12° 2' 48" W  View metadata report for BODC series reference number 132027
1320391978-08-19 07:50 58° 5' 51" N  12° 2' 48" W  View metadata report for BODC series reference number 132039
1320401978-08-19 07:52 58° 5' 51" N  12° 2' 48" W  View metadata report for BODC series reference number 132040
1320521978-08-19 07:54 58° 5' 51" N  12° 2' 48" W  View metadata report for BODC series reference number 132052
1320641978-08-19 07:56 58° 5' 51" N  12° 2' 48" W  View metadata report for BODC series reference number 132064
1320761978-08-19 07:58 58° 5' 51" N  12° 2' 48" W  View metadata report for BODC series reference number 132076
1320881978-08-19 08:00 58° 5' 51" N  12° 2' 48" W  View metadata report for BODC series reference number 132088
1321071978-08-19 08:02 58° 5' 51" N  12° 2' 48" W  View metadata report for BODC series reference number 132107
1321191978-08-19 08:04 58° 5' 51" N  12° 2' 48" W  View metadata report for BODC series reference number 132119
1321201978-08-19 08:06 58° 5' 51" N  12° 2' 48" W  View metadata report for BODC series reference number 132120
1313861978-08-19 03:12 58° 5' 51" N  12° 2' 56" W  View metadata report for BODC series reference number 131386
1313981978-08-19 03:14 58° 5' 51" N  12° 2' 56" W  View metadata report for BODC series reference number 131398
1314051978-08-19 03:16 58° 5' 51" N  12° 2' 56" W  View metadata report for BODC series reference number 131405
1314171978-08-19 03:18 58° 5' 51" N  12° 2' 56" W  View metadata report for BODC series reference number 131417
1314291978-08-19 03:48 58° 5' 51" N  12° 2' 56" W  View metadata report for BODC series reference number 131429
1314301978-08-19 03:50 58° 5' 51" N  12° 2' 56" W  View metadata report for BODC series reference number 131430
1314421978-08-19 03:52 58° 5' 51" N  12° 2' 56" W  View metadata report for BODC series reference number 131442
1314541978-08-19 03:54 58° 5' 51" N  12° 2' 56" W  View metadata report for BODC series reference number 131454
1314661978-08-19 03:56 58° 5' 51" N  12° 2' 56" W  View metadata report for BODC series reference number 131466
1314781978-08-19 03:58 58° 5' 51" N  12° 2' 56" W  View metadata report for BODC series reference number 131478
1314911978-08-19 04:00 58° 5' 51" N  12° 2' 56" W  View metadata report for BODC series reference number 131491
1315091978-08-19 04:02 58° 5' 51" N  12° 2' 56" W  View metadata report for BODC series reference number 131509
1315101978-08-19 04:04 58° 5' 51" N  12° 2' 56" W  View metadata report for BODC series reference number 131510
1315221978-08-19 04:06 58° 5' 51" N  12° 2' 56" W  View metadata report for BODC series reference number 131522
1315341978-08-19 04:08 58° 5' 51" N  12° 2' 56" W  View metadata report for BODC series reference number 131534
1315461978-08-19 04:10 58° 5' 51" N  12° 2' 56" W  View metadata report for BODC series reference number 131546
1315581978-08-19 04:12 58° 5' 51" N  12° 2' 56" W  View metadata report for BODC series reference number 131558
1315711978-08-19 04:14 58° 5' 51" N  12° 2' 56" W  View metadata report for BODC series reference number 131571
1315831978-08-19 04:18 58° 5' 51" N  12° 2' 56" W  View metadata report for BODC series reference number 131583
1434311978-08-24 18:34 58° 5' 44" N  12° 3' 1" W  View metadata report for BODC series reference number 143431
1434431978-08-24 18:36 58° 5' 44" N  12° 3' 1" W  View metadata report for BODC series reference number 143443
1434551978-08-24 18:38 58° 5' 44" N  12° 3' 1" W  View metadata report for BODC series reference number 143455
1434671978-08-24 18:40 58° 5' 44" N  12° 3' 1" W  View metadata report for BODC series reference number 143467
1434791978-08-24 18:42 58° 5' 44" N  12° 3' 1" W  View metadata report for BODC series reference number 143479
1434801978-08-24 18:44 58° 5' 44" N  12° 3' 1" W  View metadata report for BODC series reference number 143480
1434921978-08-24 18:46 58° 5' 44" N  12° 3' 1" W  View metadata report for BODC series reference number 143492
1435111978-08-24 18:48 58° 5' 44" N  12° 3' 1" W  View metadata report for BODC series reference number 143511
1435231978-08-24 18:50 58° 5' 44" N  12° 3' 1" W  View metadata report for BODC series reference number 143523
1435351978-08-24 18:52 58° 5' 44" N  12° 3' 1" W  View metadata report for BODC series reference number 143535
1435471978-08-24 18:54 58° 5' 44" N  12° 3' 1" W  View metadata report for BODC series reference number 143547
1435591978-08-24 18:56 58° 5' 44" N  12° 3' 1" W  View metadata report for BODC series reference number 143559
1435601978-08-24 18:58 58° 5' 44" N  12° 3' 1" W  View metadata report for BODC series reference number 143560
1435721978-08-24 19:00 58° 5' 44" N  12° 3' 1" W  View metadata report for BODC series reference number 143572
1216201978-08-04 16:03 58° 5' 42" N  12° 2' 26" W  View metadata report for BODC series reference number 121620
1216321978-08-04 16:05 58° 5' 42" N  12° 2' 26" W  View metadata report for BODC series reference number 121632
1216441978-08-04 16:07 58° 5' 42" N  12° 2' 26" W  View metadata report for BODC series reference number 121644
1216561978-08-04 16:09 58° 5' 42" N  12° 2' 26" W  View metadata report for BODC series reference number 121656
1216681978-08-04 16:11 58° 5' 42" N  12° 2' 26" W  View metadata report for BODC series reference number 121668
1216811978-08-04 16:13 58° 5' 42" N  12° 2' 26" W  View metadata report for BODC series reference number 121681
1216931978-08-04 16:15 58° 5' 42" N  12° 2' 26" W  View metadata report for BODC series reference number 121693
1217001978-08-04 16:17 58° 5' 42" N  12° 2' 26" W  View metadata report for BODC series reference number 121700
1217121978-08-04 16:19 58° 5' 42" N  12° 2' 26" W  View metadata report for BODC series reference number 121712
1217241978-08-04 16:21 58° 5' 42" N  12° 2' 26" W  View metadata report for BODC series reference number 121724
1217361978-08-04 16:23 58° 5' 42" N  12° 2' 26" W  View metadata report for BODC series reference number 121736
1217481978-08-04 16:25 58° 5' 42" N  12° 2' 26" W  View metadata report for BODC series reference number 121748
1217611978-08-04 16:27 58° 5' 42" N  12° 2' 26" W  View metadata report for BODC series reference number 121761
1217731978-08-04 16:29 58° 5' 42" N  12° 2' 26" W  View metadata report for BODC series reference number 121773
1217851978-08-04 16:31 58° 5' 42" N  12° 2' 26" W  View metadata report for BODC series reference number 121785
1217971978-08-04 16:33 58° 5' 42" N  12° 2' 26" W  View metadata report for BODC series reference number 121797
1218041978-08-04 16:35 58° 5' 42" N  12° 2' 26" W  View metadata report for BODC series reference number 121804
1218161978-08-04 16:37 58° 5' 42" N  12° 2' 26" W  View metadata report for BODC series reference number 121816
1218281978-08-04 16:39 58° 5' 42" N  12° 2' 26" W  View metadata report for BODC series reference number 121828
1218411978-08-04 16:41 58° 5' 42" N  12° 2' 26" W  View metadata report for BODC series reference number 121841
1218531978-08-04 16:43 58° 5' 42" N  12° 2' 26" W  View metadata report for BODC series reference number 121853
1218651978-08-04 16:45 58° 5' 42" N  12° 2' 26" W  View metadata report for BODC series reference number 121865
1218771978-08-04 16:47 58° 5' 42" N  12° 2' 26" W  View metadata report for BODC series reference number 121877
1218891978-08-04 16:49 58° 5' 42" N  12° 2' 26" W  View metadata report for BODC series reference number 121889
1218901978-08-04 16:51 58° 5' 42" N  12° 2' 26" W  View metadata report for BODC series reference number 121890
1219081978-08-04 16:53 58° 5' 42" N  12° 2' 26" W  View metadata report for BODC series reference number 121908
1219211978-08-04 16:55 58° 5' 42" N  12° 2' 26" W  View metadata report for BODC series reference number 121921
1219331978-08-04 16:57 58° 5' 42" N  12° 2' 26" W  View metadata report for BODC series reference number 121933
1219451978-08-04 16:59 58° 5' 42" N  12° 2' 26" W  View metadata report for BODC series reference number 121945
1219571978-08-04 17:01 58° 5' 42" N  12° 2' 26" W  View metadata report for BODC series reference number 121957
1219691978-08-04 17:03 58° 5' 42" N  12° 2' 26" W  View metadata report for BODC series reference number 121969
1219701978-08-04 17:05 58° 5' 42" N  12° 2' 26" W  View metadata report for BODC series reference number 121970
1219821978-08-04 17:07 58° 5' 42" N  12° 2' 26" W  View metadata report for BODC series reference number 121982
1219941978-08-04 17:09 58° 5' 42" N  12° 2' 26" W  View metadata report for BODC series reference number 121994
1220081978-08-05 00:12 58° 5' 50" N  12° 2' 50" W  View metadata report for BODC series reference number 122008
1220211978-08-05 03:20 58° 5' 50" N  12° 2' 50" W  View metadata report for BODC series reference number 122021
1220331978-08-05 06:45 58° 5' 49" N  12° 2' 39" W  View metadata report for BODC series reference number 122033
1220451978-08-05 09:03 58° 5' 57" N  12° 2' 27" W  View metadata report for BODC series reference number 122045
1220571978-08-05 09:07 58° 5' 57" N  12° 2' 27" W  View metadata report for BODC series reference number 122057
1220691978-08-04 09:27 58° 5' 57" N  12° 2' 27" W  View metadata report for BODC series reference number 122069
1220701978-08-04 09:29 58° 5' 57" N  12° 2' 27" W  View metadata report for BODC series reference number 122070
1220821978-08-04 09:31 58° 5' 57" N  12° 2' 27" W  View metadata report for BODC series reference number 122082
1220941978-08-04 09:33 58° 5' 57" N  12° 2' 27" W  View metadata report for BODC series reference number 122094
1221011978-08-04 09:35 58° 5' 57" N  12° 2' 27" W  View metadata report for BODC series reference number 122101
1221131978-08-04 09:37 58° 5' 57" N  12° 2' 27" W  View metadata report for BODC series reference number 122113
1221251978-08-04 09:39 58° 5' 57" N  12° 2' 27" W  View metadata report for BODC series reference number 122125
1221371978-08-04 09:41 58° 5' 57" N  12° 2' 27" W  View metadata report for BODC series reference number 122137
1221491978-08-04 09:43 58° 5' 57" N  12° 2' 27" W  View metadata report for BODC series reference number 122149
1221501978-08-04 09:45 58° 5' 57" N  12° 2' 27" W  View metadata report for BODC series reference number 122150
1221621978-08-04 09:47 58° 5' 57" N  12° 2' 27" W  View metadata report for BODC series reference number 122162
1221741978-08-04 09:49 58° 5' 57" N  12° 2' 27" W  View metadata report for BODC series reference number 122174
1221861978-08-04 09:51 58° 5' 57" N  12° 2' 27" W  View metadata report for BODC series reference number 122186
1221981978-08-04 09:53 58° 5' 57" N  12° 2' 27" W  View metadata report for BODC series reference number 122198
1222051978-08-04 09:55 58° 5' 57" N  12° 2' 27" W  View metadata report for BODC series reference number 122205
1222171978-08-04 09:57 58° 5' 57" N  12° 2' 27" W  View metadata report for BODC series reference number 122217
1222291978-08-04 09:59 58° 5' 57" N  12° 2' 27" W  View metadata report for BODC series reference number 122229
1222301978-08-04 10:01 58° 5' 57" N  12° 2' 27" W  View metadata report for BODC series reference number 122230
1363781978-08-22 13:46 59° 0' 6" N  12° 3' 9" W  View metadata report for BODC series reference number 136378
1363911978-08-22 13:48 59° 0' 6" N  12° 3' 9" W  View metadata report for BODC series reference number 136391
1364091978-08-22 13:50 59° 0' 6" N  12° 3' 9" W  View metadata report for BODC series reference number 136409
1364101978-08-22 13:52 59° 0' 6" N  12° 3' 9" W  View metadata report for BODC series reference number 136410
1364221978-08-22 13:54 59° 0' 6" N  12° 3' 9" W  View metadata report for BODC series reference number 136422
1364341978-08-22 13:56 59° 0' 6" N  12° 3' 9" W  View metadata report for BODC series reference number 136434
1364461978-08-22 13:58 59° 0' 6" N  12° 3' 9" W  View metadata report for BODC series reference number 136446
1364581978-08-22 14:00 59° 0' 6" N  12° 3' 9" W  View metadata report for BODC series reference number 136458
1364711978-08-22 14:02 59° 0' 6" N  12° 3' 9" W  View metadata report for BODC series reference number 136471
1364831978-08-22 14:04 59° 0' 6" N  12° 3' 9" W  View metadata report for BODC series reference number 136483
1364951978-08-22 14:06 59° 0' 6" N  12° 3' 9" W  View metadata report for BODC series reference number 136495
1365021978-08-22 14:08 59° 0' 6" N  12° 3' 9" W  View metadata report for BODC series reference number 136502
1365141978-08-22 14:10 59° 0' 6" N  12° 3' 9" W  View metadata report for BODC series reference number 136514
1365261978-08-22 14:12 59° 0' 6" N  12° 3' 9" W  View metadata report for BODC series reference number 136526
1365381978-08-22 14:14 59° 0' 6" N  12° 3' 9" W  View metadata report for BODC series reference number 136538
1365511978-08-22 14:16 59° 0' 6" N  12° 3' 9" W  View metadata report for BODC series reference number 136551
1365631978-08-22 14:50 58° 5' 57" N  12° 2' 57" W  View metadata report for BODC series reference number 136563
1365751978-08-22 14:52 58° 5' 57" N  12° 2' 57" W  View metadata report for BODC series reference number 136575
1365871978-08-22 14:54 58° 5' 57" N  12° 2' 57" W  View metadata report for BODC series reference number 136587
1365991978-08-22 14:56 58° 5' 57" N  12° 2' 57" W  View metadata report for BODC series reference number 136599
1366061978-08-22 14:58 58° 5' 57" N  12° 2' 57" W  View metadata report for BODC series reference number 136606
1358731978-08-22 12:14 59° 0' 6" N  12° 3' 9" W  View metadata report for BODC series reference number 135873
1358851978-08-22 12:16 59° 0' 6" N  12° 3' 9" W  View metadata report for BODC series reference number 135885
1358971978-08-22 12:18 59° 0' 6" N  12° 3' 9" W  View metadata report for BODC series reference number 135897
1359041978-08-22 12:20 59° 0' 6" N  12° 3' 9" W  View metadata report for BODC series reference number 135904
1359161978-08-22 12:22 59° 0' 6" N  12° 3' 9" W  View metadata report for BODC series reference number 135916
1359281978-08-22 12:24 59° 0' 6" N  12° 3' 9" W  View metadata report for BODC series reference number 135928
1359411978-08-22 12:26 59° 0' 6" N  12° 3' 9" W  View metadata report for BODC series reference number 135941
1359531978-08-22 12:28 59° 0' 6" N  12° 3' 9" W  View metadata report for BODC series reference number 135953
1359651978-08-22 12:30 59° 0' 6" N  12° 3' 9" W  View metadata report for BODC series reference number 135965
1359771978-08-22 12:32 59° 0' 6" N  12° 3' 9" W  View metadata report for BODC series reference number 135977
1359891978-08-22 12:34 59° 0' 6" N  12° 3' 9" W  View metadata report for BODC series reference number 135989
1359901978-08-22 12:36 59° 0' 6" N  12° 3' 9" W  View metadata report for BODC series reference number 135990
1360041978-08-22 12:38 59° 0' 6" N  12° 3' 9" W  View metadata report for BODC series reference number 136004
1360161978-08-22 12:40 59° 0' 6" N  12° 3' 9" W  View metadata report for BODC series reference number 136016
1360281978-08-22 12:42 59° 0' 6" N  12° 3' 9" W  View metadata report for BODC series reference number 136028
1360411978-08-22 12:44 59° 0' 6" N  12° 3' 9" W  View metadata report for BODC series reference number 136041
1360531978-08-22 12:46 59° 0' 6" N  12° 3' 9" W  View metadata report for BODC series reference number 136053
1360651978-08-22 12:48 59° 0' 6" N  12° 3' 9" W  View metadata report for BODC series reference number 136065
1360771978-08-22 12:50 59° 0' 6" N  12° 3' 9" W  View metadata report for BODC series reference number 136077
1360891978-08-22 12:50 59° 0' 6" N  12° 3' 9" W  View metadata report for BODC series reference number 136089
1360901978-08-22 12:52 59° 0' 6" N  12° 3' 9" W  View metadata report for BODC series reference number 136090
1361081978-08-22 12:54 59° 0' 6" N  12° 3' 9" W  View metadata report for BODC series reference number 136108
1361211978-08-22 12:56 59° 0' 6" N  12° 3' 9" W  View metadata report for BODC series reference number 136121
1361331978-08-22 12:58 59° 0' 6" N  12° 3' 9" W  View metadata report for BODC series reference number 136133
1361451978-08-22 13:00 59° 0' 6" N  12° 3' 9" W  View metadata report for BODC series reference number 136145
1361571978-08-22 13:02 59° 0' 6" N  12° 3' 9" W  View metadata report for BODC series reference number 136157
1361691978-08-22 13:04 59° 0' 6" N  12° 3' 9" W  View metadata report for BODC series reference number 136169
1361701978-08-22 13:06 59° 0' 6" N  12° 3' 9" W  View metadata report for BODC series reference number 136170
1361821978-08-22 13:08 59° 0' 6" N  12° 3' 9" W  View metadata report for BODC series reference number 136182
1361941978-08-22 13:10 59° 0' 6" N  12° 3' 9" W  View metadata report for BODC series reference number 136194
1362011978-08-22 13:12 59° 0' 6" N  12° 3' 9" W  View metadata report for BODC series reference number 136201
1362131978-08-22 13:14 59° 0' 6" N  12° 3' 9" W  View metadata report for BODC series reference number 136213
1362251978-08-22 13:16 59° 0' 6" N  12° 3' 9" W  View metadata report for BODC series reference number 136225
1362371978-08-22 13:18 59° 0' 6" N  12° 3' 9" W  View metadata report for BODC series reference number 136237
1354921978-08-22 07:15 58° 5' 54" N  12° 3' 9" W  View metadata report for BODC series reference number 135492
1355111978-08-22 07:17 58° 5' 54" N  12° 3' 9" W  View metadata report for BODC series reference number 135511
1355231978-08-22 07:19 58° 5' 54" N  12° 3' 9" W  View metadata report for BODC series reference number 135523
1435841978-08-24 19:02 58° 5' 44" N  12° 3' 1" W  View metadata report for BODC series reference number 143584
1435961978-08-24 19:04 58° 5' 44" N  12° 3' 1" W  View metadata report for BODC series reference number 143596
1436031978-08-24 19:06 58° 5' 44" N  12° 3' 1" W  View metadata report for BODC series reference number 143603
1436151978-08-24 20:30 58° 5' 48" N  12° 3' 2" W  View metadata report for BODC series reference number 143615
1436271978-08-24 20:32 58° 5' 48" N  12° 3' 2" W  View metadata report for BODC series reference number 143627
1436391978-08-24 20:34 58° 5' 48" N  12° 3' 2" W  View metadata report for BODC series reference number 143639
1436401978-08-24 20:36 58° 5' 48" N  12° 3' 2" W  View metadata report for BODC series reference number 143640
1436521978-08-24 20:38 58° 5' 48" N  12° 3' 2" W  View metadata report for BODC series reference number 143652
1436641978-08-24 20:40 58° 5' 48" N  12° 3' 2" W  View metadata report for BODC series reference number 143664
1436761978-08-24 20:42 58° 5' 48" N  12° 3' 2" W  View metadata report for BODC series reference number 143676
1436881978-08-24 20:44 58° 5' 48" N  12° 3' 2" W  View metadata report for BODC series reference number 143688
1437071978-08-24 20:46 58° 5' 48" N  12° 3' 2" W  View metadata report for BODC series reference number 143707
1429741978-08-24 16:42 58° 5' 44" N  12° 3' 1" W  View metadata report for BODC series reference number 142974
1429861978-08-24 16:44 58° 5' 44" N  12° 3' 1" W  View metadata report for BODC series reference number 142986
1429981978-08-24 16:46 58° 5' 44" N  12° 3' 1" W  View metadata report for BODC series reference number 142998
1430011978-08-24 16:48 58° 5' 44" N  12° 3' 1" W  View metadata report for BODC series reference number 143001
1430131978-08-24 16:50 58° 5' 44" N  12° 3' 1" W  View metadata report for BODC series reference number 143013
1430251978-08-24 16:52 58° 5' 44" N  12° 3' 1" W  View metadata report for BODC series reference number 143025
1430371978-08-24 16:54 58° 5' 44" N  12° 3' 1" W  View metadata report for BODC series reference number 143037
1430491978-08-24 16:56 58° 5' 44" N  12° 3' 1" W  View metadata report for BODC series reference number 143049
1430501978-08-24 16:58 58° 5' 44" N  12° 3' 1" W  View metadata report for BODC series reference number 143050
1430621978-08-24 17:00 58° 5' 44" N  12° 3' 1" W  View metadata report for BODC series reference number 143062
1430741978-08-24 17:02 58° 5' 44" N  12° 3' 1" W  View metadata report for BODC series reference number 143074
1430861978-08-24 17:04 58° 5' 44" N  12° 3' 1" W  View metadata report for BODC series reference number 143086
1430981978-08-24 17:06 58° 5' 44" N  12° 3' 1" W  View metadata report for BODC series reference number 143098
1431051978-08-24 17:08 58° 5' 44" N  12° 3' 1" W  View metadata report for BODC series reference number 143105
1431171978-08-24 17:10 58° 5' 44" N  12° 3' 1" W  View metadata report for BODC series reference number 143117
1431291978-08-24 17:12 58° 5' 44" N  12° 3' 1" W  View metadata report for BODC series reference number 143129
1431301978-08-24 17:14 58° 5' 44" N  12° 3' 1" W  View metadata report for BODC series reference number 143130
1431421978-08-24 17:16 58° 5' 44" N  12° 3' 1" W  View metadata report for BODC series reference number 143142
1431541978-08-24 17:18 58° 5' 44" N  12° 3' 1" W  View metadata report for BODC series reference number 143154
1431661978-08-24 17:20 58° 5' 44" N  12° 3' 1" W  View metadata report for BODC series reference number 143166
1431781978-08-24 17:22 58° 5' 44" N  12° 3' 1" W  View metadata report for BODC series reference number 143178
1431911978-08-24 17:24 58° 5' 44" N  12° 3' 1" W  View metadata report for BODC series reference number 143191
1432091978-08-24 17:26 58° 5' 44" N  12° 3' 1" W  View metadata report for BODC series reference number 143209
1432101978-08-24 17:56 58° 5' 44" N  12° 3' 1" W  View metadata report for BODC series reference number 143210
1432221978-08-24 17:58 58° 5' 44" N  12° 3' 1" W  View metadata report for BODC series reference number 143222
1432341978-08-24 18:00 58° 5' 44" N  12° 3' 1" W  View metadata report for BODC series reference number 143234
1432461978-08-24 18:02 58° 5' 44" N  12° 3' 1" W  View metadata report for BODC series reference number 143246
1432581978-08-24 18:04 58° 5' 44" N  12° 3' 1" W  View metadata report for BODC series reference number 143258
1432711978-08-24 18:06 58° 5' 44" N  12° 3' 1" W  View metadata report for BODC series reference number 143271
1432831978-08-24 18:08 58° 5' 44" N  12° 3' 1" W  View metadata report for BODC series reference number 143283
1432951978-08-24 18:10 58° 5' 44" N  12° 3' 1" W  View metadata report for BODC series reference number 143295
1433021978-08-24 18:12 58° 5' 44" N  12° 3' 1" W  View metadata report for BODC series reference number 143302
1433261978-08-24 18:16 58° 5' 44" N  12° 3' 1" W  View metadata report for BODC series reference number 143326
1426001978-08-24 15:34 58° 5' 44" N  12° 3' 1" W  View metadata report for BODC series reference number 142600
1426121978-08-24 15:36 58° 5' 44" N  12° 3' 1" W  View metadata report for BODC series reference number 142612
1426241978-08-24 15:38 58° 5' 44" N  12° 3' 1" W  View metadata report for BODC series reference number 142624
1426361978-08-24 15:40 58° 5' 44" N  12° 3' 1" W  View metadata report for BODC series reference number 142636
1426481978-08-24 15:42 58° 5' 44" N  12° 3' 1" W  View metadata report for BODC series reference number 142648
1426611978-08-24 15:44 58° 5' 44" N  12° 3' 1" W  View metadata report for BODC series reference number 142661
1426731978-08-24 15:46 58° 5' 44" N  12° 3' 1" W  View metadata report for BODC series reference number 142673
1426851978-08-24 15:48 58° 5' 44" N  12° 3' 1" W  View metadata report for BODC series reference number 142685
1426971978-08-24 15:50 58° 5' 44" N  12° 3' 1" W  View metadata report for BODC series reference number 142697
1427041978-08-24 15:52 58° 5' 44" N  12° 3' 1" W  View metadata report for BODC series reference number 142704
1427161978-08-24 15:54 58° 5' 44" N  12° 3' 1" W  View metadata report for BODC series reference number 142716
1427281978-08-24 15:56 58° 5' 44" N  12° 3' 1" W  View metadata report for BODC series reference number 142728
1427411978-08-24 15:58 58° 5' 44" N  12° 3' 1" W  View metadata report for BODC series reference number 142741
1222421978-08-04 10:03 58° 5' 57" N  12° 2' 27" W  View metadata report for BODC series reference number 122242
1222541978-08-04 10:05 58° 5' 57" N  12° 2' 27" W  View metadata report for BODC series reference number 122254
1222661978-08-04 10:07 58° 5' 57" N  12° 2' 27" W  View metadata report for BODC series reference number 122266
1222781978-08-04 10:09 58° 5' 57" N  12° 2' 27" W  View metadata report for BODC series reference number 122278
1222911978-08-04 10:11 58° 5' 57" N  12° 2' 27" W  View metadata report for BODC series reference number 122291
1223091978-08-04 10:13 58° 5' 57" N  12° 2' 27" W  View metadata report for BODC series reference number 122309
1223101978-08-04 10:15 58° 5' 57" N  12° 2' 27" W  View metadata report for BODC series reference number 122310
1223221978-08-04 10:17 58° 5' 57" N  12° 2' 27" W  View metadata report for BODC series reference number 122322
1355351978-08-22 07:21 58° 5' 54" N  12° 3' 9" W  View metadata report for BODC series reference number 135535
1355471978-08-22 07:23 58° 5' 54" N  12° 3' 9" W  View metadata report for BODC series reference number 135547
1355591978-08-22 07:25 58° 5' 54" N  12° 3' 9" W  View metadata report for BODC series reference number 135559
1355601978-08-22 07:27 58° 5' 54" N  12° 3' 9" W  View metadata report for BODC series reference number 135560
1355721978-08-22 07:29 58° 5' 54" N  12° 3' 9" W  View metadata report for BODC series reference number 135572
1355841978-08-22 07:31 58° 5' 54" N  12° 3' 9" W  View metadata report for BODC series reference number 135584
1355961978-08-22 07:33 58° 5' 54" N  12° 3' 9" W  View metadata report for BODC series reference number 135596
1356031978-08-22 07:35 58° 5' 54" N  12° 3' 9" W  View metadata report for BODC series reference number 135603
1356151978-08-22 07:37 58° 5' 54" N  12° 3' 9" W  View metadata report for BODC series reference number 135615
1356271978-08-22 07:39 58° 5' 54" N  12° 3' 9" W  View metadata report for BODC series reference number 135627
1356391978-08-22 07:41 58° 5' 54" N  12° 3' 9" W  View metadata report for BODC series reference number 135639
1356401978-08-22 07:43 58° 5' 54" N  12° 3' 9" W  View metadata report for BODC series reference number 135640
1356521978-08-22 07:45 58° 5' 54" N  12° 3' 9" W  View metadata report for BODC series reference number 135652
1356641978-08-22 07:47 58° 5' 54" N  12° 3' 9" W  View metadata report for BODC series reference number 135664
1356761978-08-22 07:49 58° 5' 54" N  12° 3' 9" W  View metadata report for BODC series reference number 135676
1356881978-08-22 07:51 58° 5' 54" N  12° 3' 9" W  View metadata report for BODC series reference number 135688
1357071978-08-22 07:53 58° 5' 54" N  12° 3' 9" W  View metadata report for BODC series reference number 135707
1357191978-08-22 07:55 58° 5' 54" N  12° 3' 9" W  View metadata report for BODC series reference number 135719
1357201978-08-22 07:57 58° 5' 54" N  12° 3' 9" W  View metadata report for BODC series reference number 135720
1357321978-08-22 07:59 58° 5' 54" N  12° 3' 9" W  View metadata report for BODC series reference number 135732
1357441978-08-22 08:01 58° 5' 54" N  12° 3' 9" W  View metadata report for BODC series reference number 135744
1357561978-08-22 08:03 58° 5' 54" N  12° 3' 9" W  View metadata report for BODC series reference number 135756
1357681978-08-22 08:05 58° 5' 54" N  12° 3' 9" W  View metadata report for BODC series reference number 135768
1357811978-08-22 08:07 58° 5' 54" N  12° 3' 9" W  View metadata report for BODC series reference number 135781
1357931978-08-22 08:09 58° 5' 54" N  12° 3' 9" W  View metadata report for BODC series reference number 135793
1358001978-08-22 08:11 58° 5' 54" N  12° 3' 9" W  View metadata report for BODC series reference number 135800
1358121978-08-22 08:13 58° 5' 54" N  12° 3' 9" W  View metadata report for BODC series reference number 135812
1358241978-08-22 08:15 58° 5' 54" N  12° 3' 9" W  View metadata report for BODC series reference number 135824
1358361978-08-22 08:17 58° 5' 54" N  12° 3' 9" W  View metadata report for BODC series reference number 135836
1358481978-08-22 12:10 59° 0' 6" N  12° 3' 9" W  View metadata report for BODC series reference number 135848
1358611978-08-22 12:12 59° 0' 6" N  12° 3' 9" W  View metadata report for BODC series reference number 135861
1351171978-08-22 02:04 58° 5' 49" N  12° 2' 57" W  View metadata report for BODC series reference number 135117
1351291978-08-22 02:06 58° 5' 49" N  12° 2' 57" W  View metadata report for BODC series reference number 135129
1351301978-08-22 06:11 58° 5' 54" N  12° 3' 9" W  View metadata report for BODC series reference number 135130
1351421978-08-22 06:13 58° 5' 54" N  12° 3' 9" W  View metadata report for BODC series reference number 135142
1351541978-08-22 06:15 58° 5' 54" N  12° 3' 9" W  View metadata report for BODC series reference number 135154
1351661978-08-22 06:17 58° 5' 54" N  12° 3' 9" W  View metadata report for BODC series reference number 135166
1351781978-08-22 06:19 58° 5' 54" N  12° 3' 9" W  View metadata report for BODC series reference number 135178
1351911978-08-22 06:21 58° 5' 54" N  12° 3' 9" W  View metadata report for BODC series reference number 135191
1352091978-08-22 06:23 58° 5' 54" N  12° 3' 9" W  View metadata report for BODC series reference number 135209
1352101978-08-22 06:25 58° 5' 54" N  12° 3' 9" W  View metadata report for BODC series reference number 135210
1352221978-08-22 06:27 58° 5' 54" N  12° 3' 9" W  View metadata report for BODC series reference number 135222
1352341978-08-22 06:29 58° 5' 54" N  12° 3' 9" W  View metadata report for BODC series reference number 135234
1352461978-08-22 06:31 58° 5' 54" N  12° 3' 9" W  View metadata report for BODC series reference number 135246
1352581978-08-22 06:33 58° 5' 54" N  12° 3' 9" W  View metadata report for BODC series reference number 135258
1352711978-08-22 06:35 58° 5' 54" N  12° 3' 9" W  View metadata report for BODC series reference number 135271
1352831978-08-22 06:37 58° 5' 54" N  12° 3' 9" W  View metadata report for BODC series reference number 135283
1352951978-08-22 06:39 58° 5' 54" N  12° 3' 9" W  View metadata report for BODC series reference number 135295
1353021978-08-22 06:41 58° 5' 54" N  12° 3' 9" W  View metadata report for BODC series reference number 135302
1353141978-08-22 06:43 58° 5' 54" N  12° 3' 9" W  View metadata report for BODC series reference number 135314
1353261978-08-22 06:45 58° 5' 54" N  12° 3' 9" W  View metadata report for BODC series reference number 135326
1353381978-08-22 06:47 58° 5' 54" N  12° 3' 9" W  View metadata report for BODC series reference number 135338
1353511978-08-22 06:49 58° 5' 54" N  12° 3' 9" W  View metadata report for BODC series reference number 135351
1353631978-08-22 06:51 58° 5' 54" N  12° 3' 9" W  View metadata report for BODC series reference number 135363
1353751978-08-22 06:53 58° 5' 54" N  12° 3' 9" W  View metadata report for BODC series reference number 135375
1353871978-08-22 06:55 58° 5' 54" N  12° 3' 9" W  View metadata report for BODC series reference number 135387
1353991978-08-22 06:57 58° 5' 54" N  12° 3' 9" W  View metadata report for BODC series reference number 135399
1354061978-08-22 06:59 58° 5' 54" N  12° 3' 9" W  View metadata report for BODC series reference number 135406
1427531978-08-24 16:00 58° 5' 44" N  12° 3' 1" W  View metadata report for BODC series reference number 142753
1427651978-08-24 16:02 58° 5' 44" N  12° 3' 1" W  View metadata report for BODC series reference number 142765
1427771978-08-24 16:04 58° 5' 44" N  12° 3' 1" W  View metadata report for BODC series reference number 142777
1427891978-08-24 16:06 58° 5' 44" N  12° 3' 1" W  View metadata report for BODC series reference number 142789
1427901978-08-24 16:08 58° 5' 44" N  12° 3' 1" W  View metadata report for BODC series reference number 142790
1428081978-08-24 16:10 58° 5' 44" N  12° 3' 1" W  View metadata report for BODC series reference number 142808
1428211978-08-24 16:12 58° 5' 44" N  12° 3' 1" W  View metadata report for BODC series reference number 142821
1428331978-08-24 16:14 58° 5' 44" N  12° 3' 1" W  View metadata report for BODC series reference number 142833
1428451978-08-24 16:16 58° 5' 44" N  12° 3' 1" W  View metadata report for BODC series reference number 142845
1428571978-08-24 16:18 58° 5' 44" N  12° 3' 1" W  View metadata report for BODC series reference number 142857
1428691978-08-24 16:20 58° 5' 44" N  12° 3' 1" W  View metadata report for BODC series reference number 142869
1428701978-08-24 16:22 58° 5' 44" N  12° 3' 1" W  View metadata report for BODC series reference number 142870
1428821978-08-24 16:24 58° 5' 44" N  12° 3' 1" W  View metadata report for BODC series reference number 142882
1428941978-08-24 16:26 58° 5' 44" N  12° 3' 1" W  View metadata report for BODC series reference number 142894
1429011978-08-24 16:28 58° 5' 44" N  12° 3' 1" W  View metadata report for BODC series reference number 142901
1429131978-08-24 16:30 58° 5' 44" N  12° 3' 1" W  View metadata report for BODC series reference number 142913
1429251978-08-24 16:32 58° 5' 44" N  12° 3' 1" W  View metadata report for BODC series reference number 142925
1429371978-08-24 16:34 58° 5' 44" N  12° 3' 1" W  View metadata report for BODC series reference number 142937
1429491978-08-24 16:36 58° 5' 44" N  12° 3' 1" W  View metadata report for BODC series reference number 142949
1429501978-08-24 16:38 58° 5' 44" N  12° 3' 1" W  View metadata report for BODC series reference number 142950
1429621978-08-24 16:40 58° 5' 44" N  12° 3' 1" W  View metadata report for BODC series reference number 142962
1422311978-08-24 09:52 58° 5' 49" N  12° 2' 48" W  View metadata report for BODC series reference number 142231
1422431978-08-24 09:54 58° 5' 49" N  12° 2' 48" W  View metadata report for BODC series reference number 142243
1422551978-08-24 09:56 58° 5' 49" N  12° 2' 48" W  View metadata report for BODC series reference number 142255
1422671978-08-24 09:58 58° 5' 49" N  12° 2' 48" W  View metadata report for BODC series reference number 142267
1422791978-08-24 10:00 58° 5' 49" N  12° 2' 48" W  View metadata report for BODC series reference number 142279
1422801978-08-24 10:02 58° 5' 49" N  12° 2' 48" W  View metadata report for BODC series reference number 142280
1422921978-08-24 10:04 58° 5' 49" N  12° 2' 48" W  View metadata report for BODC series reference number 142292
1423111978-08-24 10:06 58° 5' 49" N  12° 2' 48" W  View metadata report for BODC series reference number 142311
1423231978-08-24 10:08 58° 5' 49" N  12° 2' 48" W  View metadata report for BODC series reference number 142323
1423351978-08-24 10:10 58° 5' 49" N  12° 2' 48" W  View metadata report for BODC series reference number 142335
1423471978-08-24 10:12 58° 5' 49" N  12° 2' 48" W  View metadata report for BODC series reference number 142347
1423591978-08-24 10:42 58° 5' 49" N  12° 2' 48" W  View metadata report for BODC series reference number 142359
1423601978-08-24 10:44 58° 5' 49" N  12° 2' 48" W  View metadata report for BODC series reference number 142360
1423721978-08-24 10:46 58° 5' 49" N  12° 2' 48" W  View metadata report for BODC series reference number 142372
1423841978-08-24 10:48 58° 5' 49" N  12° 2' 48" W  View metadata report for BODC series reference number 142384
1423961978-08-24 10:50 58° 5' 49" N  12° 2' 48" W  View metadata report for BODC series reference number 142396
1424031978-08-24 10:52 58° 5' 49" N  12° 2' 48" W  View metadata report for BODC series reference number 142403
1424151978-08-24 10:54 58° 5' 49" N  12° 2' 48" W  View metadata report for BODC series reference number 142415
1424271978-08-24 10:56 58° 5' 49" N  12° 2' 48" W  View metadata report for BODC series reference number 142427
1424391978-08-24 10:58 58° 5' 49" N  12° 2' 48" W  View metadata report for BODC series reference number 142439
1424401978-08-24 11:00 58° 5' 49" N  12° 2' 48" W  View metadata report for BODC series reference number 142440
1424521978-08-24 11:02 58° 5' 49" N  12° 2' 48" W  View metadata report for BODC series reference number 142452
1424641978-08-24 11:04 58° 5' 49" N  12° 2' 48" W  View metadata report for BODC series reference number 142464
1424761978-08-24 11:06 58° 5' 49" N  12° 2' 48" W  View metadata report for BODC series reference number 142476
1424881978-08-24 11:08 58° 5' 49" N  12° 2' 48" W  View metadata report for BODC series reference number 142488
1425071978-08-24 11:10 58° 5' 49" N  12° 2' 48" W  View metadata report for BODC series reference number 142507
1425191978-08-24 11:12 58° 5' 49" N  12° 2' 48" W  View metadata report for BODC series reference number 142519
1425201978-08-24 15:20 58° 5' 44" N  12° 3' 1" W  View metadata report for BODC series reference number 142520
1425321978-08-24 15:22 58° 5' 44" N  12° 3' 1" W  View metadata report for BODC series reference number 142532
1425441978-08-24 15:24 58° 5' 44" N  12° 3' 1" W  View metadata report for BODC series reference number 142544
1425561978-08-24 15:26 58° 5' 44" N  12° 3' 1" W  View metadata report for BODC series reference number 142556
1425681978-08-24 15:28 58° 5' 44" N  12° 3' 1" W  View metadata report for BODC series reference number 142568
1425811978-08-24 15:30 58° 5' 44" N  12° 3' 1" W  View metadata report for BODC series reference number 142581
1425931978-08-24 15:32 58° 5' 44" N  12° 3' 1" W  View metadata report for BODC series reference number 142593
1421141978-08-24 09:06 58° 5' 49" N  12° 2' 48" W  View metadata report for BODC series reference number 142114
1421261978-08-24 09:08 58° 5' 49" N  12° 2' 48" W  View metadata report for BODC series reference number 142126
1354181978-08-22 07:01 58° 5' 54" N  12° 3' 9" W  View metadata report for BODC series reference number 135418
1354311978-08-22 07:03 58° 5' 54" N  12° 3' 9" W  View metadata report for BODC series reference number 135431
1354431978-08-22 07:05 58° 5' 54" N  12° 3' 9" W  View metadata report for BODC series reference number 135443
1354551978-08-22 07:07 58° 5' 54" N  12° 3' 9" W  View metadata report for BODC series reference number 135455
1354671978-08-22 07:09 58° 5' 54" N  12° 3' 9" W  View metadata report for BODC series reference number 135467
1354791978-08-22 07:11 58° 5' 54" N  12° 3' 9" W  View metadata report for BODC series reference number 135479
1354801978-08-22 07:13 58° 5' 54" N  12° 3' 9" W  View metadata report for BODC series reference number 135480
1347651978-08-22 00:56 58° 5' 49" N  12° 2' 57" W  View metadata report for BODC series reference number 134765
1347771978-08-22 00:58 58° 5' 49" N  12° 2' 57" W  View metadata report for BODC series reference number 134777
1347891978-08-22 01:00 58° 5' 49" N  12° 2' 57" W  View metadata report for BODC series reference number 134789
1347901978-08-22 01:02 58° 5' 49" N  12° 2' 57" W  View metadata report for BODC series reference number 134790
1348081978-08-22 01:04 58° 5' 49" N  12° 2' 57" W  View metadata report for BODC series reference number 134808
1348211978-08-22 01:06 58° 5' 49" N  12° 2' 57" W  View metadata report for BODC series reference number 134821
1348331978-08-22 01:08 58° 5' 49" N  12° 2' 57" W  View metadata report for BODC series reference number 134833
1348451978-08-22 01:10 58° 5' 49" N  12° 2' 57" W  View metadata report for BODC series reference number 134845
1348571978-08-22 01:12 58° 5' 49" N  12° 2' 57" W  View metadata report for BODC series reference number 134857
1348691978-08-22 01:14 58° 5' 49" N  12° 2' 57" W  View metadata report for BODC series reference number 134869
1348701978-08-22 01:16 58° 5' 49" N  12° 2' 57" W  View metadata report for BODC series reference number 134870
1348821978-08-22 01:18 58° 5' 49" N  12° 2' 57" W  View metadata report for BODC series reference number 134882
1348941978-08-22 01:20 58° 5' 49" N  12° 2' 57" W  View metadata report for BODC series reference number 134894
1349011978-08-22 01:22 58° 5' 49" N  12° 2' 57" W  View metadata report for BODC series reference number 134901
1349131978-08-22 01:24 58° 5' 49" N  12° 2' 57" W  View metadata report for BODC series reference number 134913
1349251978-08-22 01:26 58° 5' 49" N  12° 2' 57" W  View metadata report for BODC series reference number 134925
1349371978-08-22 01:28 58° 5' 49" N  12° 2' 57" W  View metadata report for BODC series reference number 134937
1349491978-08-22 01:30 58° 5' 49" N  12° 2' 57" W  View metadata report for BODC series reference number 134949
1349501978-08-22 01:32 58° 5' 49" N  12° 2' 57" W  View metadata report for BODC series reference number 134950
1349621978-08-22 01:34 58° 5' 49" N  12° 2' 57" W  View metadata report for BODC series reference number 134962
1349741978-08-22 01:36 58° 5' 49" N  12° 2' 57" W  View metadata report for BODC series reference number 134974
1349861978-08-22 01:38 58° 5' 49" N  12° 2' 57" W  View metadata report for BODC series reference number 134986
1349981978-08-22 01:40 58° 5' 49" N  12° 2' 57" W  View metadata report for BODC series reference number 134998
1350011978-08-22 01:42 58° 5' 49" N  12° 2' 57" W  View metadata report for BODC series reference number 135001
1350131978-08-22 01:44 58° 5' 49" N  12° 2' 57" W  View metadata report for BODC series reference number 135013
1350251978-08-22 01:46 58° 5' 49" N  12° 2' 57" W  View metadata report for BODC series reference number 135025
1350371978-08-22 01:48 58° 5' 49" N  12° 2' 57" W  View metadata report for BODC series reference number 135037
1350491978-08-22 01:50 58° 5' 49" N  12° 2' 57" W  View metadata report for BODC series reference number 135049
1350501978-08-22 01:52 58° 5' 49" N  12° 2' 57" W  View metadata report for BODC series reference number 135050
1350621978-08-22 01:54 58° 5' 49" N  12° 2' 57" W  View metadata report for BODC series reference number 135062
1350741978-08-22 01:56 58° 5' 49" N  12° 2' 57" W  View metadata report for BODC series reference number 135074
1350861978-08-22 01:58 58° 5' 49" N  12° 2' 57" W  View metadata report for BODC series reference number 135086
1350981978-08-22 02:00 58° 5' 49" N  12° 2' 57" W  View metadata report for BODC series reference number 135098
1351051978-08-22 02:02 58° 5' 49" N  12° 2' 57" W  View metadata report for BODC series reference number 135105
1343841978-08-21 20:12 59° 0' 6" N  12° 2' 48" W  View metadata report for BODC series reference number 134384
1343961978-08-21 20:12 59° 0' 6" N  12° 2' 48" W  View metadata report for BODC series reference number 134396
1344031978-08-21 20:14 59° 0' 6" N  12° 2' 48" W  View metadata report for BODC series reference number 134403
1344151978-08-21 20:16 59° 0' 6" N  12° 2' 48" W  View metadata report for BODC series reference number 134415
1344271978-08-21 20:18 59° 0' 6" N  12° 2' 48" W  View metadata report for BODC series reference number 134427
1344391978-08-21 20:20 59° 0' 6" N  12° 2' 48" W  View metadata report for BODC series reference number 134439
1344401978-08-21 20:22 59° 0' 6" N  12° 2' 48" W  View metadata report for BODC series reference number 134440
1344521978-08-21 20:24 59° 0' 6" N  12° 2' 48" W  View metadata report for BODC series reference number 134452
1344641978-08-21 20:26 59° 0' 6" N  12° 2' 48" W  View metadata report for BODC series reference number 134464
1344761978-08-21 20:28 59° 0' 6" N  12° 2' 48" W  View metadata report for BODC series reference number 134476
1344881978-08-21 20:30 59° 0' 6" N  12° 2' 48" W  View metadata report for BODC series reference number 134488
1345071978-08-21 20:32 59° 0' 6" N  12° 2' 48" W  View metadata report for BODC series reference number 134507
1345191978-08-21 20:34 59° 0' 6" N  12° 2' 48" W  View metadata report for BODC series reference number 134519
1345201978-08-21 20:36 59° 0' 6" N  12° 2' 48" W  View metadata report for BODC series reference number 134520
1345321978-08-21 20:38 59° 0' 6" N  12° 2' 48" W  View metadata report for BODC series reference number 134532
1345441978-08-21 20:40 59° 0' 6" N  12° 2' 48" W  View metadata report for BODC series reference number 134544
1421381978-08-24 09:10 58° 5' 49" N  12° 2' 48" W  View metadata report for BODC series reference number 142138
1421511978-08-24 09:12 58° 5' 49" N  12° 2' 48" W  View metadata report for BODC series reference number 142151
1421631978-08-24 09:14 58° 5' 49" N  12° 2' 48" W  View metadata report for BODC series reference number 142163
1421751978-08-24 09:42 58° 5' 49" N  12° 2' 48" W  View metadata report for BODC series reference number 142175
1421871978-08-24 09:44 58° 5' 49" N  12° 2' 48" W  View metadata report for BODC series reference number 142187
1421991978-08-24 09:46 58° 5' 49" N  12° 2' 48" W  View metadata report for BODC series reference number 142199
1422061978-08-24 09:48 58° 5' 49" N  12° 2' 48" W  View metadata report for BODC series reference number 142206
1422181978-08-24 09:50 58° 5' 49" N  12° 2' 48" W  View metadata report for BODC series reference number 142218
1160031978-07-28 16:19 58° 5' 56" N  12° 2' 53" W  View metadata report for BODC series reference number 116003
1160151978-07-28 16:23 58° 5' 56" N  12° 2' 53" W  View metadata report for BODC series reference number 116015
1160271978-07-28 16:27 58° 5' 56" N  12° 2' 53" W  View metadata report for BODC series reference number 116027
1160391978-07-28 16:31 58° 5' 56" N  12° 2' 53" W  View metadata report for BODC series reference number 116039
1160401978-07-28 16:35 58° 5' 56" N  12° 2' 53" W  View metadata report for BODC series reference number 116040
1160521978-07-28 16:39 58° 5' 56" N  12° 2' 53" W  View metadata report for BODC series reference number 116052
1160641978-07-28 16:43 58° 5' 56" N  12° 2' 53" W  View metadata report for BODC series reference number 116064
1160761978-07-28 16:47 58° 5' 56" N  12° 2' 53" W  View metadata report for BODC series reference number 116076
1160881978-07-28 16:51 58° 5' 56" N  12° 2' 53" W  View metadata report for BODC series reference number 116088
1161071978-07-28 16:55 58° 5' 56" N  12° 2' 53" W  View metadata report for BODC series reference number 116107
1161191978-07-28 16:59 58° 5' 56" N  12° 2' 53" W  View metadata report for BODC series reference number 116119
1161201978-07-28 17:03 58° 5' 56" N  12° 2' 53" W  View metadata report for BODC series reference number 116120
1161321978-07-28 17:07 58° 5' 56" N  12° 2' 53" W  View metadata report for BODC series reference number 116132
1161441978-07-28 17:11 58° 5' 56" N  12° 2' 53" W  View metadata report for BODC series reference number 116144
1161561978-07-28 17:15 58° 5' 56" N  12° 2' 53" W  View metadata report for BODC series reference number 116156
1161681978-07-28 17:19 58° 5' 56" N  12° 2' 53" W  View metadata report for BODC series reference number 116168
1161811978-07-28 17:23 58° 5' 56" N  12° 2' 53" W  View metadata report for BODC series reference number 116181
1161931978-07-28 21:02 58° 5' 52" N  12° 2' 48" W  View metadata report for BODC series reference number 116193
1162001978-07-29 00:02 58° 5' 57" N  12° 2' 40" W  View metadata report for BODC series reference number 116200
1162121978-07-29 02:59 58° 5' 56" N  12° 2' 48" W  View metadata report for BODC series reference number 116212
1162241978-07-29 06:17 59° 0' 2" N  12° 2' 56" W  View metadata report for BODC series reference number 116224
1162361978-07-29 07:44 58° 5' 52" N  12° 2' 55" W  View metadata report for BODC series reference number 116236
1162481978-07-29 09:00 58° 5' 52" N  12° 2' 55" W  View metadata report for BODC series reference number 116248
1162611978-07-29 09:23 58° 5' 52" N  12° 2' 55" W  View metadata report for BODC series reference number 116261
1162731978-07-29 09:27 58° 5' 52" N  12° 2' 55" W  View metadata report for BODC series reference number 116273
1162851978-07-29 09:31 59° 0' 0" N  12° 3' 1" W  View metadata report for BODC series reference number 116285
1162971978-07-29 09:35 59° 0' 0" N  12° 3' 1" W  View metadata report for BODC series reference number 116297
1163041978-07-29 09:39 59° 0' 0" N  12° 3' 1" W  View metadata report for BODC series reference number 116304
1163161978-07-29 09:43 59° 0' 0" N  12° 3' 1" W  View metadata report for BODC series reference number 116316
1163281978-07-29 09:47 59° 0' 0" N  12° 3' 1" W  View metadata report for BODC series reference number 116328
1163411978-07-29 09:51 59° 0' 0" N  12° 3' 1" W  View metadata report for BODC series reference number 116341
1163531978-07-29 09:55 59° 0' 0" N  12° 3' 1" W  View metadata report for BODC series reference number 116353
1163651978-07-29 09:59 59° 0' 0" N  12° 3' 1" W  View metadata report for BODC series reference number 116365
1163771978-07-29 10:03 59° 0' 0" N  12° 3' 1" W  View metadata report for BODC series reference number 116377
1163891978-07-29 10:07 59° 0' 0" N  12° 3' 1" W  View metadata report for BODC series reference number 116389
1163901978-07-29 10:11 59° 0' 0" N  12° 3' 1" W  View metadata report for BODC series reference number 116390
1164081978-07-29 10:15 59° 0' 0" N  12° 3' 1" W  View metadata report for BODC series reference number 116408
1153621978-07-27 17:34 58° 5' 57" N  12° 2' 50" W  View metadata report for BODC series reference number 115362
1153741978-07-27 17:38 58° 5' 57" N  12° 2' 50" W  View metadata report for BODC series reference number 115374
1153861978-07-27 17:42 58° 5' 57" N  12° 2' 50" W  View metadata report for BODC series reference number 115386
1153981978-07-27 17:47 58° 5' 57" N  12° 2' 50" W  View metadata report for BODC series reference number 115398
1154051978-07-27 17:50 58° 5' 57" N  12° 2' 50" W  View metadata report for BODC series reference number 115405
1154171978-07-27 17:58 58° 5' 57" N  12° 2' 50" W  View metadata report for BODC series reference number 115417
1154291978-07-27 18:33 58° 5' 57" N  12° 2' 50" W  View metadata report for BODC series reference number 115429
1154301978-07-27 18:35 58° 5' 57" N  12° 2' 50" W  View metadata report for BODC series reference number 115430
1154421978-07-27 18:37 58° 5' 57" N  12° 2' 50" W  View metadata report for BODC series reference number 115442
1154541978-07-27 18:39 58° 5' 57" N  12° 2' 50" W  View metadata report for BODC series reference number 115454
1154661978-07-27 18:41 58° 5' 57" N  12° 2' 50" W  View metadata report for BODC series reference number 115466
1154781978-07-27 18:43 58° 5' 57" N  12° 2' 50" W  View metadata report for BODC series reference number 115478
1345561978-08-21 20:42 59° 0' 6" N  12° 2' 48" W  View metadata report for BODC series reference number 134556
1345681978-08-21 20:44 59° 0' 6" N  12° 2' 48" W  View metadata report for BODC series reference number 134568
1345811978-08-21 20:46 59° 0' 6" N  12° 2' 48" W  View metadata report for BODC series reference number 134581
1345931978-08-21 20:48 59° 0' 6" N  12° 2' 48" W  View metadata report for BODC series reference number 134593
1346001978-08-21 20:50 59° 0' 6" N  12° 2' 48" W  View metadata report for BODC series reference number 134600
1346121978-08-21 20:52 59° 0' 6" N  12° 2' 48" W  View metadata report for BODC series reference number 134612
1346241978-08-22 00:32 58° 5' 49" N  12° 2' 57" W  View metadata report for BODC series reference number 134624
1346361978-08-22 00:34 58° 5' 49" N  12° 2' 57" W  View metadata report for BODC series reference number 134636
1346481978-08-22 00:36 58° 5' 49" N  12° 2' 57" W  View metadata report for BODC series reference number 134648
1346611978-08-22 00:38 58° 5' 49" N  12° 2' 57" W  View metadata report for BODC series reference number 134661
1346731978-08-22 00:40 58° 5' 49" N  12° 2' 57" W  View metadata report for BODC series reference number 134673
1346851978-08-22 00:42 58° 5' 49" N  12° 2' 57" W  View metadata report for BODC series reference number 134685
1346971978-08-22 00:44 58° 5' 49" N  12° 2' 57" W  View metadata report for BODC series reference number 134697
1347041978-08-22 00:46 58° 5' 49" N  12° 2' 57" W  View metadata report for BODC series reference number 134704
1347161978-08-22 00:48 58° 5' 49" N  12° 2' 57" W  View metadata report for BODC series reference number 134716
1347281978-08-22 00:50 58° 5' 49" N  12° 2' 57" W  View metadata report for BODC series reference number 134728
1347411978-08-22 00:52 58° 5' 49" N  12° 2' 57" W  View metadata report for BODC series reference number 134741
1347531978-08-22 00:54 58° 5' 49" N  12° 2' 57" W  View metadata report for BODC series reference number 134753
1340091978-08-21 19:04 59° 0' 6" N  12° 2' 48" W  View metadata report for BODC series reference number 134009
1340101978-08-21 19:06 59° 0' 6" N  12° 2' 48" W  View metadata report for BODC series reference number 134010
1340221978-08-21 19:08 59° 0' 6" N  12° 2' 48" W  View metadata report for BODC series reference number 134022
1340341978-08-21 19:10 59° 0' 6" N  12° 2' 48" W  View metadata report for BODC series reference number 134034
1340461978-08-21 19:12 59° 0' 6" N  12° 2' 48" W  View metadata report for BODC series reference number 134046
1340581978-08-21 19:14 59° 0' 6" N  12° 2' 48" W  View metadata report for BODC series reference number 134058
1340711978-08-21 19:16 59° 0' 6" N  12° 2' 48" W  View metadata report for BODC series reference number 134071
1340831978-08-21 19:18 59° 0' 6" N  12° 2' 48" W  View metadata report for BODC series reference number 134083
1340951978-08-21 19:20 59° 0' 6" N  12° 2' 48" W  View metadata report for BODC series reference number 134095
1341021978-08-21 19:22 59° 0' 6" N  12° 2' 48" W  View metadata report for BODC series reference number 134102
1341141978-08-21 19:24 59° 0' 6" N  12° 2' 48" W  View metadata report for BODC series reference number 134114
1341261978-08-21 19:26 59° 0' 6" N  12° 2' 48" W  View metadata report for BODC series reference number 134126
1341381978-08-21 19:28 59° 0' 6" N  12° 2' 48" W  View metadata report for BODC series reference number 134138
1341511978-08-21 19:30 59° 0' 6" N  12° 2' 48" W  View metadata report for BODC series reference number 134151
1341631978-08-21 19:32 59° 0' 6" N  12° 2' 48" W  View metadata report for BODC series reference number 134163
1341751978-08-21 19:34 59° 0' 6" N  12° 2' 48" W  View metadata report for BODC series reference number 134175
1341871978-08-21 19:36 59° 0' 6" N  12° 2' 48" W  View metadata report for BODC series reference number 134187
1341991978-08-21 19:38 59° 0' 6" N  12° 2' 48" W  View metadata report for BODC series reference number 134199
1342061978-08-21 19:40 59° 0' 6" N  12° 2' 48" W  View metadata report for BODC series reference number 134206
1342181978-08-21 19:42 59° 0' 6" N  12° 2' 48" W  View metadata report for BODC series reference number 134218
1342311978-08-21 19:44 59° 0' 6" N  12° 2' 48" W  View metadata report for BODC series reference number 134231
1342431978-08-21 19:46 59° 0' 6" N  12° 2' 48" W  View metadata report for BODC series reference number 134243
1342551978-08-21 19:48 59° 0' 6" N  12° 2' 48" W  View metadata report for BODC series reference number 134255
1342671978-08-21 19:50 59° 0' 6" N  12° 2' 48" W  View metadata report for BODC series reference number 134267
1342791978-08-21 19:52 59° 0' 6" N  12° 2' 48" W  View metadata report for BODC series reference number 134279
1342801978-08-21 19:54 59° 0' 6" N  12° 2' 48" W  View metadata report for BODC series reference number 134280
1342921978-08-21 19:56 59° 0' 6" N  12° 2' 48" W  View metadata report for BODC series reference number 134292
1343111978-08-21 19:58 59° 0' 6" N  12° 2' 48" W  View metadata report for BODC series reference number 134311
1343231978-08-21 20:00 59° 0' 6" N  12° 2' 48" W  View metadata report for BODC series reference number 134323
1343351978-08-21 20:02 59° 0' 6" N  12° 2' 48" W  View metadata report for BODC series reference number 134335
1461641978-08-25 15:44 58° 5' 44" N  12° 2' 46" W  View metadata report for BODC series reference number 146164
1461761978-08-25 15:46 58° 5' 44" N  12° 2' 46" W  View metadata report for BODC series reference number 146176
1461881978-08-25 15:48 58° 5' 44" N  12° 2' 46" W  View metadata report for BODC series reference number 146188
1462071978-08-25 15:50 58° 5' 44" N  12° 2' 46" W  View metadata report for BODC series reference number 146207
1462191978-08-25 15:52 58° 5' 44" N  12° 2' 46" W  View metadata report for BODC series reference number 146219
1462201978-08-25 15:54 58° 5' 44" N  12° 2' 46" W  View metadata report for BODC series reference number 146220
1462321978-08-25 15:56 58° 5' 44" N  12° 2' 46" W  View metadata report for BODC series reference number 146232
1462441978-08-25 15:58 58° 5' 44" N  12° 2' 46" W  View metadata report for BODC series reference number 146244
1462561978-08-25 16:00 58° 5' 44" N  12° 2' 46" W  View metadata report for BODC series reference number 146256
1154911978-07-27 18:45 58° 5' 57" N  12° 2' 50" W  View metadata report for BODC series reference number 115491
1155091978-07-27 18:47 58° 5' 57" N  12° 2' 50" W  View metadata report for BODC series reference number 115509
1155101978-07-27 18:49 58° 5' 57" N  12° 2' 50" W  View metadata report for BODC series reference number 115510
1155221978-07-27 18:51 58° 5' 57" N  12° 2' 50" W  View metadata report for BODC series reference number 115522
1155341978-07-27 18:53 58° 5' 57" N  12° 2' 50" W  View metadata report for BODC series reference number 115534
1155461978-07-27 18:55 58° 5' 57" N  12° 2' 50" W  View metadata report for BODC series reference number 115546
1155581978-07-27 18:57 58° 5' 57" N  12° 2' 50" W  View metadata report for BODC series reference number 115558
1155711978-07-27 18:59 58° 5' 57" N  12° 2' 50" W  View metadata report for BODC series reference number 115571
1155831978-07-27 19:01 58° 5' 57" N  12° 2' 50" W  View metadata report for BODC series reference number 115583
1155951978-07-27 19:03 58° 5' 57" N  12° 2' 50" W  View metadata report for BODC series reference number 115595
1156021978-07-27 19:05 58° 5' 57" N  12° 2' 50" W  View metadata report for BODC series reference number 115602
1156141978-07-27 19:07 58° 5' 57" N  12° 2' 50" W  View metadata report for BODC series reference number 115614
1156261978-07-27 19:09 58° 5' 57" N  12° 2' 50" W  View metadata report for BODC series reference number 115626
1156381978-07-27 19:11 58° 5' 57" N  12° 2' 50" W  View metadata report for BODC series reference number 115638
1156511978-07-27 19:13 58° 5' 57" N  12° 2' 50" W  View metadata report for BODC series reference number 115651
1156631978-07-27 19:15 58° 5' 57" N  12° 2' 50" W  View metadata report for BODC series reference number 115663
1156751978-07-27 19:17 58° 5' 57" N  12° 2' 50" W  View metadata report for BODC series reference number 115675
1156871978-07-27 19:19 58° 5' 57" N  12° 2' 50" W  View metadata report for BODC series reference number 115687
1156991978-07-27 19:21 58° 5' 57" N  12° 2' 50" W  View metadata report for BODC series reference number 115699
1157061978-07-27 19:23 58° 5' 57" N  12° 2' 50" W  View metadata report for BODC series reference number 115706
1157181978-07-27 19:25 58° 5' 57" N  12° 2' 50" W  View metadata report for BODC series reference number 115718
1157311978-07-27 19:27 58° 5' 57" N  12° 2' 50" W  View metadata report for BODC series reference number 115731
1157431978-07-27 19:29 58° 5' 57" N  12° 2' 50" W  View metadata report for BODC series reference number 115743
1157551978-07-27 19:31 58° 5' 57" N  12° 2' 50" W  View metadata report for BODC series reference number 115755
1157671978-07-27 19:33 58° 5' 57" N  12° 2' 50" W  View metadata report for BODC series reference number 115767
1157791978-07-27 19:35 58° 5' 57" N  12° 2' 50" W  View metadata report for BODC series reference number 115779
1157801978-07-27 21:03 58° 5' 58" N  12° 2' 44" W  View metadata report for BODC series reference number 115780
1157921978-07-28 10:29 58° 5' 54" N  12° 2' 47" W  View metadata report for BODC series reference number 115792
1158111978-07-28 12:04 58° 5' 53" N  12° 2' 43" W  View metadata report for BODC series reference number 115811
1158231978-07-28 15:01 58° 5' 56" N  12° 2' 53" W  View metadata report for BODC series reference number 115823
1158351978-07-28 15:01 58° 5' 56" N  12° 2' 53" W  View metadata report for BODC series reference number 115835
1158471978-07-28 15:19 58° 5' 56" N  12° 2' 53" W  View metadata report for BODC series reference number 115847
1158591978-07-28 15:23 58° 5' 56" N  12° 2' 53" W  View metadata report for BODC series reference number 115859
1158601978-07-28 15:27 58° 5' 56" N  12° 2' 53" W  View metadata report for BODC series reference number 115860
1158721978-07-28 15:31 58° 5' 56" N  12° 2' 53" W  View metadata report for BODC series reference number 115872
1158841978-07-28 15:35 58° 5' 56" N  12° 2' 53" W  View metadata report for BODC series reference number 115884
1158961978-07-28 15:39 58° 5' 56" N  12° 2' 53" W  View metadata report for BODC series reference number 115896
1159031978-07-28 15:43 58° 5' 56" N  12° 2' 53" W  View metadata report for BODC series reference number 115903
1159151978-07-28 15:47 58° 5' 56" N  12° 2' 53" W  View metadata report for BODC series reference number 115915
1159271978-07-28 15:51 58° 5' 56" N  12° 2' 53" W  View metadata report for BODC series reference number 115927
1159391978-07-28 15:55 58° 5' 56" N  12° 2' 53" W  View metadata report for BODC series reference number 115939
1159401978-07-28 15:59 58° 5' 56" N  12° 2' 53" W  View metadata report for BODC series reference number 115940
1159521978-07-28 16:03 58° 5' 56" N  12° 2' 53" W  View metadata report for BODC series reference number 115952
1159641978-07-28 16:07 58° 5' 56" N  12° 2' 53" W  View metadata report for BODC series reference number 115964
1159761978-07-28 16:11 58° 5' 56" N  12° 2' 53" W  View metadata report for BODC series reference number 115976
1159881978-07-28 16:15 58° 5' 56" N  12° 2' 53" W  View metadata report for BODC series reference number 115988
1147271978-07-27 09:26 59° 0' 0" N  12° 2' 49" W  View metadata report for BODC series reference number 114727
1147391978-07-27 09:30 59° 0' 0" N  12° 2' 49" W  View metadata report for BODC series reference number 114739
1147401978-07-27 09:34 59° 0' 0" N  12° 2' 49" W  View metadata report for BODC series reference number 114740
1147521978-07-27 09:38 59° 0' 0" N  12° 2' 49" W  View metadata report for BODC series reference number 114752
1147641978-07-27 09:42 59° 0' 0" N  12° 2' 49" W  View metadata report for BODC series reference number 114764
1147761978-07-27 09:46 59° 0' 0" N  12° 2' 49" W  View metadata report for BODC series reference number 114776
1147881978-07-27 09:50 59° 0' 0" N  12° 2' 49" W  View metadata report for BODC series reference number 114788
1148071978-07-27 09:54 59° 0' 0" N  12° 2' 49" W  View metadata report for BODC series reference number 114807
1148191978-07-27 09:58 59° 0' 0" N  12° 2' 49" W  View metadata report for BODC series reference number 114819
1148201978-07-27 10:02 59° 0' 0" N  12° 2' 49" W  View metadata report for BODC series reference number 114820
1148321978-07-27 10:06 59° 0' 0" N  12° 2' 49" W  View metadata report for BODC series reference number 114832
1462681978-08-25 16:02 58° 5' 44" N  12° 2' 46" W  View metadata report for BODC series reference number 146268
1462811978-08-25 17:30 58° 5' 51" N  12° 2' 55" W  View metadata report for BODC series reference number 146281
1462931978-08-25 17:32 58° 5' 51" N  12° 2' 55" W  View metadata report for BODC series reference number 146293
1463001978-08-25 17:34 58° 5' 51" N  12° 2' 55" W  View metadata report for BODC series reference number 146300
1463121978-08-25 17:36 58° 5' 51" N  12° 2' 55" W  View metadata report for BODC series reference number 146312
1463241978-08-25 17:38 58° 5' 51" N  12° 2' 55" W  View metadata report for BODC series reference number 146324
1455781978-08-25 10:02 58° 5' 52" N  12° 2' 39" W  View metadata report for BODC series reference number 145578
1455911978-08-25 10:04 58° 5' 52" N  12° 2' 39" W  View metadata report for BODC series reference number 145591
1456091978-08-25 10:06 58° 5' 52" N  12° 2' 39" W  View metadata report for BODC series reference number 145609
1456101978-08-25 10:08 58° 5' 52" N  12° 2' 39" W  View metadata report for BODC series reference number 145610
1456221978-08-25 10:10 58° 5' 52" N  12° 2' 39" W  View metadata report for BODC series reference number 145622
1456341978-08-25 10:12 58° 5' 52" N  12° 2' 39" W  View metadata report for BODC series reference number 145634
1456461978-08-25 10:14 58° 5' 52" N  12° 2' 39" W  View metadata report for BODC series reference number 145646
1456581978-08-25 10:16 58° 5' 52" N  12° 2' 39" W  View metadata report for BODC series reference number 145658
1456711978-08-25 10:18 58° 5' 52" N  12° 2' 39" W  View metadata report for BODC series reference number 145671
1456831978-08-25 10:20 58° 5' 52" N  12° 2' 39" W  View metadata report for BODC series reference number 145683
1456951978-08-25 10:22 58° 5' 52" N  12° 2' 39" W  View metadata report for BODC series reference number 145695
1457021978-08-25 10:24 58° 5' 52" N  12° 2' 39" W  View metadata report for BODC series reference number 145702
1457141978-08-25 10:26 58° 5' 52" N  12° 2' 39" W  View metadata report for BODC series reference number 145714
1457261978-08-25 10:28 58° 5' 52" N  12° 2' 39" W  View metadata report for BODC series reference number 145726
1457381978-08-25 10:30 58° 5' 52" N  12° 2' 39" W  View metadata report for BODC series reference number 145738
1457511978-08-25 10:58 58° 5' 49" N  12° 2' 44" W  View metadata report for BODC series reference number 145751
1457631978-08-25 11:00 58° 5' 49" N  12° 2' 44" W  View metadata report for BODC series reference number 145763
1457751978-08-25 11:02 58° 5' 49" N  12° 2' 44" W  View metadata report for BODC series reference number 145775
1457871978-08-25 11:04 58° 5' 49" N  12° 2' 44" W  View metadata report for BODC series reference number 145787
1457991978-08-25 11:06 58° 5' 49" N  12° 2' 44" W  View metadata report for BODC series reference number 145799
1458061978-08-25 11:08 58° 5' 49" N  12° 2' 44" W  View metadata report for BODC series reference number 145806
1458181978-08-25 11:10 58° 5' 49" N  12° 2' 44" W  View metadata report for BODC series reference number 145818
1458311978-08-25 11:12 58° 5' 49" N  12° 2' 44" W  View metadata report for BODC series reference number 145831
1458431978-08-25 11:14 58° 5' 49" N  12° 2' 44" W  View metadata report for BODC series reference number 145843
1458551978-08-25 11:16 58° 5' 49" N  12° 2' 44" W  View metadata report for BODC series reference number 145855
1458671978-08-25 11:18 58° 5' 49" N  12° 2' 44" W  View metadata report for BODC series reference number 145867
1458791978-08-25 11:20 58° 5' 49" N  12° 2' 44" W  View metadata report for BODC series reference number 145879
1458801978-08-25 11:22 58° 5' 49" N  12° 2' 44" W  View metadata report for BODC series reference number 145880
1458921978-08-25 11:24 58° 5' 49" N  12° 2' 44" W  View metadata report for BODC series reference number 145892
1459111978-08-25 11:26 58° 5' 49" N  12° 2' 44" W  View metadata report for BODC series reference number 145911
1459231978-08-25 11:28 58° 5' 49" N  12° 2' 44" W  View metadata report for BODC series reference number 145923
1459351978-08-25 14:31 58° 5' 49" N  12° 2' 49" W  View metadata report for BODC series reference number 145935
1459471978-08-25 14:33 58° 5' 49" N  12° 2' 49" W  View metadata report for BODC series reference number 145947
1459591978-08-25 14:35 58° 5' 49" N  12° 2' 49" W  View metadata report for BODC series reference number 145959
1452161978-08-25 07:26 58° 5' 49" N  12° 3' 2" W  View metadata report for BODC series reference number 145216
1452281978-08-25 08:08 58° 5' 52" N  12° 2' 39" W  View metadata report for BODC series reference number 145228
1452411978-08-25 08:13 58° 5' 52" N  12° 2' 39" W  View metadata report for BODC series reference number 145241
1452531978-08-25 08:18 58° 5' 52" N  12° 2' 39" W  View metadata report for BODC series reference number 145253
1452651978-08-25 08:23 58° 5' 52" N  12° 2' 39" W  View metadata report for BODC series reference number 145265
1452771978-08-25 08:28 58° 5' 52" N  12° 2' 39" W  View metadata report for BODC series reference number 145277
1452891978-08-25 08:33 58° 5' 52" N  12° 2' 39" W  View metadata report for BODC series reference number 145289
1452901978-08-25 08:38 58° 5' 52" N  12° 2' 39" W  View metadata report for BODC series reference number 145290
1453081978-08-25 09:00 58° 5' 52" N  12° 2' 39" W  View metadata report for BODC series reference number 145308
1453211978-08-25 09:01 58° 5' 52" N  12° 2' 39" W  View metadata report for BODC series reference number 145321
1453331978-08-25 09:02 58° 5' 52" N  12° 2' 39" W  View metadata report for BODC series reference number 145333
1453451978-08-25 09:03 58° 5' 52" N  12° 2' 39" W  View metadata report for BODC series reference number 145345
1453571978-08-25 09:05 58° 5' 52" N  12° 2' 39" W  View metadata report for BODC series reference number 145357
1453691978-08-25 09:06 58° 5' 52" N  12° 2' 39" W  View metadata report for BODC series reference number 145369
1453701978-08-25 09:07 58° 5' 52" N  12° 2' 39" W  View metadata report for BODC series reference number 145370
1453821978-08-25 09:08 58° 5' 52" N  12° 2' 39" W  View metadata report for BODC series reference number 145382
1453941978-08-25 09:10 58° 5' 52" N  12° 2' 39" W  View metadata report for BODC series reference number 145394
1148441978-07-27 10:10 59° 0' 0" N  12° 2' 49" W  View metadata report for BODC series reference number 114844
1148561978-07-27 10:14 59° 0' 0" N  12° 2' 49" W  View metadata report for BODC series reference number 114856
1148681978-07-27 10:18 59° 0' 0" N  12° 2' 49" W  View metadata report for BODC series reference number 114868
1148811978-07-27 10:22 59° 0' 0" N  12° 2' 49" W  View metadata report for BODC series reference number 114881
1148931978-07-27 10:26 59° 0' 0" N  12° 2' 49" W  View metadata report for BODC series reference number 114893
1149001978-07-27 10:30 59° 0' 0" N  12° 2' 49" W  View metadata report for BODC series reference number 114900
1149121978-07-27 10:34 59° 0' 0" N  12° 2' 49" W  View metadata report for BODC series reference number 114912
1149241978-07-27 10:38 59° 0' 0" N  12° 2' 49" W  View metadata report for BODC series reference number 114924
1149361978-07-27 10:42 59° 0' 0" N  12° 2' 49" W  View metadata report for BODC series reference number 114936
1149481978-07-27 10:46 59° 0' 0" N  12° 2' 49" W  View metadata report for BODC series reference number 114948
1149611978-07-27 10:50 59° 0' 0" N  12° 2' 49" W  View metadata report for BODC series reference number 114961
1149731978-07-27 11:58 58° 5' 57" N  12° 2' 50" W  View metadata report for BODC series reference number 114973
1149851978-07-27 14:55 58° 5' 57" N  12° 2' 50" W  View metadata report for BODC series reference number 114985
1149971978-07-27 15:18 58° 5' 57" N  12° 2' 50" W  View metadata report for BODC series reference number 114997
1150001978-07-27 15:22 58° 5' 57" N  12° 2' 50" W  View metadata report for BODC series reference number 115000
1150121978-07-27 15:26 58° 5' 57" N  12° 2' 50" W  View metadata report for BODC series reference number 115012
1150241978-07-27 15:30 58° 5' 57" N  12° 2' 50" W  View metadata report for BODC series reference number 115024
1150361978-07-27 15:34 58° 5' 57" N  12° 2' 50" W  View metadata report for BODC series reference number 115036
1150481978-07-27 15:38 58° 5' 57" N  12° 2' 50" W  View metadata report for BODC series reference number 115048
1150611978-07-27 15:42 58° 5' 57" N  12° 2' 50" W  View metadata report for BODC series reference number 115061
1150731978-07-27 15:46 58° 5' 57" N  12° 2' 50" W  View metadata report for BODC series reference number 115073
1150851978-07-27 15:50 58° 5' 57" N  12° 2' 50" W  View metadata report for BODC series reference number 115085
1150971978-07-27 15:54 58° 5' 57" N  12° 2' 50" W  View metadata report for BODC series reference number 115097
1151041978-07-27 15:58 58° 5' 57" N  12° 2' 50" W  View metadata report for BODC series reference number 115104
1151161978-07-27 16:02 58° 5' 57" N  12° 2' 50" W  View metadata report for BODC series reference number 115116
1151281978-07-27 16:06 58° 5' 57" N  12° 2' 50" W  View metadata report for BODC series reference number 115128
1151411978-07-27 16:10 58° 5' 57" N  12° 2' 50" W  View metadata report for BODC series reference number 115141
1151531978-07-27 16:14 58° 5' 57" N  12° 2' 50" W  View metadata report for BODC series reference number 115153
1151651978-07-27 16:18 58° 5' 57" N  12° 2' 50" W  View metadata report for BODC series reference number 115165
1151771978-07-27 16:22 58° 5' 57" N  12° 2' 50" W  View metadata report for BODC series reference number 115177
1151891978-07-27 16:26 58° 5' 57" N  12° 2' 50" W  View metadata report for BODC series reference number 115189
1151901978-07-27 16:30 58° 5' 57" N  12° 2' 50" W  View metadata report for BODC series reference number 115190
1152081978-07-27 16:34 58° 5' 57" N  12° 2' 50" W  View metadata report for BODC series reference number 115208
1152211978-07-27 16:38 58° 5' 57" N  12° 2' 50" W  View metadata report for BODC series reference number 115221
1152331978-07-27 16:42 58° 5' 57" N  12° 2' 50" W  View metadata report for BODC series reference number 115233
1152451978-07-27 16:46 58° 5' 57" N  12° 2' 50" W  View metadata report for BODC series reference number 115245
1152571978-07-27 16:50 58° 5' 57" N  12° 2' 50" W  View metadata report for BODC series reference number 115257
1152691978-07-27 16:54 58° 5' 57" N  12° 2' 50" W  View metadata report for BODC series reference number 115269
1152701978-07-27 16:58 58° 5' 57" N  12° 2' 50" W  View metadata report for BODC series reference number 115270
1152821978-07-27 17:02 58° 5' 57" N  12° 2' 50" W  View metadata report for BODC series reference number 115282
1152941978-07-27 17:06 58° 5' 57" N  12° 2' 50" W  View metadata report for BODC series reference number 115294
1153011978-07-27 17:10 58° 5' 57" N  12° 2' 50" W  View metadata report for BODC series reference number 115301
1153131978-07-27 17:14 58° 5' 57" N  12° 2' 50" W  View metadata report for BODC series reference number 115313
1153251978-07-27 17:18 58° 5' 57" N  12° 2' 50" W  View metadata report for BODC series reference number 115325
1153371978-07-27 17:22 58° 5' 57" N  12° 2' 50" W  View metadata report for BODC series reference number 115337
1153491978-07-27 17:26 58° 5' 57" N  12° 2' 50" W  View metadata report for BODC series reference number 115349
1153501978-07-27 17:30 58° 5' 57" N  12° 2' 50" W  View metadata report for BODC series reference number 115350
1168141978-07-29 17:15 58° 5' 53" N  12° 2' 52" W  View metadata report for BODC series reference number 116814
1168261978-07-29 21:04 58° 5' 51" N  12° 2' 50" W  View metadata report for BODC series reference number 116826
1168381978-07-30 00:03 58° 5' 51" N  12° 2' 50" W  View metadata report for BODC series reference number 116838
1168511978-07-30 02:59 58° 5' 51" N  12° 2' 50" W  View metadata report for BODC series reference number 116851
1168631978-07-30 09:02 58° 5' 51" N  12° 2' 50" W  View metadata report for BODC series reference number 116863
1168751978-07-30 09:19 58° 5' 51" N  12° 2' 50" W  View metadata report for BODC series reference number 116875
1168871978-07-30 09:23 58° 5' 51" N  12° 2' 50" W  View metadata report for BODC series reference number 116887
1168991978-07-30 09:27 58° 5' 51" N  12° 2' 50" W  View metadata report for BODC series reference number 116899
1169061978-07-30 09:31 58° 5' 51" N  12° 2' 50" W  View metadata report for BODC series reference number 116906
1169181978-07-30 09:35 58° 5' 51" N  12° 2' 50" W  View metadata report for BODC series reference number 116918
1454011978-08-25 09:11 58° 5' 52" N  12° 2' 39" W  View metadata report for BODC series reference number 145401
1454131978-08-25 09:12 58° 5' 52" N  12° 2' 39" W  View metadata report for BODC series reference number 145413
1454251978-08-25 09:13 58° 5' 52" N  12° 2' 39" W  View metadata report for BODC series reference number 145425
1454371978-08-25 09:15 58° 5' 52" N  12° 2' 39" W  View metadata report for BODC series reference number 145437
1454491978-08-25 09:16 58° 5' 52" N  12° 2' 39" W  View metadata report for BODC series reference number 145449
1454501978-08-25 09:17 58° 5' 52" N  12° 2' 39" W  View metadata report for BODC series reference number 145450
1454621978-08-25 09:18 58° 5' 52" N  12° 2' 39" W  View metadata report for BODC series reference number 145462
1454741978-08-25 09:20 58° 5' 52" N  12° 2' 39" W  View metadata report for BODC series reference number 145474
1454861978-08-25 09:21 58° 5' 52" N  12° 2' 39" W  View metadata report for BODC series reference number 145486
1454981978-08-25 09:22 58° 5' 52" N  12° 2' 39" W  View metadata report for BODC series reference number 145498
1455051978-08-25 09:23 58° 5' 52" N  12° 2' 39" W  View metadata report for BODC series reference number 145505
1455171978-08-25 09:25 58° 5' 52" N  12° 2' 39" W  View metadata report for BODC series reference number 145517
1455291978-08-25 09:26 58° 5' 52" N  12° 2' 39" W  View metadata report for BODC series reference number 145529
1455301978-08-25 09:27 58° 5' 52" N  12° 2' 39" W  View metadata report for BODC series reference number 145530
1455421978-08-25 09:28 58° 5' 52" N  12° 2' 39" W  View metadata report for BODC series reference number 145542
1455541978-08-25 09:29 58° 5' 52" N  12° 2' 39" W  View metadata report for BODC series reference number 145554
1455661978-08-25 10:00 58° 5' 52" N  12° 2' 39" W  View metadata report for BODC series reference number 145566
1448391978-08-25 05:04 58° 5' 43" N  12° 2' 55" W  View metadata report for BODC series reference number 144839
1448401978-08-25 05:28 58° 5' 43" N  12° 2' 55" W  View metadata report for BODC series reference number 144840
1448521978-08-25 05:30 58° 5' 43" N  12° 2' 55" W  View metadata report for BODC series reference number 144852
1448641978-08-25 05:32 58° 5' 43" N  12° 2' 55" W  View metadata report for BODC series reference number 144864
1448761978-08-25 05:34 58° 5' 43" N  12° 2' 55" W  View metadata report for BODC series reference number 144876
1448881978-08-25 05:36 58° 5' 43" N  12° 2' 55" W  View metadata report for BODC series reference number 144888
1449071978-08-25 05:38 58° 5' 43" N  12° 2' 55" W  View metadata report for BODC series reference number 144907
1449191978-08-25 05:40 58° 5' 43" N  12° 2' 55" W  View metadata report for BODC series reference number 144919
1449201978-08-25 05:42 58° 5' 43" N  12° 2' 55" W  View metadata report for BODC series reference number 144920
1449321978-08-25 05:44 58° 5' 43" N  12° 2' 55" W  View metadata report for BODC series reference number 144932
1449441978-08-25 05:46 58° 5' 43" N  12° 2' 55" W  View metadata report for BODC series reference number 144944
1449561978-08-25 05:48 58° 5' 43" N  12° 2' 55" W  View metadata report for BODC series reference number 144956
1449681978-08-25 05:50 58° 5' 43" N  12° 2' 55" W  View metadata report for BODC series reference number 144968
1449811978-08-25 05:52 58° 5' 43" N  12° 2' 55" W  View metadata report for BODC series reference number 144981
1449931978-08-25 05:54 58° 5' 43" N  12° 2' 55" W  View metadata report for BODC series reference number 144993
1450071978-08-25 05:56 58° 5' 43" N  12° 2' 55" W  View metadata report for BODC series reference number 145007
1450191978-08-25 05:58 58° 5' 43" N  12° 2' 55" W  View metadata report for BODC series reference number 145019
1450201978-08-25 06:00 58° 5' 43" N  12° 2' 55" W  View metadata report for BODC series reference number 145020
1450321978-08-25 06:29 58° 5' 49" N  12° 3' 2" W  View metadata report for BODC series reference number 145032
1450441978-08-25 06:56 58° 5' 49" N  12° 3' 2" W  View metadata report for BODC series reference number 145044
1450561978-08-25 06:58 58° 5' 49" N  12° 3' 2" W  View metadata report for BODC series reference number 145056
1450681978-08-25 07:00 58° 5' 49" N  12° 3' 2" W  View metadata report for BODC series reference number 145068
1450811978-08-25 07:02 58° 5' 49" N  12° 3' 2" W  View metadata report for BODC series reference number 145081
1450931978-08-25 07:04 58° 5' 49" N  12° 3' 2" W  View metadata report for BODC series reference number 145093
1451001978-08-25 07:06 58° 5' 49" N  12° 3' 2" W  View metadata report for BODC series reference number 145100
1451121978-08-25 07:08 58° 5' 49" N  12° 3' 2" W  View metadata report for BODC series reference number 145112
1451241978-08-25 07:10 58° 5' 49" N  12° 3' 2" W  View metadata report for BODC series reference number 145124
1451361978-08-25 07:12 58° 5' 49" N  12° 3' 2" W  View metadata report for BODC series reference number 145136
1451481978-08-25 07:14 58° 5' 49" N  12° 3' 2" W  View metadata report for BODC series reference number 145148
1451611978-08-25 07:16 58° 5' 49" N  12° 3' 2" W  View metadata report for BODC series reference number 145161
1451731978-08-25 07:18 58° 5' 49" N  12° 3' 2" W  View metadata report for BODC series reference number 145173
1451851978-08-25 07:20 58° 5' 49" N  12° 3' 2" W  View metadata report for BODC series reference number 145185
1451971978-08-25 07:22 58° 5' 49" N  12° 3' 2" W  View metadata report for BODC series reference number 145197
1452041978-08-25 07:24 58° 5' 49" N  12° 3' 2" W  View metadata report for BODC series reference number 145204
1444581978-08-25 00:56 58° 5' 48" N  12° 3' 2" W  View metadata report for BODC series reference number 144458
1444711978-08-25 00:58 58° 5' 48" N  12° 3' 2" W  View metadata report for BODC series reference number 144471
1444831978-08-25 01:34 58° 5' 48" N  12° 3' 2" W  View metadata report for BODC series reference number 144483
1444951978-08-25 01:36 58° 5' 48" N  12° 3' 2" W  View metadata report for BODC series reference number 144495
1445021978-08-25 01:38 58° 5' 48" N  12° 3' 2" W  View metadata report for BODC series reference number 144502
1445141978-08-25 01:40 58° 5' 48" N  12° 3' 2" W  View metadata report for BODC series reference number 144514
1169311978-07-30 09:39 58° 5' 51" N  12° 2' 50" W  View metadata report for BODC series reference number 116931
1169431978-07-30 09:43 58° 5' 51" N  12° 2' 50" W  View metadata report for BODC series reference number 116943
1169551978-07-30 09:47 58° 5' 51" N  12° 2' 50" W  View metadata report for BODC series reference number 116955
1169671978-07-30 09:51 58° 5' 51" N  12° 2' 50" W  View metadata report for BODC series reference number 116967
1169791978-07-30 09:55 58° 5' 51" N  12° 2' 50" W  View metadata report for BODC series reference number 116979
1169801978-07-30 09:59 58° 5' 51" N  12° 2' 50" W  View metadata report for BODC series reference number 116980
1169921978-07-30 10:03 58° 5' 51" N  12° 2' 50" W  View metadata report for BODC series reference number 116992
1170061978-07-30 10:07 58° 5' 51" N  12° 2' 50" W  View metadata report for BODC series reference number 117006
1170181978-07-30 10:11 58° 5' 51" N  12° 2' 50" W  View metadata report for BODC series reference number 117018
1170311978-07-30 10:15 58° 5' 51" N  12° 2' 50" W  View metadata report for BODC series reference number 117031
1170431978-07-30 10:19 58° 5' 51" N  12° 2' 50" W  View metadata report for BODC series reference number 117043
1170551978-07-30 10:23 58° 5' 51" N  12° 2' 50" W  View metadata report for BODC series reference number 117055
1170671978-07-30 10:27 58° 5' 51" N  12° 2' 50" W  View metadata report for BODC series reference number 117067
1170791978-07-30 10:31 58° 5' 51" N  12° 2' 50" W  View metadata report for BODC series reference number 117079
1170801978-07-30 10:35 58° 5' 51" N  12° 2' 50" W  View metadata report for BODC series reference number 117080
1170921978-07-30 10:39 58° 5' 51" N  12° 2' 50" W  View metadata report for BODC series reference number 117092
1171111978-07-30 10:43 58° 5' 51" N  12° 2' 50" W  View metadata report for BODC series reference number 117111
1171231978-07-30 10:47 58° 5' 51" N  12° 2' 50" W  View metadata report for BODC series reference number 117123
1171351978-07-30 10:52 58° 5' 51" N  12° 2' 50" W  View metadata report for BODC series reference number 117135
1171471978-07-30 10:55 58° 5' 51" N  12° 2' 50" W  View metadata report for BODC series reference number 117147
1171591978-07-30 10:59 58° 5' 51" N  12° 2' 50" W  View metadata report for BODC series reference number 117159
1315951978-08-19 04:46 58° 5' 51" N  12° 2' 56" W  View metadata report for BODC series reference number 131595
1316021978-08-19 04:48 58° 5' 51" N  12° 2' 56" W  View metadata report for BODC series reference number 131602
1316141978-08-19 04:50 58° 5' 51" N  12° 2' 56" W  View metadata report for BODC series reference number 131614
1316261978-08-19 04:52 58° 5' 51" N  12° 2' 56" W  View metadata report for BODC series reference number 131626
1316381978-08-19 04:54 58° 5' 51" N  12° 2' 56" W  View metadata report for BODC series reference number 131638
1316511978-08-19 04:56 58° 5' 51" N  12° 2' 56" W  View metadata report for BODC series reference number 131651
1316631978-08-19 04:58 58° 5' 51" N  12° 2' 56" W  View metadata report for BODC series reference number 131663
1316751978-08-19 05:00 58° 5' 51" N  12° 2' 56" W  View metadata report for BODC series reference number 131675
1316871978-08-19 05:02 58° 5' 51" N  12° 2' 56" W  View metadata report for BODC series reference number 131687
1316991978-08-19 05:04 58° 5' 51" N  12° 2' 56" W  View metadata report for BODC series reference number 131699
1317061978-08-19 05:06 58° 5' 51" N  12° 2' 56" W  View metadata report for BODC series reference number 131706
1317181978-08-19 05:08 58° 5' 51" N  12° 2' 56" W  View metadata report for BODC series reference number 131718
1317311978-08-19 05:10 58° 5' 51" N  12° 2' 56" W  View metadata report for BODC series reference number 131731
1317431978-08-19 05:12 58° 5' 51" N  12° 2' 56" W  View metadata report for BODC series reference number 131743
1317551978-08-19 05:14 58° 5' 51" N  12° 2' 56" W  View metadata report for BODC series reference number 131755
1310121978-08-19 01:04 58° 5' 51" N  12° 2' 56" W  View metadata report for BODC series reference number 131012
1310241978-08-19 01:06 58° 5' 51" N  12° 2' 56" W  View metadata report for BODC series reference number 131024
1310361978-08-19 01:08 58° 5' 51" N  12° 2' 56" W  View metadata report for BODC series reference number 131036
1310481978-08-19 01:10 58° 5' 51" N  12° 2' 56" W  View metadata report for BODC series reference number 131048
1310611978-08-19 01:12 58° 5' 51" N  12° 2' 56" W  View metadata report for BODC series reference number 131061
1310731978-08-19 01:14 58° 5' 51" N  12° 2' 56" W  View metadata report for BODC series reference number 131073
1310851978-08-19 01:16 58° 5' 51" N  12° 2' 56" W  View metadata report for BODC series reference number 131085
1310971978-08-19 01:50 58° 5' 51" N  12° 2' 56" W  View metadata report for BODC series reference number 131097
1311041978-08-19 01:52 58° 5' 51" N  12° 2' 56" W  View metadata report for BODC series reference number 131104
1311161978-08-19 01:54 58° 5' 51" N  12° 2' 56" W  View metadata report for BODC series reference number 131116
1311281978-08-19 01:56 58° 5' 51" N  12° 2' 56" W  View metadata report for BODC series reference number 131128
1311411978-08-19 01:58 58° 5' 51" N  12° 2' 56" W  View metadata report for BODC series reference number 131141
1311531978-08-19 02:00 58° 5' 51" N  12° 2' 56" W  View metadata report for BODC series reference number 131153
1311651978-08-19 02:02 58° 5' 51" N  12° 2' 56" W  View metadata report for BODC series reference number 131165
1311771978-08-19 02:04 58° 5' 51" N  12° 2' 56" W  View metadata report for BODC series reference number 131177
1311891978-08-19 02:06 58° 5' 51" N  12° 2' 56" W  View metadata report for BODC series reference number 131189
1311901978-08-19 02:08 58° 5' 51" N  12° 2' 56" W  View metadata report for BODC series reference number 131190
1312081978-08-19 02:10 58° 5' 51" N  12° 2' 56" W  View metadata report for BODC series reference number 131208
1312211978-08-19 02:12 58° 5' 51" N  12° 2' 56" W  View metadata report for BODC series reference number 131221
1312331978-08-19 02:14 58° 5' 51" N  12° 2' 56" W  View metadata report for BODC series reference number 131233
1312451978-08-19 02:16 58° 5' 51" N  12° 2' 56" W  View metadata report for BODC series reference number 131245
1445261978-08-25 01:42 58° 5' 48" N  12° 3' 2" W  View metadata report for BODC series reference number 144526
1445381978-08-25 01:44 58° 5' 48" N  12° 3' 2" W  View metadata report for BODC series reference number 144538
1445511978-08-25 01:46 58° 5' 48" N  12° 3' 2" W  View metadata report for BODC series reference number 144551
1445631978-08-25 01:48 58° 5' 48" N  12° 3' 2" W  View metadata report for BODC series reference number 144563
1445751978-08-25 01:50 58° 5' 48" N  12° 3' 2" W  View metadata report for BODC series reference number 144575
1445871978-08-25 01:52 58° 5' 48" N  12° 3' 2" W  View metadata report for BODC series reference number 144587
1445991978-08-25 01:54 58° 5' 48" N  12° 3' 2" W  View metadata report for BODC series reference number 144599
1446061978-08-25 01:56 58° 5' 48" N  12° 3' 2" W  View metadata report for BODC series reference number 144606
1446181978-08-25 01:58 58° 5' 48" N  12° 3' 2" W  View metadata report for BODC series reference number 144618
1446311978-08-25 02:00 58° 5' 48" N  12° 3' 2" W  View metadata report for BODC series reference number 144631
1446431978-08-25 02:02 58° 5' 48" N  12° 3' 2" W  View metadata report for BODC series reference number 144643
1446551978-08-25 02:02 58° 5' 48" N  12° 3' 2" W  View metadata report for BODC series reference number 144655
1446671978-08-25 02:04 58° 5' 48" N  12° 3' 2" W  View metadata report for BODC series reference number 144667
1446791978-08-25 04:34 58° 5' 43" N  12° 2' 55" W  View metadata report for BODC series reference number 144679
1446801978-08-25 04:36 58° 5' 43" N  12° 2' 55" W  View metadata report for BODC series reference number 144680
1446921978-08-25 04:38 58° 5' 43" N  12° 2' 55" W  View metadata report for BODC series reference number 144692
1447111978-08-25 04:40 58° 5' 43" N  12° 2' 55" W  View metadata report for BODC series reference number 144711
1447231978-08-25 04:42 58° 5' 43" N  12° 2' 55" W  View metadata report for BODC series reference number 144723
1447351978-08-25 04:44 58° 5' 43" N  12° 2' 55" W  View metadata report for BODC series reference number 144735
1447471978-08-25 04:46 58° 5' 43" N  12° 2' 55" W  View metadata report for BODC series reference number 144747
1447591978-08-25 04:48 58° 5' 43" N  12° 2' 55" W  View metadata report for BODC series reference number 144759
1447601978-08-25 04:50 58° 5' 43" N  12° 2' 55" W  View metadata report for BODC series reference number 144760
1447721978-08-25 04:52 58° 5' 43" N  12° 2' 55" W  View metadata report for BODC series reference number 144772
1447841978-08-25 04:54 58° 5' 43" N  12° 2' 55" W  View metadata report for BODC series reference number 144784
1447961978-08-25 04:56 58° 5' 43" N  12° 2' 55" W  View metadata report for BODC series reference number 144796
1448031978-08-25 04:58 58° 5' 43" N  12° 2' 55" W  View metadata report for BODC series reference number 144803
1448151978-08-25 05:00 58° 5' 43" N  12° 2' 55" W  View metadata report for BODC series reference number 144815
1448271978-08-25 05:02 58° 5' 43" N  12° 2' 55" W  View metadata report for BODC series reference number 144827
1440901978-08-24 22:48 58° 5' 48" N  12° 3' 2" W  View metadata report for BODC series reference number 144090
1441081978-08-24 22:50 58° 5' 48" N  12° 3' 2" W  View metadata report for BODC series reference number 144108
1441211978-08-24 22:52 58° 5' 48" N  12° 3' 2" W  View metadata report for BODC series reference number 144121
1441331978-08-24 22:54 58° 5' 48" N  12° 3' 2" W  View metadata report for BODC series reference number 144133
1441451978-08-24 22:56 58° 5' 48" N  12° 3' 2" W  View metadata report for BODC series reference number 144145
1441571978-08-24 23:28 58° 5' 48" N  12° 3' 2" W  View metadata report for BODC series reference number 144157
1441691978-08-24 23:30 58° 5' 48" N  12° 3' 2" W  View metadata report for BODC series reference number 144169
1441701978-08-24 23:32 58° 5' 48" N  12° 3' 2" W  View metadata report for BODC series reference number 144170
1441821978-08-24 23:34 58° 5' 48" N  12° 3' 2" W  View metadata report for BODC series reference number 144182
1441941978-08-24 23:36 58° 5' 48" N  12° 3' 2" W  View metadata report for BODC series reference number 144194
1442011978-08-24 23:38 58° 5' 48" N  12° 3' 2" W  View metadata report for BODC series reference number 144201
1442131978-08-24 23:40 58° 5' 48" N  12° 3' 2" W  View metadata report for BODC series reference number 144213
1442251978-08-24 23:42 58° 5' 48" N  12° 3' 2" W  View metadata report for BODC series reference number 144225
1442371978-08-24 23:44 58° 5' 48" N  12° 3' 2" W  View metadata report for BODC series reference number 144237
1442491978-08-24 23:46 58° 5' 48" N  12° 3' 2" W  View metadata report for BODC series reference number 144249
1442501978-08-24 23:48 58° 5' 48" N  12° 3' 2" W  View metadata report for BODC series reference number 144250
1442621978-08-24 23:50 58° 5' 48" N  12° 3' 2" W  View metadata report for BODC series reference number 144262
1442741978-08-24 23:52 58° 5' 48" N  12° 3' 2" W  View metadata report for BODC series reference number 144274
1442861978-08-24 23:54 58° 5' 48" N  12° 3' 2" W  View metadata report for BODC series reference number 144286
1442981978-08-24 23:56 58° 5' 48" N  12° 3' 2" W  View metadata report for BODC series reference number 144298
1443051978-08-24 23:58 58° 5' 48" N  12° 3' 2" W  View metadata report for BODC series reference number 144305
1443171978-08-25 00:30 58° 5' 48" N  12° 3' 2" W  View metadata report for BODC series reference number 144317
1443291978-08-25 00:32 58° 5' 48" N  12° 3' 2" W  View metadata report for BODC series reference number 144329
1443301978-08-25 00:34 58° 5' 48" N  12° 3' 2" W  View metadata report for BODC series reference number 144330
1443421978-08-25 00:36 58° 5' 48" N  12° 3' 2" W  View metadata report for BODC series reference number 144342
1443541978-08-25 00:38 58° 5' 48" N  12° 3' 2" W  View metadata report for BODC series reference number 144354
1443661978-08-25 00:40 58° 5' 48" N  12° 3' 2" W  View metadata report for BODC series reference number 144366
1443781978-08-25 00:42 58° 5' 48" N  12° 3' 2" W  View metadata report for BODC series reference number 144378
1443911978-08-25 00:44 58° 5' 48" N  12° 3' 2" W  View metadata report for BODC series reference number 144391
1312571978-08-19 02:18 58° 5' 51" N  12° 2' 56" W  View metadata report for BODC series reference number 131257
1312691978-08-19 02:20 58° 5' 51" N  12° 2' 56" W  View metadata report for BODC series reference number 131269
1312701978-08-19 02:50 58° 5' 51" N  12° 2' 56" W  View metadata report for BODC series reference number 131270
1312821978-08-19 02:52 58° 5' 51" N  12° 2' 56" W  View metadata report for BODC series reference number 131282
1312941978-08-19 02:54 58° 5' 51" N  12° 2' 56" W  View metadata report for BODC series reference number 131294
1313011978-08-19 02:56 58° 5' 51" N  12° 2' 56" W  View metadata report for BODC series reference number 131301
1313131978-08-19 02:58 58° 5' 51" N  12° 2' 56" W  View metadata report for BODC series reference number 131313
1313251978-08-19 03:00 58° 5' 51" N  12° 2' 56" W  View metadata report for BODC series reference number 131325
1313371978-08-19 03:02 58° 5' 51" N  12° 2' 56" W  View metadata report for BODC series reference number 131337
1313491978-08-19 03:04 58° 5' 51" N  12° 2' 56" W  View metadata report for BODC series reference number 131349
1313501978-08-19 03:06 58° 5' 51" N  12° 2' 56" W  View metadata report for BODC series reference number 131350
1313621978-08-19 03:08 58° 5' 51" N  12° 2' 56" W  View metadata report for BODC series reference number 131362
1313741978-08-19 03:10 58° 5' 51" N  12° 2' 56" W  View metadata report for BODC series reference number 131374
1306471978-08-18 22:58 58° 5' 49" N  12° 2' 55" W  View metadata report for BODC series reference number 130647
1306591978-08-18 23:00 58° 5' 49" N  12° 2' 55" W  View metadata report for BODC series reference number 130659
1306601978-08-18 23:02 58° 5' 49" N  12° 2' 55" W  View metadata report for BODC series reference number 130660
1306721978-08-18 23:04 58° 5' 49" N  12° 2' 55" W  View metadata report for BODC series reference number 130672
1306841978-08-18 23:06 58° 5' 49" N  12° 2' 55" W  View metadata report for BODC series reference number 130684
1306961978-08-18 23:08 58° 5' 49" N  12° 2' 55" W  View metadata report for BODC series reference number 130696
1307031978-08-18 23:10 58° 5' 49" N  12° 2' 55" W  View metadata report for BODC series reference number 130703
1307151978-08-18 23:12 58° 5' 49" N  12° 2' 55" W  View metadata report for BODC series reference number 130715
1307271978-08-18 23:14 58° 5' 49" N  12° 2' 55" W  View metadata report for BODC series reference number 130727
1307391978-08-18 23:44 58° 5' 49" N  12° 2' 55" W  View metadata report for BODC series reference number 130739
1307401978-08-18 23:46 58° 5' 49" N  12° 2' 55" W  View metadata report for BODC series reference number 130740
1307521978-08-18 23:48 58° 5' 49" N  12° 2' 55" W  View metadata report for BODC series reference number 130752
1307641978-08-18 23:50 58° 5' 49" N  12° 2' 55" W  View metadata report for BODC series reference number 130764
1307761978-08-18 23:52 58° 5' 49" N  12° 2' 55" W  View metadata report for BODC series reference number 130776
1307881978-08-18 23:54 58° 5' 49" N  12° 2' 55" W  View metadata report for BODC series reference number 130788
1308071978-08-18 23:56 58° 5' 49" N  12° 2' 55" W  View metadata report for BODC series reference number 130807
1308191978-08-18 23:58 58° 5' 49" N  12° 2' 55" W  View metadata report for BODC series reference number 130819
1308201978-08-19 00:00 58° 5' 49" N  12° 2' 55" W  View metadata report for BODC series reference number 130820
1308321978-08-19 00:02 58° 5' 49" N  12° 2' 55" W  View metadata report for BODC series reference number 130832
1308441978-08-19 00:04 58° 5' 49" N  12° 2' 55" W  View metadata report for BODC series reference number 130844
1308561978-08-19 00:06 58° 5' 49" N  12° 2' 55" W  View metadata report for BODC series reference number 130856
1308681978-08-19 00:08 58° 5' 49" N  12° 2' 55" W  View metadata report for BODC series reference number 130868
1308811978-08-19 00:10 58° 5' 49" N  12° 2' 55" W  View metadata report for BODC series reference number 130881
1308931978-08-19 00:12 58° 5' 49" N  12° 2' 55" W  View metadata report for BODC series reference number 130893
1309001978-08-19 00:14 58° 5' 49" N  12° 2' 55" W  View metadata report for BODC series reference number 130900
1309121978-08-19 00:46 58° 5' 51" N  12° 2' 56" W  View metadata report for BODC series reference number 130912
1309241978-08-19 00:48 58° 5' 51" N  12° 2' 56" W  View metadata report for BODC series reference number 130924
1309361978-08-19 00:50 58° 5' 51" N  12° 2' 56" W  View metadata report for BODC series reference number 130936
1309481978-08-19 00:52 58° 5' 51" N  12° 2' 56" W  View metadata report for BODC series reference number 130948
1309611978-08-19 00:54 58° 5' 51" N  12° 2' 56" W  View metadata report for BODC series reference number 130961
1309731978-08-19 00:56 58° 5' 51" N  12° 2' 56" W  View metadata report for BODC series reference number 130973
1309851978-08-19 00:58 58° 5' 51" N  12° 2' 56" W  View metadata report for BODC series reference number 130985
1309971978-08-19 01:00 58° 5' 51" N  12° 2' 56" W  View metadata report for BODC series reference number 130997
1310001978-08-19 01:02 58° 5' 51" N  12° 2' 56" W  View metadata report for BODC series reference number 131000
1302541978-08-18 20:54 58° 5' 49" N  12° 2' 55" W  View metadata report for BODC series reference number 130254
1302661978-08-18 20:56 58° 5' 49" N  12° 2' 55" W  View metadata report for BODC series reference number 130266
1302781978-08-18 20:58 58° 5' 49" N  12° 2' 55" W  View metadata report for BODC series reference number 130278
1302911978-08-18 21:00 58° 5' 49" N  12° 2' 55" W  View metadata report for BODC series reference number 130291
1303091978-08-18 21:02 58° 5' 49" N  12° 2' 55" W  View metadata report for BODC series reference number 130309
1303101978-08-18 21:04 58° 5' 49" N  12° 2' 55" W  View metadata report for BODC series reference number 130310
1303221978-08-18 21:06 58° 5' 49" N  12° 2' 55" W  View metadata report for BODC series reference number 130322
1303341978-08-18 21:08 58° 5' 49" N  12° 2' 55" W  View metadata report for BODC series reference number 130334
1303461978-08-18 21:10 58° 5' 49" N  12° 2' 55" W  View metadata report for BODC series reference number 130346
1303581978-08-18 21:12 58° 5' 49" N  12° 2' 55" W  View metadata report for BODC series reference number 130358
1444091978-08-25 00:46 58° 5' 48" N  12° 3' 2" W  View metadata report for BODC series reference number 144409
1444101978-08-25 00:48 58° 5' 48" N  12° 3' 2" W  View metadata report for BODC series reference number 144410
1444221978-08-25 00:50 58° 5' 48" N  12° 3' 2" W  View metadata report for BODC series reference number 144422
1444341978-08-25 00:52 58° 5' 48" N  12° 3' 2" W  View metadata report for BODC series reference number 144434
1444461978-08-25 00:54 58° 5' 48" N  12° 3' 2" W  View metadata report for BODC series reference number 144446
1437191978-08-24 20:48 58° 5' 48" N  12° 3' 2" W  View metadata report for BODC series reference number 143719
1437201978-08-24 20:50 58° 5' 48" N  12° 3' 2" W  View metadata report for BODC series reference number 143720
1437321978-08-24 20:52 58° 5' 48" N  12° 3' 2" W  View metadata report for BODC series reference number 143732
1437441978-08-24 20:54 58° 5' 48" N  12° 3' 2" W  View metadata report for BODC series reference number 143744
1437561978-08-24 20:56 58° 5' 48" N  12° 3' 2" W  View metadata report for BODC series reference number 143756
1437681978-08-24 20:58 58° 5' 48" N  12° 3' 2" W  View metadata report for BODC series reference number 143768
1437811978-08-24 21:00 58° 5' 48" N  12° 3' 2" W  View metadata report for BODC series reference number 143781
1437931978-08-24 21:32 58° 5' 48" N  12° 3' 2" W  View metadata report for BODC series reference number 143793
1438001978-08-24 21:34 58° 5' 48" N  12° 3' 2" W  View metadata report for BODC series reference number 143800
1438121978-08-24 21:36 58° 5' 48" N  12° 3' 2" W  View metadata report for BODC series reference number 143812
1438241978-08-24 21:38 58° 5' 48" N  12° 3' 2" W  View metadata report for BODC series reference number 143824
1438361978-08-24 21:40 58° 5' 48" N  12° 3' 2" W  View metadata report for BODC series reference number 143836
1438481978-08-24 21:42 58° 5' 48" N  12° 3' 2" W  View metadata report for BODC series reference number 143848
1438611978-08-24 21:44 58° 5' 48" N  12° 3' 2" W  View metadata report for BODC series reference number 143861
1438731978-08-24 21:46 58° 5' 48" N  12° 3' 2" W  View metadata report for BODC series reference number 143873
1438851978-08-24 21:48 58° 5' 48" N  12° 3' 2" W  View metadata report for BODC series reference number 143885
1438971978-08-24 21:50 58° 5' 48" N  12° 3' 2" W  View metadata report for BODC series reference number 143897
1439041978-08-24 21:52 58° 5' 48" N  12° 3' 2" W  View metadata report for BODC series reference number 143904
1439161978-08-24 21:54 58° 5' 48" N  12° 3' 2" W  View metadata report for BODC series reference number 143916
1439281978-08-24 21:56 58° 5' 48" N  12° 3' 2" W  View metadata report for BODC series reference number 143928
1439411978-08-24 21:58 58° 5' 48" N  12° 3' 2" W  View metadata report for BODC series reference number 143941
1439531978-08-24 22:00 58° 5' 48" N  12° 3' 2" W  View metadata report for BODC series reference number 143953
1439651978-08-24 22:02 58° 5' 48" N  12° 3' 2" W  View metadata report for BODC series reference number 143965
1439771978-08-24 22:26 58° 5' 48" N  12° 3' 2" W  View metadata report for BODC series reference number 143977
1439891978-08-24 22:28 58° 5' 48" N  12° 3' 2" W  View metadata report for BODC series reference number 143989
1439901978-08-24 22:30 58° 5' 48" N  12° 3' 2" W  View metadata report for BODC series reference number 143990
1440041978-08-24 22:32 58° 5' 48" N  12° 3' 2" W  View metadata report for BODC series reference number 144004
1440161978-08-24 22:34 58° 5' 48" N  12° 3' 2" W  View metadata report for BODC series reference number 144016
1440281978-08-24 22:36 58° 5' 48" N  12° 3' 2" W  View metadata report for BODC series reference number 144028
1440411978-08-24 22:38 58° 5' 48" N  12° 3' 2" W  View metadata report for BODC series reference number 144041
1440531978-08-24 22:40 58° 5' 48" N  12° 3' 2" W  View metadata report for BODC series reference number 144053
1440651978-08-24 22:42 58° 5' 48" N  12° 3' 2" W  View metadata report for BODC series reference number 144065
1440771978-08-24 22:44 58° 5' 48" N  12° 3' 2" W  View metadata report for BODC series reference number 144077
1440891978-08-24 22:46 58° 5' 48" N  12° 3' 2" W  View metadata report for BODC series reference number 144089
1433381978-08-24 18:18 58° 5' 44" N  12° 3' 1" W  View metadata report for BODC series reference number 143338
1433511978-08-24 18:20 58° 5' 44" N  12° 3' 1" W  View metadata report for BODC series reference number 143351
1433631978-08-24 18:22 58° 5' 44" N  12° 3' 1" W  View metadata report for BODC series reference number 143363
1433751978-08-24 18:24 58° 5' 44" N  12° 3' 1" W  View metadata report for BODC series reference number 143375
1433871978-08-24 18:26 58° 5' 44" N  12° 3' 1" W  View metadata report for BODC series reference number 143387
1433991978-08-24 18:28 58° 5' 44" N  12° 3' 1" W  View metadata report for BODC series reference number 143399
1434061978-08-24 18:30 58° 5' 44" N  12° 3' 1" W  View metadata report for BODC series reference number 143406
1434181978-08-24 18:32 58° 5' 44" N  12° 3' 1" W  View metadata report for BODC series reference number 143418
1171601978-07-30 14:58 58° 5' 55" N  12° 2' 52" W  View metadata report for BODC series reference number 117160
1171721978-07-30 15:13 58° 5' 55" N  12° 2' 52" W  View metadata report for BODC series reference number 117172
1171841978-07-30 15:15 58° 5' 55" N  12° 2' 52" W  View metadata report for BODC series reference number 117184
1171961978-07-30 15:17 58° 5' 55" N  12° 2' 52" W  View metadata report for BODC series reference number 117196
1172031978-07-30 15:19 58° 5' 55" N  12° 2' 52" W  View metadata report for BODC series reference number 117203
1172151978-07-30 15:21 58° 5' 55" N  12° 2' 52" W  View metadata report for BODC series reference number 117215
1172271978-07-30 15:23 58° 5' 55" N  12° 2' 52" W  View metadata report for BODC series reference number 117227
1172391978-07-30 15:25 58° 5' 55" N  12° 2' 52" W  View metadata report for BODC series reference number 117239
1172401978-07-30 15:27 58° 5' 55" N  12° 2' 52" W  View metadata report for BODC series reference number 117240
1172521978-07-30 15:29 58° 5' 55" N  12° 2' 52" W  View metadata report for BODC series reference number 117252
1172641978-07-30 15:31 58° 5' 55" N  12° 2' 52" W  View metadata report for BODC series reference number 117264
1303711978-08-18 21:14 58° 5' 49" N  12° 2' 55" W  View metadata report for BODC series reference number 130371
1303831978-08-18 21:46 58° 5' 49" N  12° 2' 55" W  View metadata report for BODC series reference number 130383
1303951978-08-18 21:48 58° 5' 49" N  12° 2' 55" W  View metadata report for BODC series reference number 130395
1304021978-08-18 21:50 58° 5' 49" N  12° 2' 55" W  View metadata report for BODC series reference number 130402
1304141978-08-18 21:52 58° 5' 49" N  12° 2' 55" W  View metadata report for BODC series reference number 130414
1304261978-08-18 21:54 58° 5' 49" N  12° 2' 55" W  View metadata report for BODC series reference number 130426
1304381978-08-18 21:56 58° 5' 49" N  12° 2' 55" W  View metadata report for BODC series reference number 130438
1304511978-08-18 21:58 58° 5' 49" N  12° 2' 55" W  View metadata report for BODC series reference number 130451
1304631978-08-18 22:00 58° 5' 49" N  12° 2' 55" W  View metadata report for BODC series reference number 130463
1304751978-08-18 22:02 58° 5' 49" N  12° 2' 55" W  View metadata report for BODC series reference number 130475
1304871978-08-18 22:04 58° 5' 49" N  12° 2' 55" W  View metadata report for BODC series reference number 130487
1304991978-08-18 22:06 58° 5' 49" N  12° 2' 55" W  View metadata report for BODC series reference number 130499
1305061978-08-18 22:08 58° 5' 49" N  12° 2' 55" W  View metadata report for BODC series reference number 130506
1305181978-08-18 22:10 58° 5' 49" N  12° 2' 55" W  View metadata report for BODC series reference number 130518
1305311978-08-18 22:12 58° 5' 49" N  12° 2' 55" W  View metadata report for BODC series reference number 130531
1305431978-08-18 22:14 58° 5' 49" N  12° 2' 55" W  View metadata report for BODC series reference number 130543
1305551978-08-18 22:16 58° 5' 49" N  12° 2' 55" W  View metadata report for BODC series reference number 130555
1305671978-08-18 22:44 58° 5' 49" N  12° 2' 55" W  View metadata report for BODC series reference number 130567
1305791978-08-18 22:46 58° 5' 49" N  12° 2' 55" W  View metadata report for BODC series reference number 130579
1305801978-08-18 22:48 58° 5' 49" N  12° 2' 55" W  View metadata report for BODC series reference number 130580
1305921978-08-18 22:50 58° 5' 49" N  12° 2' 55" W  View metadata report for BODC series reference number 130592
1306111978-08-18 22:52 58° 5' 49" N  12° 2' 55" W  View metadata report for BODC series reference number 130611
1306231978-08-18 22:54 58° 5' 49" N  12° 2' 55" W  View metadata report for BODC series reference number 130623
1306351978-08-18 22:56 58° 5' 49" N  12° 2' 55" W  View metadata report for BODC series reference number 130635
1298921978-08-18 16:48 58° 5' 50" N  12° 2' 36" W  View metadata report for BODC series reference number 129892
1299111978-08-18 16:50 58° 5' 50" N  12° 2' 36" W  View metadata report for BODC series reference number 129911
1299231978-08-18 16:52 58° 5' 50" N  12° 2' 36" W  View metadata report for BODC series reference number 129923
1299351978-08-18 16:54 58° 5' 50" N  12° 2' 36" W  View metadata report for BODC series reference number 129935
1299471978-08-18 16:56 58° 5' 50" N  12° 2' 36" W  View metadata report for BODC series reference number 129947
1299591978-08-18 16:58 58° 5' 50" N  12° 2' 36" W  View metadata report for BODC series reference number 129959
1299601978-08-18 17:00 58° 5' 50" N  12° 2' 36" W  View metadata report for BODC series reference number 129960
1299721978-08-18 17:02 58° 5' 50" N  12° 2' 36" W  View metadata report for BODC series reference number 129972
1299841978-08-18 17:04 58° 5' 50" N  12° 2' 36" W  View metadata report for BODC series reference number 129984
1299961978-08-18 17:06 58° 5' 50" N  12° 2' 36" W  View metadata report for BODC series reference number 129996
1300081978-08-18 17:08 58° 5' 50" N  12° 2' 36" W  View metadata report for BODC series reference number 130008
1300211978-08-18 17:10 58° 5' 50" N  12° 2' 36" W  View metadata report for BODC series reference number 130021
1300331978-08-18 17:12 58° 5' 50" N  12° 2' 36" W  View metadata report for BODC series reference number 130033
1300451978-08-18 19:54 58° 5' 48" N  12° 2' 43" W  View metadata report for BODC series reference number 130045
1300571978-08-18 19:56 58° 5' 48" N  12° 2' 43" W  View metadata report for BODC series reference number 130057
1300691978-08-18 19:58 58° 5' 48" N  12° 2' 43" W  View metadata report for BODC series reference number 130069
1300701978-08-18 20:00 58° 5' 48" N  12° 2' 43" W  View metadata report for BODC series reference number 130070
1300821978-08-18 20:02 58° 5' 48" N  12° 2' 43" W  View metadata report for BODC series reference number 130082
1300941978-08-18 20:04 58° 5' 48" N  12° 2' 43" W  View metadata report for BODC series reference number 130094
1301011978-08-18 20:06 58° 5' 48" N  12° 2' 43" W  View metadata report for BODC series reference number 130101
1301131978-08-18 20:08 58° 5' 48" N  12° 2' 43" W  View metadata report for BODC series reference number 130113
1301251978-08-18 20:10 58° 5' 48" N  12° 2' 43" W  View metadata report for BODC series reference number 130125
1301371978-08-18 20:12 58° 5' 48" N  12° 2' 43" W  View metadata report for BODC series reference number 130137
1301491978-08-18 20:14 58° 5' 48" N  12° 2' 43" W  View metadata report for BODC series reference number 130149
1301501978-08-18 20:16 58° 5' 48" N  12° 2' 43" W  View metadata report for BODC series reference number 130150
1301621978-08-18 20:18 58° 5' 48" N  12° 2' 43" W  View metadata report for BODC series reference number 130162
1301741978-08-18 20:20 58° 5' 48" N  12° 2' 43" W  View metadata report for BODC series reference number 130174
1301861978-08-18 20:22 58° 5' 48" N  12° 2' 43" W  View metadata report for BODC series reference number 130186
1301981978-08-18 20:24 58° 5' 48" N  12° 2' 43" W  View metadata report for BODC series reference number 130198
1302051978-08-18 20:44 58° 5' 49" N  12° 2' 55" W  View metadata report for BODC series reference number 130205
1302171978-08-18 20:46 58° 5' 49" N  12° 2' 55" W  View metadata report for BODC series reference number 130217
1302291978-08-18 20:48 58° 5' 49" N  12° 2' 55" W  View metadata report for BODC series reference number 130229
1302301978-08-18 20:50 58° 5' 49" N  12° 2' 55" W  View metadata report for BODC series reference number 130230
1172761978-07-30 15:33 58° 5' 55" N  12° 2' 52" W  View metadata report for BODC series reference number 117276
1172881978-07-30 15:35 58° 5' 55" N  12° 2' 52" W  View metadata report for BODC series reference number 117288
1173071978-07-30 15:37 58° 5' 55" N  12° 2' 52" W  View metadata report for BODC series reference number 117307
1173191978-07-30 15:39 58° 5' 55" N  12° 2' 52" W  View metadata report for BODC series reference number 117319
1173201978-07-30 15:41 58° 5' 55" N  12° 2' 52" W  View metadata report for BODC series reference number 117320
1173321978-07-30 15:43 58° 5' 55" N  12° 2' 52" W  View metadata report for BODC series reference number 117332
1173441978-07-30 15:45 58° 5' 55" N  12° 2' 52" W  View metadata report for BODC series reference number 117344
1173561978-07-30 15:47 58° 5' 55" N  12° 2' 52" W  View metadata report for BODC series reference number 117356
1173681978-07-30 15:49 58° 5' 55" N  12° 2' 52" W  View metadata report for BODC series reference number 117368
1173811978-07-30 15:51 58° 5' 55" N  12° 2' 52" W  View metadata report for BODC series reference number 117381
1173931978-07-30 15:53 58° 5' 55" N  12° 2' 52" W  View metadata report for BODC series reference number 117393
1174001978-07-30 15:55 58° 5' 55" N  12° 2' 52" W  View metadata report for BODC series reference number 117400
1174121978-07-30 15:57 58° 5' 55" N  12° 2' 52" W  View metadata report for BODC series reference number 117412
1174241978-07-30 15:59 58° 5' 55" N  12° 2' 52" W  View metadata report for BODC series reference number 117424
1174361978-07-30 16:01 58° 5' 55" N  12° 2' 52" W  View metadata report for BODC series reference number 117436
1174481978-07-30 16:03 58° 5' 55" N  12° 2' 52" W  View metadata report for BODC series reference number 117448
1164211978-07-29 10:19 59° 0' 0" N  12° 3' 1" W  View metadata report for BODC series reference number 116421
1164331978-07-29 10:23 59° 0' 0" N  12° 3' 1" W  View metadata report for BODC series reference number 116433
1164451978-07-29 10:27 58° 5' 53" N  12° 3' 9" W  View metadata report for BODC series reference number 116445
1164571978-07-29 10:31 58° 5' 53" N  12° 3' 9" W  View metadata report for BODC series reference number 116457
1164691978-07-29 10:35 58° 5' 53" N  12° 3' 9" W  View metadata report for BODC series reference number 116469
1164701978-07-29 10:39 58° 5' 53" N  12° 3' 9" W  View metadata report for BODC series reference number 116470
1164821978-07-29 10:43 58° 5' 53" N  12° 3' 9" W  View metadata report for BODC series reference number 116482
1164941978-07-29 10:51 58° 5' 53" N  12° 3' 9" W  View metadata report for BODC series reference number 116494
1165011978-07-29 10:55 58° 5' 53" N  12° 3' 9" W  View metadata report for BODC series reference number 116501
1165131978-07-29 15:05 58° 5' 53" N  12° 2' 52" W  View metadata report for BODC series reference number 116513
1165251978-07-29 15:21 58° 5' 53" N  12° 2' 52" W  View metadata report for BODC series reference number 116525
1165371978-07-29 15:25 58° 5' 53" N  12° 2' 52" W  View metadata report for BODC series reference number 116537
1165491978-07-29 15:29 58° 5' 53" N  12° 2' 52" W  View metadata report for BODC series reference number 116549
1165501978-07-29 15:33 58° 5' 53" N  12° 2' 52" W  View metadata report for BODC series reference number 116550
1165621978-07-29 15:37 58° 5' 53" N  12° 2' 52" W  View metadata report for BODC series reference number 116562
1165741978-07-29 15:41 58° 5' 53" N  12° 2' 52" W  View metadata report for BODC series reference number 116574
1165861978-07-29 15:45 58° 5' 53" N  12° 2' 52" W  View metadata report for BODC series reference number 116586
1165981978-07-29 15:49 58° 5' 53" N  12° 2' 52" W  View metadata report for BODC series reference number 116598
1166051978-07-29 15:53 58° 5' 53" N  12° 2' 52" W  View metadata report for BODC series reference number 116605
1166171978-07-29 15:57 58° 5' 53" N  12° 2' 52" W  View metadata report for BODC series reference number 116617
1166291978-07-29 16:01 58° 5' 53" N  12° 2' 52" W  View metadata report for BODC series reference number 116629
1166301978-07-29 16:05 58° 5' 53" N  12° 2' 52" W  View metadata report for BODC series reference number 116630
1166421978-07-29 16:15 58° 5' 53" N  12° 2' 52" W  View metadata report for BODC series reference number 116642
1166541978-07-29 16:19 58° 5' 53" N  12° 2' 52" W  View metadata report for BODC series reference number 116654
1166661978-07-29 16:23 58° 5' 53" N  12° 2' 52" W  View metadata report for BODC series reference number 116666
1166781978-07-29 16:27 58° 5' 53" N  12° 2' 52" W  View metadata report for BODC series reference number 116678
1166911978-07-29 16:31 58° 5' 53" N  12° 2' 52" W  View metadata report for BODC series reference number 116691
1167091978-07-29 16:35 58° 5' 53" N  12° 2' 52" W  View metadata report for BODC series reference number 116709
1167101978-07-29 16:39 58° 5' 53" N  12° 2' 52" W  View metadata report for BODC series reference number 116710
1167221978-07-29 16:43 58° 5' 53" N  12° 2' 52" W  View metadata report for BODC series reference number 116722
1167341978-07-29 16:47 58° 5' 53" N  12° 2' 52" W  View metadata report for BODC series reference number 116734
1167461978-07-29 16:51 58° 5' 53" N  12° 2' 52" W  View metadata report for BODC series reference number 116746
1167581978-07-29 16:55 58° 5' 53" N  12° 2' 52" W  View metadata report for BODC series reference number 116758
1167711978-07-29 16:59 58° 5' 53" N  12° 2' 52" W  View metadata report for BODC series reference number 116771
1167831978-07-29 17:03 58° 5' 53" N  12° 2' 52" W  View metadata report for BODC series reference number 116783
1167951978-07-29 17:07 58° 5' 53" N  12° 2' 52" W  View metadata report for BODC series reference number 116795
1168021978-07-29 17:11 58° 5' 53" N  12° 2' 52" W  View metadata report for BODC series reference number 116802
1128251978-07-11 10:02 58° 5' 48" N  12° 2' 33" W  View metadata report for BODC series reference number 112825
1128371978-07-11 13:03 58° 5' 48" N  12° 2' 33" W  View metadata report for BODC series reference number 112837
1128491978-07-11 16:04 58° 5' 48" N  12° 2' 33" W  View metadata report for BODC series reference number 112849
1128501978-07-12 06:05 58° 5' 30" N  12° 3' 1" W  View metadata report for BODC series reference number 112850
1302421978-08-18 20:52 58° 5' 49" N  12° 2' 55" W  View metadata report for BODC series reference number 130242
1295171978-08-18 14:16 58° 5' 51" N  12° 2' 50" W  View metadata report for BODC series reference number 129517
1295291978-08-18 14:46 58° 5' 52" N  12° 2' 44" W  View metadata report for BODC series reference number 129529
1295301978-08-18 14:48 58° 5' 52" N  12° 2' 44" W  View metadata report for BODC series reference number 129530
1295421978-08-18 14:50 58° 5' 52" N  12° 2' 44" W  View metadata report for BODC series reference number 129542
1295541978-08-18 14:52 58° 5' 52" N  12° 2' 44" W  View metadata report for BODC series reference number 129554
1295661978-08-18 14:54 58° 5' 52" N  12° 2' 44" W  View metadata report for BODC series reference number 129566
1295781978-08-18 14:56 58° 5' 52" N  12° 2' 44" W  View metadata report for BODC series reference number 129578
1295911978-08-18 14:58 58° 5' 52" N  12° 2' 44" W  View metadata report for BODC series reference number 129591
1296091978-08-18 15:00 58° 5' 52" N  12° 2' 44" W  View metadata report for BODC series reference number 129609
1296101978-08-18 15:02 58° 5' 52" N  12° 2' 44" W  View metadata report for BODC series reference number 129610
1296221978-08-18 15:04 58° 5' 52" N  12° 2' 44" W  View metadata report for BODC series reference number 129622
1296341978-08-18 15:06 58° 5' 52" N  12° 2' 44" W  View metadata report for BODC series reference number 129634
1296461978-08-18 15:08 58° 5' 52" N  12° 2' 44" W  View metadata report for BODC series reference number 129646
1296581978-08-18 15:10 58° 5' 52" N  12° 2' 44" W  View metadata report for BODC series reference number 129658
1296711978-08-18 15:12 58° 5' 52" N  12° 2' 44" W  View metadata report for BODC series reference number 129671
1296831978-08-18 15:14 58° 5' 52" N  12° 2' 44" W  View metadata report for BODC series reference number 129683
1296951978-08-18 15:16 58° 5' 52" N  12° 2' 44" W  View metadata report for BODC series reference number 129695
1297021978-08-18 15:46 58° 5' 52" N  12° 2' 44" W  View metadata report for BODC series reference number 129702
1297141978-08-18 15:48 58° 5' 52" N  12° 2' 44" W  View metadata report for BODC series reference number 129714
1297261978-08-18 15:50 58° 5' 52" N  12° 2' 44" W  View metadata report for BODC series reference number 129726
1297381978-08-18 15:52 58° 5' 52" N  12° 2' 44" W  View metadata report for BODC series reference number 129738
1297511978-08-18 15:54 58° 5' 52" N  12° 2' 44" W  View metadata report for BODC series reference number 129751
1297631978-08-18 15:56 58° 5' 52" N  12° 2' 44" W  View metadata report for BODC series reference number 129763
1297751978-08-18 15:58 58° 5' 52" N  12° 2' 44" W  View metadata report for BODC series reference number 129775
1297871978-08-18 16:00 58° 5' 52" N  12° 2' 44" W  View metadata report for BODC series reference number 129787
1297991978-08-18 16:02 58° 5' 52" N  12° 2' 44" W  View metadata report for BODC series reference number 129799
1298061978-08-18 16:04 58° 5' 52" N  12° 2' 44" W  View metadata report for BODC series reference number 129806
1298181978-08-18 16:06 58° 5' 52" N  12° 2' 44" W  View metadata report for BODC series reference number 129818
1298311978-08-18 16:08 58° 5' 52" N  12° 2' 44" W  View metadata report for BODC series reference number 129831
1298431978-08-18 16:10 58° 5' 52" N  12° 2' 44" W  View metadata report for BODC series reference number 129843
1298551978-08-18 16:12 58° 5' 52" N  12° 2' 44" W  View metadata report for BODC series reference number 129855
1298671978-08-18 16:14 58° 5' 52" N  12° 2' 44" W  View metadata report for BODC series reference number 129867
1298791978-08-18 16:16 58° 5' 52" N  12° 2' 44" W  View metadata report for BODC series reference number 129879
1298801978-08-18 16:46 58° 5' 50" N  12° 2' 36" W  View metadata report for BODC series reference number 129880
1291481978-08-18 12:10 58° 5' 51" N  12° 2' 50" W  View metadata report for BODC series reference number 129148
1291611978-08-18 12:12 58° 5' 51" N  12° 2' 50" W  View metadata report for BODC series reference number 129161
1291731978-08-18 12:14 58° 5' 51" N  12° 2' 50" W  View metadata report for BODC series reference number 129173
1291851978-08-18 12:16 58° 5' 51" N  12° 2' 50" W  View metadata report for BODC series reference number 129185
1291971978-08-18 12:44 58° 5' 51" N  12° 2' 50" W  View metadata report for BODC series reference number 129197
1292041978-08-18 12:46 58° 5' 51" N  12° 2' 50" W  View metadata report for BODC series reference number 129204
1292161978-08-18 12:48 58° 5' 51" N  12° 2' 50" W  View metadata report for BODC series reference number 129216
1292281978-08-18 12:50 58° 5' 51" N  12° 2' 50" W  View metadata report for BODC series reference number 129228
1292411978-08-18 12:52 58° 5' 51" N  12° 2' 50" W  View metadata report for BODC series reference number 129241
1292531978-08-18 12:54 58° 5' 51" N  12° 2' 50" W  View metadata report for BODC series reference number 129253
1292651978-08-18 12:56 58° 5' 51" N  12° 2' 50" W  View metadata report for BODC series reference number 129265
1292771978-08-18 12:58 58° 5' 51" N  12° 2' 50" W  View metadata report for BODC series reference number 129277
1292891978-08-18 13:00 58° 5' 51" N  12° 2' 50" W  View metadata report for BODC series reference number 129289
1292901978-08-18 13:02 58° 5' 51" N  12° 2' 50" W  View metadata report for BODC series reference number 129290
1293081978-08-18 13:04 58° 5' 51" N  12° 2' 50" W  View metadata report for BODC series reference number 129308
1293211978-08-18 13:06 58° 5' 51" N  12° 2' 50" W  View metadata report for BODC series reference number 129321
1293331978-08-18 13:08 58° 5' 51" N  12° 2' 50" W  View metadata report for BODC series reference number 129333
1293451978-08-18 13:10 58° 5' 51" N  12° 2' 50" W  View metadata report for BODC series reference number 129345
1293571978-08-18 13:12 58° 5' 51" N  12° 2' 50" W  View metadata report for BODC series reference number 129357
1293691978-08-18 13:14 58° 5' 51" N  12° 2' 50" W  View metadata report for BODC series reference number 129369
1293701978-08-18 13:46 58° 5' 51" N  12° 2' 50" W  View metadata report for BODC series reference number 129370
1293821978-08-18 13:48 58° 5' 51" N  12° 2' 50" W  View metadata report for BODC series reference number 129382
1128621978-07-12 08:57 58° 5' 30" N  12° 3' 1" W  View metadata report for BODC series reference number 112862
1128741978-07-12 11:59 58° 5' 30" N  12° 3' 1" W  View metadata report for BODC series reference number 112874
1128861978-07-23 09:22 58° 5' 55" N  12° 2' 49" W  View metadata report for BODC series reference number 112886
1128981978-07-23 09:27 58° 5' 55" N  12° 2' 49" W  View metadata report for BODC series reference number 112898
1129051978-07-23 15:01 58° 5' 53" N  12° 2' 53" W  View metadata report for BODC series reference number 112905
1129171978-07-23 15:06 58° 5' 53" N  12° 2' 53" W  View metadata report for BODC series reference number 112917
1129291978-07-23 15:09 58° 5' 53" N  12° 2' 53" W  View metadata report for BODC series reference number 112929
1129301978-07-23 15:13 58° 5' 53" N  12° 2' 53" W  View metadata report for BODC series reference number 112930
1129421978-07-23 15:17 58° 5' 53" N  12° 2' 53" W  View metadata report for BODC series reference number 112942
1129541978-07-23 15:21 58° 5' 53" N  12° 2' 53" W  View metadata report for BODC series reference number 112954
1129661978-07-23 15:25 58° 5' 53" N  12° 2' 53" W  View metadata report for BODC series reference number 112966
1129781978-07-23 15:29 58° 5' 53" N  12° 2' 53" W  View metadata report for BODC series reference number 112978
1129911978-07-23 15:33 58° 5' 53" N  12° 2' 53" W  View metadata report for BODC series reference number 112991
1130051978-07-23 15:37 58° 5' 53" N  12° 2' 53" W  View metadata report for BODC series reference number 113005
1130171978-07-23 15:41 58° 5' 53" N  12° 2' 53" W  View metadata report for BODC series reference number 113017
1130291978-07-23 15:45 58° 5' 53" N  12° 2' 53" W  View metadata report for BODC series reference number 113029
1130301978-07-23 15:49 58° 5' 53" N  12° 2' 53" W  View metadata report for BODC series reference number 113030
1130421978-07-23 15:53 58° 5' 53" N  12° 2' 53" W  View metadata report for BODC series reference number 113042
1130541978-07-23 15:57 58° 5' 53" N  12° 2' 53" W  View metadata report for BODC series reference number 113054
1130661978-07-23 16:01 58° 5' 53" N  12° 2' 53" W  View metadata report for BODC series reference number 113066
1130781978-07-23 16:05 58° 5' 53" N  12° 2' 53" W  View metadata report for BODC series reference number 113078
1130911978-07-23 16:09 58° 5' 53" N  12° 2' 53" W  View metadata report for BODC series reference number 113091
1131091978-07-23 16:13 58° 5' 53" N  12° 2' 53" W  View metadata report for BODC series reference number 113109
1131101978-07-23 16:17 58° 5' 53" N  12° 2' 53" W  View metadata report for BODC series reference number 113110
1131221978-07-23 16:21 58° 5' 53" N  12° 2' 53" W  View metadata report for BODC series reference number 113122
1131341978-07-23 16:25 58° 5' 53" N  12° 2' 53" W  View metadata report for BODC series reference number 113134
1131461978-07-23 16:29 58° 5' 53" N  12° 2' 53" W  View metadata report for BODC series reference number 113146
1131581978-07-23 16:33 58° 5' 53" N  12° 2' 53" W  View metadata report for BODC series reference number 113158
1131711978-07-23 16:37 58° 5' 53" N  12° 2' 53" W  View metadata report for BODC series reference number 113171
1131831978-07-23 16:41 58° 5' 53" N  12° 2' 53" W  View metadata report for BODC series reference number 113183
1131951978-07-23 16:45 58° 5' 53" N  12° 2' 53" W  View metadata report for BODC series reference number 113195
1132021978-07-23 16:49 58° 5' 53" N  12° 2' 53" W  View metadata report for BODC series reference number 113202
1132141978-07-23 16:53 58° 5' 53" N  12° 2' 53" W  View metadata report for BODC series reference number 113214
1132261978-07-23 16:57 58° 5' 53" N  12° 2' 53" W  View metadata report for BODC series reference number 113226
1132381978-07-23 18:17 58° 5' 53" N  12° 2' 53" W  View metadata report for BODC series reference number 113238
1132511978-07-23 18:45 58° 5' 53" N  12° 3' 0" W  View metadata report for BODC series reference number 113251
1132631978-07-23 18:49 58° 5' 53" N  12° 3' 0" W  View metadata report for BODC series reference number 113263
1132751978-07-23 18:53 58° 5' 53" N  12° 3' 0" W  View metadata report for BODC series reference number 113275
1132871978-07-23 18:57 58° 5' 53" N  12° 3' 0" W  View metadata report for BODC series reference number 113287
1132991978-07-23 19:01 58° 5' 53" N  12° 3' 0" W  View metadata report for BODC series reference number 113299
1133061978-07-23 19:05 58° 5' 53" N  12° 3' 0" W  View metadata report for BODC series reference number 113306
1133181978-07-23 19:09 58° 5' 53" N  12° 3' 0" W  View metadata report for BODC series reference number 113318
1133311978-07-23 19:13 58° 5' 53" N  12° 3' 0" W  View metadata report for BODC series reference number 113331
1133431978-07-23 19:17 58° 5' 53" N  12° 3' 0" W  View metadata report for BODC series reference number 113343
1133551978-07-23 19:21 58° 5' 53" N  12° 3' 0" W  View metadata report for BODC series reference number 113355
1133671978-07-23 19:25 58° 5' 53" N  12° 3' 0" W  View metadata report for BODC series reference number 113367
1133791978-07-23 19:29 58° 5' 53" N  12° 3' 0" W  View metadata report for BODC series reference number 113379
1133801978-07-23 19:33 58° 5' 53" N  12° 3' 0" W  View metadata report for BODC series reference number 113380
1133921978-07-23 19:37 58° 5' 53" N  12° 3' 0" W  View metadata report for BODC series reference number 113392
1134111978-07-23 19:41 58° 5' 53" N  12° 3' 0" W  View metadata report for BODC series reference number 113411
1134231978-07-23 19:45 58° 5' 53" N  12° 3' 0" W  View metadata report for BODC series reference number 113423
1134351978-07-23 19:49 58° 5' 53" N  12° 3' 0" W  View metadata report for BODC series reference number 113435
1134471978-07-23 19:53 58° 5' 53" N  12° 3' 0" W  View metadata report for BODC series reference number 113447
1134591978-07-23 19:57 58° 5' 53" N  12° 3' 0" W  View metadata report for BODC series reference number 113459
1134601978-07-23 21:15 58° 5' 55" N  12° 2' 48" W  View metadata report for BODC series reference number 113460
1134721978-07-24 00:00 58° 5' 53" N  12° 2' 50" W  View metadata report for BODC series reference number 113472
1134841978-07-24 03:00 58° 5' 53" N  12° 2' 50" W  View metadata report for BODC series reference number 113484
1293941978-08-18 13:50 58° 5' 51" N  12° 2' 50" W  View metadata report for BODC series reference number 129394
1294011978-08-18 13:52 58° 5' 51" N  12° 2' 50" W  View metadata report for BODC series reference number 129401
1294131978-08-18 13:54 58° 5' 51" N  12° 2' 50" W  View metadata report for BODC series reference number 129413
1294251978-08-18 13:58 58° 5' 51" N  12° 2' 50" W  View metadata report for BODC series reference number 129425
1294371978-08-18 14:00 58° 5' 51" N  12° 2' 50" W  View metadata report for BODC series reference number 129437
1294491978-08-18 14:02 58° 5' 51" N  12° 2' 50" W  View metadata report for BODC series reference number 129449
1294501978-08-18 14:04 58° 5' 51" N  12° 2' 50" W  View metadata report for BODC series reference number 129450
1294621978-08-18 14:06 58° 5' 51" N  12° 2' 50" W  View metadata report for BODC series reference number 129462
1294741978-08-18 14:08 58° 5' 51" N  12° 2' 50" W  View metadata report for BODC series reference number 129474
1294861978-08-18 14:10 58° 5' 51" N  12° 2' 50" W  View metadata report for BODC series reference number 129486
1294981978-08-18 14:12 58° 5' 51" N  12° 2' 50" W  View metadata report for BODC series reference number 129498
1295051978-08-18 14:14 58° 5' 51" N  12° 2' 50" W  View metadata report for BODC series reference number 129505
1287721978-08-18 08:14 59° 0' 0" N  12° 2' 26" W  View metadata report for BODC series reference number 128772
1287841978-08-18 08:16 59° 0' 0" N  12° 2' 26" W  View metadata report for BODC series reference number 128784
1287961978-08-18 08:18 59° 0' 0" N  12° 2' 26" W  View metadata report for BODC series reference number 128796
1288031978-08-18 08:20 59° 0' 0" N  12° 2' 26" W  View metadata report for BODC series reference number 128803
1288151978-08-18 08:22 59° 0' 0" N  12° 2' 26" W  View metadata report for BODC series reference number 128815
1288271978-08-18 08:24 59° 0' 0" N  12° 2' 26" W  View metadata report for BODC series reference number 128827
1288391978-08-18 08:48 59° 0' 0" N  12° 2' 26" W  View metadata report for BODC series reference number 128839
1288401978-08-18 08:50 59° 0' 0" N  12° 2' 26" W  View metadata report for BODC series reference number 128840
1146231978-07-25 19:29 58° 5' 59" N  12° 2' 53" W  View metadata report for BODC series reference number 114623
1146351978-07-26 00:30 58° 5' 54" N  12° 2' 53" W  View metadata report for BODC series reference number 114635
1146471978-07-26 02:57 59° 0' 0" N  12° 2' 55" W  View metadata report for BODC series reference number 114647
1146591978-07-27 00:18 59° 0' 0" N  12° 2' 53" W  View metadata report for BODC series reference number 114659
1146601978-07-27 03:10 58° 5' 58" N  12° 2' 48" W  View metadata report for BODC series reference number 114660
1146721978-07-27 06:03 58° 5' 58" N  12° 2' 48" W  View metadata report for BODC series reference number 114672
1146841978-07-27 07:28 58° 5' 58" N  12° 2' 48" W  View metadata report for BODC series reference number 114684
1146961978-07-27 09:00 59° 0' 0" N  12° 2' 49" W  View metadata report for BODC series reference number 114696
1147031978-07-27 09:18 59° 0' 0" N  12° 2' 49" W  View metadata report for BODC series reference number 114703
1147151978-07-27 09:22 59° 0' 0" N  12° 2' 49" W  View metadata report for BODC series reference number 114715
1174611978-07-30 16:05 58° 5' 55" N  12° 2' 52" W  View metadata report for BODC series reference number 117461
1174731978-07-30 16:07 58° 5' 55" N  12° 2' 52" W  View metadata report for BODC series reference number 117473
1174851978-07-30 16:09 58° 5' 55" N  12° 2' 52" W  View metadata report for BODC series reference number 117485
1174971978-07-30 16:11 58° 5' 55" N  12° 2' 52" W  View metadata report for BODC series reference number 117497
1175041978-07-30 16:13 58° 5' 55" N  12° 2' 52" W  View metadata report for BODC series reference number 117504
1175161978-07-30 16:15 58° 5' 55" N  12° 2' 52" W  View metadata report for BODC series reference number 117516
1175281978-07-30 16:17 58° 5' 55" N  12° 2' 52" W  View metadata report for BODC series reference number 117528
1175411978-07-30 16:19 58° 5' 55" N  12° 2' 52" W  View metadata report for BODC series reference number 117541
1175531978-07-30 16:21 58° 5' 55" N  12° 2' 52" W  View metadata report for BODC series reference number 117553
1175651978-07-30 16:23 58° 5' 55" N  12° 2' 52" W  View metadata report for BODC series reference number 117565
1175771978-07-30 16:25 58° 5' 55" N  12° 2' 52" W  View metadata report for BODC series reference number 117577
1175891978-07-30 16:27 58° 5' 55" N  12° 2' 52" W  View metadata report for BODC series reference number 117589
1175901978-07-30 16:29 58° 5' 55" N  12° 2' 52" W  View metadata report for BODC series reference number 117590
1176081978-07-30 16:31 58° 5' 55" N  12° 2' 52" W  View metadata report for BODC series reference number 117608
1176211978-07-30 16:33 58° 5' 55" N  12° 2' 52" W  View metadata report for BODC series reference number 117621
1176331978-07-30 16:35 58° 5' 55" N  12° 2' 52" W  View metadata report for BODC series reference number 117633
1176451978-07-30 16:37 58° 5' 55" N  12° 2' 52" W  View metadata report for BODC series reference number 117645
1176571978-07-30 16:39 58° 5' 55" N  12° 2' 52" W  View metadata report for BODC series reference number 117657
1176691978-07-30 16:41 58° 5' 55" N  12° 2' 52" W  View metadata report for BODC series reference number 117669
1176701978-07-30 16:43 58° 5' 55" N  12° 2' 52" W  View metadata report for BODC series reference number 117670
1176821978-07-30 16:45 58° 5' 55" N  12° 2' 52" W  View metadata report for BODC series reference number 117682
1176941978-07-30 16:47 58° 5' 55" N  12° 2' 52" W  View metadata report for BODC series reference number 117694
1177011978-07-30 16:49 58° 5' 55" N  12° 2' 52" W  View metadata report for BODC series reference number 117701
1177131978-07-30 16:51 58° 5' 55" N  12° 2' 52" W  View metadata report for BODC series reference number 117713
1177251978-07-30 16:53 58° 5' 55" N  12° 2' 52" W  View metadata report for BODC series reference number 117725
1177371978-07-30 16:55 58° 5' 55" N  12° 2' 52" W  View metadata report for BODC series reference number 117737
1177491978-07-30 16:57 58° 5' 55" N  12° 2' 52" W  View metadata report for BODC series reference number 117749
1373701978-08-22 19:06 58° 5' 49" N  12° 3' 1" W  View metadata report for BODC series reference number 137370
1373821978-08-22 19:08 58° 5' 49" N  12° 3' 1" W  View metadata report for BODC series reference number 137382
1373941978-08-22 19:10 58° 5' 49" N  12° 3' 1" W  View metadata report for BODC series reference number 137394
1374011978-08-22 19:12 58° 5' 49" N  12° 3' 1" W  View metadata report for BODC series reference number 137401
1374131978-08-22 19:14 58° 5' 49" N  12° 3' 1" W  View metadata report for BODC series reference number 137413
1374251978-08-22 19:16 58° 5' 49" N  12° 3' 1" W  View metadata report for BODC series reference number 137425
1374371978-08-22 19:18 58° 5' 49" N  12° 3' 1" W  View metadata report for BODC series reference number 137437
1374491978-08-22 19:52 58° 5' 57" N  12° 2' 52" W  View metadata report for BODC series reference number 137449
1374501978-08-22 19:54 58° 5' 57" N  12° 2' 52" W  View metadata report for BODC series reference number 137450
1374621978-08-22 19:56 58° 5' 57" N  12° 2' 52" W  View metadata report for BODC series reference number 137462
1374741978-08-22 19:58 58° 5' 57" N  12° 2' 52" W  View metadata report for BODC series reference number 137474
1374861978-08-22 20:00 58° 5' 57" N  12° 2' 52" W  View metadata report for BODC series reference number 137486
1374981978-08-22 20:02 58° 5' 57" N  12° 2' 52" W  View metadata report for BODC series reference number 137498
1375051978-08-22 20:04 58° 5' 57" N  12° 2' 52" W  View metadata report for BODC series reference number 137505
1375171978-08-22 20:06 58° 5' 57" N  12° 2' 52" W  View metadata report for BODC series reference number 137517
1375291978-08-22 20:08 58° 5' 57" N  12° 2' 52" W  View metadata report for BODC series reference number 137529
1375301978-08-22 20:10 58° 5' 57" N  12° 2' 52" W  View metadata report for BODC series reference number 137530
1375421978-08-22 20:12 58° 5' 57" N  12° 2' 52" W  View metadata report for BODC series reference number 137542
1375541978-08-22 20:14 58° 5' 57" N  12° 2' 52" W  View metadata report for BODC series reference number 137554
1375661978-08-22 20:16 58° 5' 57" N  12° 2' 52" W  View metadata report for BODC series reference number 137566
1375781978-08-22 20:18 58° 5' 57" N  12° 2' 52" W  View metadata report for BODC series reference number 137578
1375911978-08-22 20:20 58° 5' 57" N  12° 2' 52" W  View metadata report for BODC series reference number 137591
1376091978-08-22 20:22 58° 5' 57" N  12° 2' 52" W  View metadata report for BODC series reference number 137609
1376101978-08-22 20:48 58° 5' 57" N  12° 2' 52" W  View metadata report for BODC series reference number 137610
1376221978-08-22 20:50 58° 5' 57" N  12° 2' 52" W  View metadata report for BODC series reference number 137622
1376341978-08-22 20:52 58° 5' 57" N  12° 2' 52" W  View metadata report for BODC series reference number 137634
1376461978-08-22 20:54 58° 5' 57" N  12° 2' 52" W  View metadata report for BODC series reference number 137646
1376581978-08-22 20:56 58° 5' 57" N  12° 2' 52" W  View metadata report for BODC series reference number 137658
1376711978-08-22 20:58 58° 5' 57" N  12° 2' 52" W  View metadata report for BODC series reference number 137671
1376831978-08-22 21:00 58° 5' 57" N  12° 2' 52" W  View metadata report for BODC series reference number 137683
1376951978-08-22 21:02 58° 5' 57" N  12° 2' 52" W  View metadata report for BODC series reference number 137695
1377021978-08-22 21:04 58° 5' 57" N  12° 2' 52" W  View metadata report for BODC series reference number 137702
1377141978-08-22 21:06 58° 5' 57" N  12° 2' 52" W  View metadata report for BODC series reference number 137714
1377261978-08-22 21:08 58° 5' 57" N  12° 2' 52" W  View metadata report for BODC series reference number 137726
1369931978-08-22 17:00 58° 5' 53" N  12° 2' 57" W  View metadata report for BODC series reference number 136993
1370071978-08-22 17:02 58° 5' 53" N  12° 2' 57" W  View metadata report for BODC series reference number 137007
1370191978-08-22 17:04 58° 5' 53" N  12° 2' 57" W  View metadata report for BODC series reference number 137019
1370201978-08-22 17:06 58° 5' 53" N  12° 2' 57" W  View metadata report for BODC series reference number 137020
1370321978-08-22 17:08 58° 5' 53" N  12° 2' 57" W  View metadata report for BODC series reference number 137032
1370441978-08-22 17:10 58° 5' 53" N  12° 2' 57" W  View metadata report for BODC series reference number 137044
1370561978-08-22 17:12 58° 5' 53" N  12° 2' 57" W  View metadata report for BODC series reference number 137056
1370681978-08-22 17:14 58° 5' 53" N  12° 2' 57" W  View metadata report for BODC series reference number 137068
1370811978-08-22 17:16 58° 5' 53" N  12° 2' 57" W  View metadata report for BODC series reference number 137081
1370931978-08-22 17:48 58° 5' 49" N  12° 3' 1" W  View metadata report for BODC series reference number 137093
1371001978-08-22 17:50 58° 5' 49" N  12° 3' 1" W  View metadata report for BODC series reference number 137100
1371121978-08-22 17:52 58° 5' 49" N  12° 3' 1" W  View metadata report for BODC series reference number 137112
1371241978-08-22 17:54 58° 5' 49" N  12° 3' 1" W  View metadata report for BODC series reference number 137124
1371361978-08-22 17:56 58° 5' 49" N  12° 3' 1" W  View metadata report for BODC series reference number 137136
1371481978-08-22 17:58 58° 5' 49" N  12° 3' 1" W  View metadata report for BODC series reference number 137148
1371611978-08-22 18:00 58° 5' 49" N  12° 3' 1" W  View metadata report for BODC series reference number 137161
1371731978-08-22 18:02 58° 5' 49" N  12° 3' 1" W  View metadata report for BODC series reference number 137173
1371851978-08-22 18:04 58° 5' 49" N  12° 3' 1" W  View metadata report for BODC series reference number 137185
1371971978-08-22 18:06 58° 5' 49" N  12° 3' 1" W  View metadata report for BODC series reference number 137197
1372041978-08-22 18:08 58° 5' 49" N  12° 3' 1" W  View metadata report for BODC series reference number 137204
1372161978-08-22 18:10 58° 5' 49" N  12° 3' 1" W  View metadata report for BODC series reference number 137216
1372281978-08-22 18:12 58° 5' 49" N  12° 3' 1" W  View metadata report for BODC series reference number 137228
1372411978-08-22 18:14 58° 5' 49" N  12° 3' 1" W  View metadata report for BODC series reference number 137241
1134961978-07-24 06:41 58° 5' 53" N  12° 2' 50" W  View metadata report for BODC series reference number 113496
1135031978-07-24 07:38 58° 5' 53" N  12° 2' 50" W  View metadata report for BODC series reference number 113503
1135151978-07-24 09:31 58° 5' 53" N  12° 2' 50" W  View metadata report for BODC series reference number 113515
1135271978-07-24 09:52 58° 5' 53" N  12° 2' 50" W  View metadata report for BODC series reference number 113527
1135391978-07-24 09:55 58° 5' 53" N  12° 2' 50" W  View metadata report for BODC series reference number 113539
1135401978-07-24 10:00 58° 5' 53" N  12° 2' 50" W  View metadata report for BODC series reference number 113540
1135521978-07-24 10:04 58° 5' 53" N  12° 2' 50" W  View metadata report for BODC series reference number 113552
1135641978-07-24 10:08 58° 5' 53" N  12° 2' 50" W  View metadata report for BODC series reference number 113564
1135761978-07-24 10:12 58° 5' 53" N  12° 2' 50" W  View metadata report for BODC series reference number 113576
1135881978-07-24 10:16 58° 5' 53" N  12° 2' 50" W  View metadata report for BODC series reference number 113588
1136071978-07-24 10:20 58° 5' 53" N  12° 2' 50" W  View metadata report for BODC series reference number 113607
1136191978-07-24 10:24 58° 5' 53" N  12° 2' 50" W  View metadata report for BODC series reference number 113619
1136201978-07-24 10:28 58° 5' 53" N  12° 2' 50" W  View metadata report for BODC series reference number 113620
1136321978-07-24 10:32 58° 5' 53" N  12° 2' 50" W  View metadata report for BODC series reference number 113632
1136441978-07-24 10:36 58° 5' 53" N  12° 2' 50" W  View metadata report for BODC series reference number 113644
1136561978-07-24 10:40 58° 5' 53" N  12° 2' 50" W  View metadata report for BODC series reference number 113656
1136681978-07-24 10:44 58° 5' 53" N  12° 2' 50" W  View metadata report for BODC series reference number 113668
1136811978-07-24 10:48 58° 5' 53" N  12° 2' 50" W  View metadata report for BODC series reference number 113681
1136931978-07-24 10:52 58° 5' 53" N  12° 2' 50" W  View metadata report for BODC series reference number 113693
1137001978-07-24 10:56 58° 5' 53" N  12° 2' 50" W  View metadata report for BODC series reference number 113700
1137121978-07-24 11:00 58° 5' 53" N  12° 2' 50" W  View metadata report for BODC series reference number 113712
1137241978-07-24 11:04 58° 5' 53" N  12° 2' 50" W  View metadata report for BODC series reference number 113724
1137361978-07-24 12:09 58° 5' 53" N  12° 2' 50" W  View metadata report for BODC series reference number 113736
1137481978-07-24 15:44 58° 5' 52" N  12° 2' 53" W  View metadata report for BODC series reference number 113748
1137611978-07-24 16:05 58° 5' 53" N  12° 2' 57" W  View metadata report for BODC series reference number 113761
1137731978-07-24 16:09 58° 5' 53" N  12° 2' 57" W  View metadata report for BODC series reference number 113773
1137851978-07-24 16:13 58° 5' 53" N  12° 2' 57" W  View metadata report for BODC series reference number 113785
1137971978-07-24 16:19 58° 5' 53" N  12° 2' 57" W  View metadata report for BODC series reference number 113797
1138041978-07-24 16:23 58° 5' 53" N  12° 2' 57" W  View metadata report for BODC series reference number 113804
1138161978-07-24 16:27 58° 5' 53" N  12° 2' 57" W  View metadata report for BODC series reference number 113816
1138281978-07-24 16:31 58° 5' 53" N  12° 2' 57" W  View metadata report for BODC series reference number 113828
1138411978-07-24 16:35 58° 5' 53" N  12° 2' 57" W  View metadata report for BODC series reference number 113841
1138531978-07-24 16:39 58° 5' 53" N  12° 2' 57" W  View metadata report for BODC series reference number 113853
1138651978-07-24 16:43 58° 5' 53" N  12° 2' 57" W  View metadata report for BODC series reference number 113865
1138771978-07-24 16:47 58° 5' 53" N  12° 2' 57" W  View metadata report for BODC series reference number 113877
1138891978-07-24 16:51 58° 5' 53" N  12° 2' 57" W  View metadata report for BODC series reference number 113889
1138901978-07-24 16:55 58° 5' 53" N  12° 2' 57" W  View metadata report for BODC series reference number 113890
1139081978-07-24 16:59 58° 5' 53" N  12° 2' 57" W  View metadata report for BODC series reference number 113908
1139211978-07-24 17:03 58° 5' 53" N  12° 2' 57" W  View metadata report for BODC series reference number 113921
1139331978-07-24 17:07 58° 5' 53" N  12° 2' 57" W  View metadata report for BODC series reference number 113933
1139451978-07-24 17:11 58° 5' 53" N  12° 2' 57" W  View metadata report for BODC series reference number 113945
1139571978-07-24 17:15 58° 5' 53" N  12° 2' 57" W  View metadata report for BODC series reference number 113957
1139691978-07-24 17:19 58° 5' 53" N  12° 2' 57" W  View metadata report for BODC series reference number 113969
1139701978-07-24 18:15 58° 5' 53" N  12° 2' 57" W  View metadata report for BODC series reference number 113970
1139821978-07-24 19:29 58° 5' 53" N  12° 2' 57" W  View metadata report for BODC series reference number 113982
1139941978-07-24 21:02 58° 5' 53" N  12° 2' 57" W  View metadata report for BODC series reference number 113994
1140081978-07-26 00:12 58° 5' 48" N  12° 2' 55" W  View metadata report for BODC series reference number 114008
1140211978-07-25 02:57 58° 5' 53" N  12° 2' 51" W  View metadata report for BODC series reference number 114021
1140331978-07-25 06:33 58° 5' 58" N  12° 2' 48" W  View metadata report for BODC series reference number 114033
1140451978-07-25 07:30 58° 5' 56" N  12° 2' 57" W  View metadata report for BODC series reference number 114045
1140571978-07-25 09:00 58° 5' 55" N  12° 3' 1" W  View metadata report for BODC series reference number 114057
1140691978-07-25 09:22 58° 5' 53" N  12° 3' 0" W  View metadata report for BODC series reference number 114069
1140701978-07-25 09:26 58° 5' 53" N  12° 3' 0" W  View metadata report for BODC series reference number 114070
1140821978-07-25 09:30 58° 5' 53" N  12° 3' 0" W  View metadata report for BODC series reference number 114082
1140941978-07-25 09:34 58° 5' 53" N  12° 3' 0" W  View metadata report for BODC series reference number 114094
1141011978-07-25 09:38 58° 5' 53" N  12° 3' 0" W  View metadata report for BODC series reference number 114101
1141131978-07-25 09:42 58° 5' 53" N  12° 3' 0" W  View metadata report for BODC series reference number 114113
1177501978-07-30 16:59 58° 5' 55" N  12° 2' 52" W  View metadata report for BODC series reference number 117750
1177621978-07-30 18:01 58° 5' 55" N  12° 2' 54" W  View metadata report for BODC series reference number 117762
1177741978-07-31 10:10 58° 5' 50" N  12° 2' 55" W  View metadata report for BODC series reference number 117774
1177861978-07-31 12:01 58° 5' 53" N  12° 2' 53" W  View metadata report for BODC series reference number 117786
1177981978-07-31 21:32 58° 5' 50" N  12° 2' 52" W  View metadata report for BODC series reference number 117798
1178051978-08-01 00:24 58° 5' 53" N  12° 2' 57" W  View metadata report for BODC series reference number 117805
1178171978-08-01 03:12 58° 5' 52" N  12° 2' 58" W  View metadata report for BODC series reference number 117817
1178291978-08-01 06:33 58° 5' 53" N  12° 2' 52" W  View metadata report for BODC series reference number 117829
1178301978-08-01 15:13 58° 5' 53" N  12° 2' 52" W  View metadata report for BODC series reference number 117830
1178421978-08-01 15:26 58° 5' 53" N  12° 2' 52" W  View metadata report for BODC series reference number 117842
1178541978-08-01 15:28 58° 5' 53" N  12° 2' 52" W  View metadata report for BODC series reference number 117854
1178661978-08-01 15:30 58° 5' 53" N  12° 2' 52" W  View metadata report for BODC series reference number 117866
1178781978-08-01 15:32 58° 5' 53" N  12° 2' 52" W  View metadata report for BODC series reference number 117878
1178911978-08-01 15:34 58° 5' 53" N  12° 2' 52" W  View metadata report for BODC series reference number 117891
1179091978-08-01 15:36 58° 5' 53" N  12° 2' 52" W  View metadata report for BODC series reference number 117909
1179101978-08-01 15:38 58° 5' 53" N  12° 2' 52" W  View metadata report for BODC series reference number 117910
1179221978-08-01 15:40 58° 5' 53" N  12° 2' 52" W  View metadata report for BODC series reference number 117922
1179341978-08-01 15:42 58° 5' 53" N  12° 2' 52" W  View metadata report for BODC series reference number 117934
1179461978-08-01 15:44 58° 5' 53" N  12° 2' 52" W  View metadata report for BODC series reference number 117946
1179581978-08-01 15:46 58° 5' 53" N  12° 2' 52" W  View metadata report for BODC series reference number 117958
1179711978-08-01 15:48 58° 5' 53" N  12° 2' 52" W  View metadata report for BODC series reference number 117971
1179831978-08-01 15:50 58° 5' 53" N  12° 2' 52" W  View metadata report for BODC series reference number 117983
1179951978-08-01 15:52 58° 5' 53" N  12° 2' 52" W  View metadata report for BODC series reference number 117995
1180091978-08-01 15:54 58° 5' 53" N  12° 2' 52" W  View metadata report for BODC series reference number 118009
1180101978-08-01 15:56 58° 5' 53" N  12° 2' 52" W  View metadata report for BODC series reference number 118010
1180221978-08-01 15:58 58° 5' 53" N  12° 2' 52" W  View metadata report for BODC series reference number 118022
1180341978-08-01 16:00 58° 5' 53" N  12° 2' 52" W  View metadata report for BODC series reference number 118034
1180461978-08-01 16:02 58° 5' 53" N  12° 2' 52" W  View metadata report for BODC series reference number 118046
1180581978-08-01 16:04 58° 5' 53" N  12° 2' 52" W  View metadata report for BODC series reference number 118058
1180711978-08-01 16:06 58° 5' 53" N  12° 2' 52" W  View metadata report for BODC series reference number 118071
1180831978-08-01 16:08 58° 5' 53" N  12° 2' 52" W  View metadata report for BODC series reference number 118083
1180951978-08-01 16:10 58° 5' 53" N  12° 2' 52" W  View metadata report for BODC series reference number 118095
1181021978-08-01 16:12 58° 5' 53" N  12° 2' 52" W  View metadata report for BODC series reference number 118102
1181141978-08-01 16:14 58° 5' 53" N  12° 2' 52" W  View metadata report for BODC series reference number 118114
1181261978-08-01 16:16 58° 5' 53" N  12° 2' 52" W  View metadata report for BODC series reference number 118126
1181381978-08-01 16:18 58° 5' 53" N  12° 2' 52" W  View metadata report for BODC series reference number 118138
1181511978-08-01 16:20 58° 5' 53" N  12° 2' 52" W  View metadata report for BODC series reference number 118151
1181631978-08-01 16:22 58° 5' 53" N  12° 2' 52" W  View metadata report for BODC series reference number 118163
1181751978-08-01 16:24 58° 5' 53" N  12° 2' 52" W  View metadata report for BODC series reference number 118175
1181871978-08-01 16:26 58° 5' 53" N  12° 2' 52" W  View metadata report for BODC series reference number 118187
1181991978-08-01 16:28 58° 5' 53" N  12° 2' 52" W  View metadata report for BODC series reference number 118199
1182061978-08-01 16:30 58° 5' 53" N  12° 2' 52" W  View metadata report for BODC series reference number 118206
1182181978-08-01 16:32 58° 5' 53" N  12° 2' 52" W  View metadata report for BODC series reference number 118218
1182311978-08-01 16:34 58° 5' 53" N  12° 2' 52" W  View metadata report for BODC series reference number 118231
1182431978-08-01 16:36 58° 5' 53" N  12° 2' 52" W  View metadata report for BODC series reference number 118243
1182551978-08-01 16:38 58° 5' 53" N  12° 2' 52" W  View metadata report for BODC series reference number 118255
1182671978-08-01 16:40 58° 5' 53" N  12° 2' 52" W  View metadata report for BODC series reference number 118267
1182791978-08-01 16:42 58° 5' 53" N  12° 2' 52" W  View metadata report for BODC series reference number 118279
1182801978-08-01 16:44 58° 5' 53" N  12° 2' 52" W  View metadata report for BODC series reference number 118280
1182921978-08-01 16:46 58° 5' 53" N  12° 2' 52" W  View metadata report for BODC series reference number 118292
1183111978-08-01 16:48 58° 5' 53" N  12° 2' 52" W  View metadata report for BODC series reference number 118311
1183231978-08-01 16:50 58° 5' 53" N  12° 2' 52" W  View metadata report for BODC series reference number 118323
1183351978-08-01 16:52 58° 5' 53" N  12° 2' 52" W  View metadata report for BODC series reference number 118335
1183471978-08-01 16:54 58° 5' 53" N  12° 2' 52" W  View metadata report for BODC series reference number 118347
1183591978-08-01 16:56 58° 5' 53" N  12° 2' 52" W  View metadata report for BODC series reference number 118359
1183601978-08-01 16:58 58° 5' 53" N  12° 2' 52" W  View metadata report for BODC series reference number 118360
1183721978-08-01 17:00 58° 5' 53" N  12° 2' 52" W  View metadata report for BODC series reference number 118372
1285261978-08-18 06:58 59° 0' 0" N  12° 2' 26" W  View metadata report for BODC series reference number 128526
1285381978-08-18 07:00 59° 0' 0" N  12° 2' 26" W  View metadata report for BODC series reference number 128538
1285511978-08-18 07:02 59° 0' 0" N  12° 2' 26" W  View metadata report for BODC series reference number 128551
1285631978-08-18 07:04 59° 0' 0" N  12° 2' 26" W  View metadata report for BODC series reference number 128563
1285751978-08-18 07:06 59° 0' 0" N  12° 2' 26" W  View metadata report for BODC series reference number 128575
1285871978-08-18 07:08 59° 0' 0" N  12° 2' 26" W  View metadata report for BODC series reference number 128587
1285991978-08-18 07:10 59° 0' 0" N  12° 2' 26" W  View metadata report for BODC series reference number 128599
1286061978-08-18 07:12 59° 0' 0" N  12° 2' 26" W  View metadata report for BODC series reference number 128606
1286181978-08-18 07:14 59° 0' 0" N  12° 2' 26" W  View metadata report for BODC series reference number 128618
1286311978-08-18 07:16 59° 0' 0" N  12° 2' 26" W  View metadata report for BODC series reference number 128631
1286431978-08-18 07:18 59° 0' 0" N  12° 2' 26" W  View metadata report for BODC series reference number 128643
1286551978-08-18 07:20 59° 0' 0" N  12° 2' 26" W  View metadata report for BODC series reference number 128655
1286671978-08-18 07:54 59° 0' 0" N  12° 2' 26" W  View metadata report for BODC series reference number 128667
1286791978-08-18 07:56 59° 0' 0" N  12° 2' 26" W  View metadata report for BODC series reference number 128679
1286801978-08-18 07:58 59° 0' 0" N  12° 2' 26" W  View metadata report for BODC series reference number 128680
1286921978-08-18 08:00 59° 0' 0" N  12° 2' 26" W  View metadata report for BODC series reference number 128692
1287111978-08-18 08:02 59° 0' 0" N  12° 2' 26" W  View metadata report for BODC series reference number 128711
1287231978-08-18 08:04 59° 0' 0" N  12° 2' 26" W  View metadata report for BODC series reference number 128723
1287351978-08-18 08:06 59° 0' 0" N  12° 2' 26" W  View metadata report for BODC series reference number 128735
1287471978-08-18 08:08 59° 0' 0" N  12° 2' 26" W  View metadata report for BODC series reference number 128747
1287591978-08-18 08:10 59° 0' 0" N  12° 2' 26" W  View metadata report for BODC series reference number 128759
1287601978-08-18 08:12 59° 0' 0" N  12° 2' 26" W  View metadata report for BODC series reference number 128760
1280281978-08-18 04:00 59° 0' 0" N  12° 2' 26" W  View metadata report for BODC series reference number 128028
1280411978-08-18 04:02 59° 0' 0" N  12° 2' 26" W  View metadata report for BODC series reference number 128041
1280531978-08-18 04:04 59° 0' 0" N  12° 2' 26" W  View metadata report for BODC series reference number 128053
1280651978-08-18 04:06 59° 0' 0" N  12° 2' 26" W  View metadata report for BODC series reference number 128065
1280771978-08-18 04:08 59° 0' 0" N  12° 2' 26" W  View metadata report for BODC series reference number 128077
1280891978-08-18 04:10 59° 0' 0" N  12° 2' 26" W  View metadata report for BODC series reference number 128089
1280901978-08-18 04:12 59° 0' 0" N  12° 2' 26" W  View metadata report for BODC series reference number 128090
1281081978-08-18 04:14 59° 0' 0" N  12° 2' 26" W  View metadata report for BODC series reference number 128108
1281211978-08-18 04:16 59° 0' 0" N  12° 2' 26" W  View metadata report for BODC series reference number 128121
1281331978-08-18 04:18 59° 0' 0" N  12° 2' 26" W  View metadata report for BODC series reference number 128133
1281451978-08-18 04:48 59° 0' 0" N  12° 2' 26" W  View metadata report for BODC series reference number 128145
1281571978-08-18 04:50 59° 0' 0" N  12° 2' 26" W  View metadata report for BODC series reference number 128157
1281691978-08-18 04:52 59° 0' 0" N  12° 2' 26" W  View metadata report for BODC series reference number 128169
1281701978-08-18 04:54 59° 0' 0" N  12° 2' 26" W  View metadata report for BODC series reference number 128170
1281821978-08-18 04:56 59° 0' 0" N  12° 2' 26" W  View metadata report for BODC series reference number 128182
1281941978-08-18 04:58 59° 0' 0" N  12° 2' 26" W  View metadata report for BODC series reference number 128194
1282011978-08-18 05:00 59° 0' 0" N  12° 2' 26" W  View metadata report for BODC series reference number 128201
1282131978-08-18 05:02 59° 0' 0" N  12° 2' 26" W  View metadata report for BODC series reference number 128213
1282251978-08-18 05:04 59° 0' 0" N  12° 2' 26" W  View metadata report for BODC series reference number 128225
1282371978-08-18 05:06 59° 0' 0" N  12° 2' 26" W  View metadata report for BODC series reference number 128237
1282491978-08-18 05:08 59° 0' 0" N  12° 2' 26" W  View metadata report for BODC series reference number 128249
1282501978-08-18 05:10 59° 0' 0" N  12° 2' 26" W  View metadata report for BODC series reference number 128250
1282621978-08-18 05:12 59° 0' 0" N  12° 2' 26" W  View metadata report for BODC series reference number 128262
1282741978-08-18 05:14 59° 0' 0" N  12° 2' 26" W  View metadata report for BODC series reference number 128274
1282861978-08-18 05:16 59° 0' 0" N  12° 2' 26" W  View metadata report for BODC series reference number 128286
1282981978-08-18 05:18 59° 0' 0" N  12° 2' 26" W  View metadata report for BODC series reference number 128298
1283051978-08-18 05:58 59° 0' 0" N  12° 2' 26" W  View metadata report for BODC series reference number 128305
1283171978-08-18 06:00 59° 0' 0" N  12° 2' 26" W  View metadata report for BODC series reference number 128317
1283291978-08-18 06:02 59° 0' 0" N  12° 2' 26" W  View metadata report for BODC series reference number 128329
1283301978-08-18 06:04 59° 0' 0" N  12° 2' 26" W  View metadata report for BODC series reference number 128330
1283421978-08-18 06:06 59° 0' 0" N  12° 2' 26" W  View metadata report for BODC series reference number 128342
1283541978-08-18 06:08 59° 0' 0" N  12° 2' 26" W  View metadata report for BODC series reference number 128354
1283661978-08-18 06:10 59° 0' 0" N  12° 2' 26" W  View metadata report for BODC series reference number 128366
1283781978-08-18 06:12 59° 0' 0" N  12° 2' 26" W  View metadata report for BODC series reference number 128378
1276401978-08-18 01:52 59° 0' 0" N  12° 2' 37" W  View metadata report for BODC series reference number 127640
1276521978-08-18 01:54 59° 0' 0" N  12° 2' 37" W  View metadata report for BODC series reference number 127652
1372531978-08-22 18:16 58° 5' 49" N  12° 3' 1" W  View metadata report for BODC series reference number 137253
1372651978-08-22 18:18 58° 5' 49" N  12° 3' 1" W  View metadata report for BODC series reference number 137265
1372771978-08-22 18:48 58° 5' 49" N  12° 3' 1" W  View metadata report for BODC series reference number 137277
1372891978-08-22 18:50 58° 5' 49" N  12° 3' 1" W  View metadata report for BODC series reference number 137289
1372901978-08-22 18:52 58° 5' 49" N  12° 3' 1" W  View metadata report for BODC series reference number 137290
1373081978-08-22 18:54 58° 5' 49" N  12° 3' 1" W  View metadata report for BODC series reference number 137308
1373211978-08-22 18:56 58° 5' 49" N  12° 3' 1" W  View metadata report for BODC series reference number 137321
1373331978-08-22 18:58 58° 5' 49" N  12° 3' 1" W  View metadata report for BODC series reference number 137333
1373451978-08-22 19:00 58° 5' 49" N  12° 3' 1" W  View metadata report for BODC series reference number 137345
1373571978-08-22 19:02 58° 5' 49" N  12° 3' 1" W  View metadata report for BODC series reference number 137357
1373691978-08-22 19:04 58° 5' 49" N  12° 3' 1" W  View metadata report for BODC series reference number 137369
1366181978-08-22 15:00 58° 5' 57" N  12° 2' 57" W  View metadata report for BODC series reference number 136618
1366311978-08-22 15:02 58° 5' 57" N  12° 2' 57" W  View metadata report for BODC series reference number 136631
1366431978-08-22 15:04 58° 5' 57" N  12° 2' 57" W  View metadata report for BODC series reference number 136643
1366551978-08-22 15:06 58° 5' 57" N  12° 2' 57" W  View metadata report for BODC series reference number 136655
1366671978-08-22 15:08 58° 5' 57" N  12° 2' 57" W  View metadata report for BODC series reference number 136667
1366791978-08-22 15:10 58° 5' 57" N  12° 2' 57" W  View metadata report for BODC series reference number 136679
1366801978-08-22 15:12 58° 5' 57" N  12° 2' 57" W  View metadata report for BODC series reference number 136680
1366921978-08-22 15:14 58° 5' 57" N  12° 2' 57" W  View metadata report for BODC series reference number 136692
1367111978-08-22 15:16 58° 5' 57" N  12° 2' 57" W  View metadata report for BODC series reference number 136711
1367231978-08-22 15:18 58° 5' 57" N  12° 2' 57" W  View metadata report for BODC series reference number 136723
1367351978-08-22 15:20 58° 5' 57" N  12° 2' 57" W  View metadata report for BODC series reference number 136735
1367471978-08-22 15:50 58° 5' 53" N  12° 2' 57" W  View metadata report for BODC series reference number 136747
1367591978-08-22 15:52 58° 5' 53" N  12° 2' 57" W  View metadata report for BODC series reference number 136759
1367601978-08-22 15:54 58° 5' 53" N  12° 2' 57" W  View metadata report for BODC series reference number 136760
1367721978-08-22 15:56 58° 5' 53" N  12° 2' 57" W  View metadata report for BODC series reference number 136772
1367841978-08-22 15:58 58° 5' 53" N  12° 2' 57" W  View metadata report for BODC series reference number 136784
1367961978-08-22 16:00 58° 5' 53" N  12° 2' 57" W  View metadata report for BODC series reference number 136796
1368031978-08-22 16:02 58° 5' 53" N  12° 2' 57" W  View metadata report for BODC series reference number 136803
1368151978-08-22 16:04 58° 5' 53" N  12° 2' 57" W  View metadata report for BODC series reference number 136815
1368271978-08-22 16:06 58° 5' 53" N  12° 2' 57" W  View metadata report for BODC series reference number 136827
1368391978-08-22 16:08 58° 5' 53" N  12° 2' 57" W  View metadata report for BODC series reference number 136839
1368401978-08-22 16:10 58° 5' 53" N  12° 2' 57" W  View metadata report for BODC series reference number 136840
1368521978-08-22 16:12 58° 5' 53" N  12° 2' 57" W  View metadata report for BODC series reference number 136852
1368641978-08-22 16:14 58° 5' 53" N  12° 2' 57" W  View metadata report for BODC series reference number 136864
1368761978-08-22 16:16 58° 5' 53" N  12° 2' 57" W  View metadata report for BODC series reference number 136876
1368881978-08-22 16:18 58° 5' 53" N  12° 2' 57" W  View metadata report for BODC series reference number 136888
1369071978-08-22 16:20 58° 5' 53" N  12° 2' 57" W  View metadata report for BODC series reference number 136907
1369191978-08-22 16:46 58° 5' 53" N  12° 2' 57" W  View metadata report for BODC series reference number 136919
1369201978-08-22 16:48 58° 5' 53" N  12° 2' 57" W  View metadata report for BODC series reference number 136920
1369321978-08-22 16:50 58° 5' 53" N  12° 2' 57" W  View metadata report for BODC series reference number 136932
1369441978-08-22 16:52 58° 5' 53" N  12° 2' 57" W  View metadata report for BODC series reference number 136944
1369561978-08-22 16:54 58° 5' 53" N  12° 2' 57" W  View metadata report for BODC series reference number 136956
1369681978-08-22 16:56 58° 5' 53" N  12° 2' 57" W  View metadata report for BODC series reference number 136968
1369811978-08-22 16:58 58° 5' 53" N  12° 2' 57" W  View metadata report for BODC series reference number 136981
1362491978-08-22 13:20 59° 0' 6" N  12° 3' 9" W  View metadata report for BODC series reference number 136249
1362501978-08-22 13:22 59° 0' 6" N  12° 3' 9" W  View metadata report for BODC series reference number 136250
1362621978-08-22 13:24 59° 0' 6" N  12° 3' 9" W  View metadata report for BODC series reference number 136262
1362741978-08-22 13:26 59° 0' 6" N  12° 3' 9" W  View metadata report for BODC series reference number 136274
1362861978-08-22 13:28 59° 0' 6" N  12° 3' 9" W  View metadata report for BODC series reference number 136286
1362981978-08-22 13:30 59° 0' 6" N  12° 3' 9" W  View metadata report for BODC series reference number 136298
1363051978-08-22 13:32 59° 0' 6" N  12° 3' 9" W  View metadata report for BODC series reference number 136305
1489211978-08-26 09:36 58° 5' 47" N  12° 2' 44" W  View metadata report for BODC series reference number 148921
1489331978-08-26 09:38 58° 5' 47" N  12° 2' 44" W  View metadata report for BODC series reference number 148933
1489451978-08-26 09:40 58° 5' 47" N  12° 2' 44" W  View metadata report for BODC series reference number 148945
1489571978-08-26 09:42 58° 5' 47" N  12° 2' 44" W  View metadata report for BODC series reference number 148957
1482021978-08-26 04:01 58° 5' 46" N  12° 2' 37" W  View metadata report for BODC series reference number 148202
1141251978-07-25 09:46 58° 5' 53" N  12° 3' 0" W  View metadata report for BODC series reference number 114125
1141371978-07-25 09:50 58° 5' 53" N  12° 3' 0" W  View metadata report for BODC series reference number 114137
1141491978-07-25 09:54 58° 5' 53" N  12° 3' 0" W  View metadata report for BODC series reference number 114149
1141501978-07-25 09:58 58° 5' 53" N  12° 3' 0" W  View metadata report for BODC series reference number 114150
1141621978-07-25 10:02 58° 5' 53" N  12° 3' 0" W  View metadata report for BODC series reference number 114162
1141741978-07-25 10:06 58° 5' 53" N  12° 3' 0" W  View metadata report for BODC series reference number 114174
1141861978-07-25 10:10 58° 5' 53" N  12° 3' 0" W  View metadata report for BODC series reference number 114186
1141981978-07-25 10:14 58° 5' 53" N  12° 3' 0" W  View metadata report for BODC series reference number 114198
1142051978-07-25 10:18 58° 5' 53" N  12° 3' 0" W  View metadata report for BODC series reference number 114205
1142171978-07-25 10:23 58° 5' 53" N  12° 3' 0" W  View metadata report for BODC series reference number 114217
1142291978-07-25 10:27 58° 5' 53" N  12° 3' 0" W  View metadata report for BODC series reference number 114229
1142301978-07-25 10:30 58° 5' 53" N  12° 3' 0" W  View metadata report for BODC series reference number 114230
1142421978-07-25 10:34 58° 5' 53" N  12° 3' 0" W  View metadata report for BODC series reference number 114242
1142541978-07-25 10:38 58° 5' 53" N  12° 3' 0" W  View metadata report for BODC series reference number 114254
1142661978-07-25 10:42 58° 5' 53" N  12° 3' 0" W  View metadata report for BODC series reference number 114266
1142781978-07-25 10:46 58° 5' 53" N  12° 3' 0" W  View metadata report for BODC series reference number 114278
1142911978-07-25 10:50 58° 5' 53" N  12° 3' 0" W  View metadata report for BODC series reference number 114291
1143091978-07-25 10:54 58° 5' 53" N  12° 3' 0" W  View metadata report for BODC series reference number 114309
1143101978-07-25 12:04 58° 5' 53" N  12° 3' 0" W  View metadata report for BODC series reference number 114310
1143221978-07-25 15:00 58° 5' 53" N  12° 3' 0" W  View metadata report for BODC series reference number 114322
1143341978-07-25 15:25 58° 5' 53" N  12° 3' 0" W  View metadata report for BODC series reference number 114334
1143461978-07-25 15:29 58° 5' 53" N  12° 3' 0" W  View metadata report for BODC series reference number 114346
1143581978-07-25 15:33 58° 5' 53" N  12° 3' 0" W  View metadata report for BODC series reference number 114358
1143711978-07-25 15:37 58° 5' 53" N  12° 3' 0" W  View metadata report for BODC series reference number 114371
1143831978-07-25 15:41 58° 5' 53" N  12° 3' 0" W  View metadata report for BODC series reference number 114383
1143951978-07-25 15:45 58° 5' 53" N  12° 3' 0" W  View metadata report for BODC series reference number 114395
1144021978-07-25 15:49 58° 5' 53" N  12° 3' 0" W  View metadata report for BODC series reference number 114402
1144141978-07-25 15:53 58° 5' 53" N  12° 3' 0" W  View metadata report for BODC series reference number 114414
1144261978-07-25 15:57 58° 5' 53" N  12° 3' 0" W  View metadata report for BODC series reference number 114426
1144381978-07-25 16:01 58° 5' 53" N  12° 3' 0" W  View metadata report for BODC series reference number 114438
1144511978-07-25 16:05 58° 5' 53" N  12° 3' 0" W  View metadata report for BODC series reference number 114451
1144631978-07-25 16:09 58° 5' 53" N  12° 3' 0" W  View metadata report for BODC series reference number 114463
1144751978-07-25 16:13 58° 5' 53" N  12° 3' 0" W  View metadata report for BODC series reference number 114475
1144871978-07-25 16:17 58° 5' 53" N  12° 3' 0" W  View metadata report for BODC series reference number 114487
1144991978-07-25 16:21 58° 5' 53" N  12° 3' 0" W  View metadata report for BODC series reference number 114499
1145061978-07-25 16:25 58° 5' 53" N  12° 3' 0" W  View metadata report for BODC series reference number 114506
1145181978-07-25 16:29 58° 5' 53" N  12° 3' 0" W  View metadata report for BODC series reference number 114518
1145311978-07-25 16:33 58° 5' 53" N  12° 3' 0" W  View metadata report for BODC series reference number 114531
1145431978-07-25 16:37 58° 5' 53" N  12° 3' 0" W  View metadata report for BODC series reference number 114543
1145551978-07-25 16:41 58° 5' 53" N  12° 3' 0" W  View metadata report for BODC series reference number 114555
1145671978-07-25 16:45 58° 5' 53" N  12° 3' 0" W  View metadata report for BODC series reference number 114567
1145791978-07-25 16:49 58° 5' 53" N  12° 3' 0" W  View metadata report for BODC series reference number 114579
1145801978-07-25 16:53 58° 5' 53" N  12° 3' 0" W  View metadata report for BODC series reference number 114580
1145921978-07-25 16:57 58° 5' 53" N  12° 3' 0" W  View metadata report for BODC series reference number 114592
1146111978-07-25 18:00 58° 5' 55" N  12° 2' 49" W  View metadata report for BODC series reference number 114611
1343471978-08-21 20:04 59° 0' 6" N  12° 2' 48" W  View metadata report for BODC series reference number 134347
1343591978-08-21 20:06 59° 0' 6" N  12° 2' 48" W  View metadata report for BODC series reference number 134359
1343601978-08-21 20:08 59° 0' 6" N  12° 2' 48" W  View metadata report for BODC series reference number 134360
1343721978-08-21 20:10 59° 0' 6" N  12° 2' 48" W  View metadata report for BODC series reference number 134372
1336451978-08-19 16:58 58° 5' 49" N  12° 2' 50" W  View metadata report for BODC series reference number 133645
1336571978-08-19 17:00 58° 5' 49" N  12° 2' 50" W  View metadata report for BODC series reference number 133657
1336691978-08-19 17:02 58° 5' 49" N  12° 2' 50" W  View metadata report for BODC series reference number 133669
1336701978-08-19 17:04 58° 5' 49" N  12° 2' 50" W  View metadata report for BODC series reference number 133670
1336821978-08-19 17:06 58° 5' 49" N  12° 2' 50" W  View metadata report for BODC series reference number 133682
1336941978-08-19 17:08 58° 5' 49" N  12° 2' 50" W  View metadata report for BODC series reference number 133694
1337011978-08-19 17:10 58° 5' 49" N  12° 2' 50" W  View metadata report for BODC series reference number 133701
1337131978-08-19 17:12 58° 5' 49" N  12° 2' 50" W  View metadata report for BODC series reference number 133713
1337251978-08-19 17:14 58° 5' 49" N  12° 2' 50" W  View metadata report for BODC series reference number 133725
1183841978-08-01 17:02 58° 5' 53" N  12° 2' 52" W  View metadata report for BODC series reference number 118384
1183961978-08-01 17:04 58° 5' 53" N  12° 2' 52" W  View metadata report for BODC series reference number 118396
1184031978-08-01 17:06 58° 5' 53" N  12° 2' 52" W  View metadata report for BODC series reference number 118403
1184151978-08-01 17:08 58° 5' 53" N  12° 2' 52" W  View metadata report for BODC series reference number 118415
1184271978-08-01 17:10 58° 5' 53" N  12° 2' 52" W  View metadata report for BODC series reference number 118427
1184391978-08-01 17:12 58° 5' 53" N  12° 2' 52" W  View metadata report for BODC series reference number 118439
1184401978-08-01 17:14 58° 5' 53" N  12° 2' 52" W  View metadata report for BODC series reference number 118440
1184521978-08-01 17:16 58° 5' 53" N  12° 2' 52" W  View metadata report for BODC series reference number 118452
1184641978-08-01 17:18 58° 5' 53" N  12° 2' 52" W  View metadata report for BODC series reference number 118464
1184761978-08-01 17:20 58° 5' 53" N  12° 2' 52" W  View metadata report for BODC series reference number 118476
1184881978-08-01 17:22 58° 5' 53" N  12° 2' 52" W  View metadata report for BODC series reference number 118488
1185071978-08-01 17:24 58° 5' 53" N  12° 2' 52" W  View metadata report for BODC series reference number 118507
1185191978-08-01 17:26 58° 5' 53" N  12° 2' 52" W  View metadata report for BODC series reference number 118519
1185201978-08-01 17:28 58° 5' 53" N  12° 2' 52" W  View metadata report for BODC series reference number 118520
1185321978-08-01 17:30 58° 5' 53" N  12° 2' 52" W  View metadata report for BODC series reference number 118532
1185441978-08-01 17:32 58° 5' 53" N  12° 2' 52" W  View metadata report for BODC series reference number 118544
1185561978-08-01 17:34 58° 5' 53" N  12° 2' 52" W  View metadata report for BODC series reference number 118556
1185681978-08-01 21:00 58° 5' 53" N  12° 3' 7" W  View metadata report for BODC series reference number 118568
1185811978-08-02 03:02 58° 5' 52" N  12° 2' 50" W  View metadata report for BODC series reference number 118581
1185931978-08-02 06:43 58° 5' 48" N  12° 2' 52" W  View metadata report for BODC series reference number 118593
1186001978-08-02 09:43 58° 5' 54" N  12° 2' 50" W  View metadata report for BODC series reference number 118600
1186121978-08-02 09:45 58° 5' 54" N  12° 2' 50" W  View metadata report for BODC series reference number 118612
1186241978-08-02 09:47 58° 5' 54" N  12° 2' 50" W  View metadata report for BODC series reference number 118624
1186361978-08-02 09:49 58° 5' 54" N  12° 2' 50" W  View metadata report for BODC series reference number 118636
1186481978-08-02 09:51 58° 5' 54" N  12° 2' 50" W  View metadata report for BODC series reference number 118648
1186611978-08-02 09:53 58° 5' 54" N  12° 2' 50" W  View metadata report for BODC series reference number 118661
1186731978-08-02 09:55 58° 5' 54" N  12° 2' 50" W  View metadata report for BODC series reference number 118673
1186851978-08-02 09:57 58° 5' 54" N  12° 2' 50" W  View metadata report for BODC series reference number 118685
1186971978-08-02 09:59 58° 5' 58" N  12° 2' 54" W  View metadata report for BODC series reference number 118697
1187041978-08-02 10:01 58° 5' 58" N  12° 2' 54" W  View metadata report for BODC series reference number 118704
1187161978-08-02 10:03 58° 5' 58" N  12° 2' 54" W  View metadata report for BODC series reference number 118716
1187281978-08-02 10:05 58° 5' 58" N  12° 2' 54" W  View metadata report for BODC series reference number 118728
1187411978-08-02 10:07 58° 5' 58" N  12° 2' 54" W  View metadata report for BODC series reference number 118741
1187531978-08-02 10:09 58° 5' 58" N  12° 2' 54" W  View metadata report for BODC series reference number 118753
1187651978-08-02 10:11 58° 5' 58" N  12° 2' 54" W  View metadata report for BODC series reference number 118765
1187771978-08-02 10:13 58° 5' 58" N  12° 2' 54" W  View metadata report for BODC series reference number 118777
1187891978-08-02 10:15 58° 5' 58" N  12° 2' 54" W  View metadata report for BODC series reference number 118789
1187901978-08-02 10:17 58° 5' 58" N  12° 2' 54" W  View metadata report for BODC series reference number 118790
1188081978-08-02 10:19 58° 5' 58" N  12° 2' 54" W  View metadata report for BODC series reference number 118808
1188211978-08-02 10:21 58° 5' 58" N  12° 2' 54" W  View metadata report for BODC series reference number 118821
1188331978-08-02 10:23 58° 5' 58" N  12° 2' 54" W  View metadata report for BODC series reference number 118833
1188451978-08-02 10:25 58° 5' 58" N  12° 2' 54" W  View metadata report for BODC series reference number 118845
1188571978-08-02 10:27 58° 5' 58" N  12° 2' 54" W  View metadata report for BODC series reference number 118857
1188691978-08-02 10:29 58° 5' 58" N  12° 2' 54" W  View metadata report for BODC series reference number 118869
1188701978-08-02 10:31 58° 5' 58" N  12° 2' 54" W  View metadata report for BODC series reference number 118870
1188821978-08-02 10:33 58° 5' 58" N  12° 2' 54" W  View metadata report for BODC series reference number 118882
1188941978-08-02 10:35 58° 5' 58" N  12° 2' 54" W  View metadata report for BODC series reference number 118894
1189011978-08-02 10:37 58° 5' 58" N  12° 2' 54" W  View metadata report for BODC series reference number 118901
1189131978-08-02 10:39 58° 5' 58" N  12° 2' 54" W  View metadata report for BODC series reference number 118913
1189251978-08-02 10:41 58° 5' 58" N  12° 2' 54" W  View metadata report for BODC series reference number 118925
1189371978-08-02 10:43 58° 5' 58" N  12° 2' 54" W  View metadata report for BODC series reference number 118937
1189491978-08-02 10:45 58° 5' 58" N  12° 2' 54" W  View metadata report for BODC series reference number 118949
1189501978-08-02 10:47 58° 5' 58" N  12° 2' 54" W  View metadata report for BODC series reference number 118950
1189621978-08-02 10:49 58° 5' 58" N  12° 2' 54" W  View metadata report for BODC series reference number 118962
1189741978-08-02 10:51 58° 5' 58" N  12° 2' 54" W  View metadata report for BODC series reference number 118974
1189861978-08-02 10:53 58° 5' 58" N  12° 2' 54" W  View metadata report for BODC series reference number 118986
1189981978-08-02 10:55 58° 5' 58" N  12° 2' 54" W  View metadata report for BODC series reference number 118998
1276641978-08-18 01:56 59° 0' 0" N  12° 2' 37" W  View metadata report for BODC series reference number 127664
1276761978-08-18 01:58 59° 0' 0" N  12° 2' 37" W  View metadata report for BODC series reference number 127676
1276881978-08-18 02:00 59° 0' 0" N  12° 2' 37" W  View metadata report for BODC series reference number 127688
1277071978-08-18 02:02 59° 0' 0" N  12° 2' 37" W  View metadata report for BODC series reference number 127707
1277191978-08-18 02:04 59° 0' 0" N  12° 2' 37" W  View metadata report for BODC series reference number 127719
1277201978-08-18 02:06 59° 0' 0" N  12° 2' 37" W  View metadata report for BODC series reference number 127720
1277321978-08-18 02:08 59° 0' 0" N  12° 2' 37" W  View metadata report for BODC series reference number 127732
1277441978-08-18 02:10 59° 0' 0" N  12° 2' 37" W  View metadata report for BODC series reference number 127744
1277561978-08-18 02:12 59° 0' 0" N  12° 2' 37" W  View metadata report for BODC series reference number 127756
1277681978-08-18 02:14 59° 0' 0" N  12° 2' 37" W  View metadata report for BODC series reference number 127768
1277811978-08-18 02:48 59° 0' 2" N  12° 2' 25" W  View metadata report for BODC series reference number 127781
1277931978-08-18 02:50 59° 0' 2" N  12° 2' 25" W  View metadata report for BODC series reference number 127793
1278001978-08-18 02:52 59° 0' 2" N  12° 2' 25" W  View metadata report for BODC series reference number 127800
1278121978-08-18 02:54 59° 0' 2" N  12° 2' 25" W  View metadata report for BODC series reference number 127812
1278241978-08-18 02:56 59° 0' 2" N  12° 2' 25" W  View metadata report for BODC series reference number 127824
1278361978-08-18 02:58 59° 0' 2" N  12° 2' 25" W  View metadata report for BODC series reference number 127836
1278481978-08-18 03:00 59° 0' 2" N  12° 2' 25" W  View metadata report for BODC series reference number 127848
1278611978-08-18 03:02 59° 0' 2" N  12° 2' 25" W  View metadata report for BODC series reference number 127861
1278731978-08-18 03:04 59° 0' 2" N  12° 2' 25" W  View metadata report for BODC series reference number 127873
1278851978-08-18 03:06 59° 0' 2" N  12° 2' 25" W  View metadata report for BODC series reference number 127885
1278971978-08-18 03:08 59° 0' 2" N  12° 2' 25" W  View metadata report for BODC series reference number 127897
1279041978-08-18 03:10 59° 0' 2" N  12° 2' 25" W  View metadata report for BODC series reference number 127904
1279161978-08-18 03:12 59° 0' 2" N  12° 2' 25" W  View metadata report for BODC series reference number 127916
1279281978-08-18 03:14 59° 0' 2" N  12° 2' 25" W  View metadata report for BODC series reference number 127928
1279411978-08-18 03:16 59° 0' 2" N  12° 2' 25" W  View metadata report for BODC series reference number 127941
1279531978-08-18 03:18 59° 0' 0" N  12° 2' 26" W  View metadata report for BODC series reference number 127953
1279651978-08-18 03:48 59° 0' 0" N  12° 2' 26" W  View metadata report for BODC series reference number 127965
1279771978-08-18 03:50 59° 0' 0" N  12° 2' 26" W  View metadata report for BODC series reference number 127977
1279891978-08-18 03:52 59° 0' 0" N  12° 2' 26" W  View metadata report for BODC series reference number 127989
1279901978-08-18 03:54 59° 0' 0" N  12° 2' 26" W  View metadata report for BODC series reference number 127990
1280041978-08-18 03:56 59° 0' 0" N  12° 2' 26" W  View metadata report for BODC series reference number 128004
1280161978-08-18 03:58 59° 0' 0" N  12° 2' 26" W  View metadata report for BODC series reference number 128016
1272711978-08-17 23:48 58° 5' 53" N  12° 2' 35" W  View metadata report for BODC series reference number 127271
1272831978-08-17 23:50 58° 5' 53" N  12° 2' 35" W  View metadata report for BODC series reference number 127283
1272951978-08-17 23:52 58° 5' 53" N  12° 2' 35" W  View metadata report for BODC series reference number 127295
1273021978-08-17 23:54 58° 5' 53" N  12° 2' 35" W  View metadata report for BODC series reference number 127302
1273141978-08-17 23:56 58° 5' 53" N  12° 2' 35" W  View metadata report for BODC series reference number 127314
1273261978-08-17 23:58 58° 5' 53" N  12° 2' 35" W  View metadata report for BODC series reference number 127326
1273381978-08-17 00:00 58° 5' 53" N  12° 2' 35" W  View metadata report for BODC series reference number 127338
1273511978-08-18 00:02 58° 5' 53" N  12° 2' 35" W  View metadata report for BODC series reference number 127351
1273631978-08-18 00:04 58° 5' 53" N  12° 2' 35" W  View metadata report for BODC series reference number 127363
1273751978-08-18 00:06 58° 5' 53" N  12° 2' 35" W  View metadata report for BODC series reference number 127375
1273871978-08-18 00:08 58° 5' 53" N  12° 2' 35" W  View metadata report for BODC series reference number 127387
1273991978-08-18 00:10 58° 5' 53" N  12° 2' 35" W  View metadata report for BODC series reference number 127399
1274061978-08-18 00:12 58° 5' 53" N  12° 2' 35" W  View metadata report for BODC series reference number 127406
1274181978-08-18 00:14 58° 5' 53" N  12° 2' 35" W  View metadata report for BODC series reference number 127418
1274311978-08-18 00:48 58° 5' 53" N  12° 2' 35" W  View metadata report for BODC series reference number 127431
1274431978-08-18 00:50 58° 5' 53" N  12° 2' 35" W  View metadata report for BODC series reference number 127443
1274551978-08-18 00:52 58° 5' 53" N  12° 2' 35" W  View metadata report for BODC series reference number 127455
1274671978-08-18 00:54 58° 5' 53" N  12° 2' 35" W  View metadata report for BODC series reference number 127467
1274791978-08-18 00:56 58° 5' 53" N  12° 2' 35" W  View metadata report for BODC series reference number 127479
1274801978-08-18 00:58 58° 5' 53" N  12° 2' 35" W  View metadata report for BODC series reference number 127480
1274921978-08-18 01:00 58° 5' 53" N  12° 2' 35" W  View metadata report for BODC series reference number 127492
1275111978-08-18 01:02 58° 5' 53" N  12° 2' 35" W  View metadata report for BODC series reference number 127511
1275231978-08-18 01:04 58° 5' 53" N  12° 2' 35" W  View metadata report for BODC series reference number 127523
1275351978-08-18 01:06 58° 5' 53" N  12° 2' 35" W  View metadata report for BODC series reference number 127535
1275471978-08-18 01:08 58° 5' 53" N  12° 2' 35" W  View metadata report for BODC series reference number 127547
1482141978-08-26 04:36 58° 5' 52" N  12° 2' 47" W  View metadata report for BODC series reference number 148214
1482261978-08-26 04:38 58° 5' 52" N  12° 2' 47" W  View metadata report for BODC series reference number 148226
1482381978-08-26 04:40 58° 5' 52" N  12° 2' 47" W  View metadata report for BODC series reference number 148238
1482511978-08-26 04:42 58° 5' 52" N  12° 2' 47" W  View metadata report for BODC series reference number 148251
1482631978-08-26 04:44 58° 5' 52" N  12° 2' 47" W  View metadata report for BODC series reference number 148263
1482751978-08-26 04:46 58° 5' 52" N  12° 2' 47" W  View metadata report for BODC series reference number 148275
1482871978-08-26 04:48 58° 5' 52" N  12° 2' 47" W  View metadata report for BODC series reference number 148287
1482991978-08-26 04:50 58° 5' 52" N  12° 2' 47" W  View metadata report for BODC series reference number 148299
1483061978-08-26 04:52 58° 5' 52" N  12° 2' 47" W  View metadata report for BODC series reference number 148306
1483181978-08-26 04:54 58° 5' 52" N  12° 2' 47" W  View metadata report for BODC series reference number 148318
1483311978-08-26 04:56 58° 5' 52" N  12° 2' 47" W  View metadata report for BODC series reference number 148331
1483431978-08-26 04:58 58° 5' 52" N  12° 2' 47" W  View metadata report for BODC series reference number 148343
1483551978-08-26 05:00 58° 5' 52" N  12° 2' 47" W  View metadata report for BODC series reference number 148355
1483671978-08-26 05:02 58° 5' 52" N  12° 2' 47" W  View metadata report for BODC series reference number 148367
1483791978-08-26 05:04 58° 5' 52" N  12° 2' 47" W  View metadata report for BODC series reference number 148379
1483801978-08-26 05:06 58° 5' 52" N  12° 2' 47" W  View metadata report for BODC series reference number 148380
1483921978-08-26 05:23 58° 5' 47" N  12° 2' 44" W  View metadata report for BODC series reference number 148392
1484111978-08-26 05:25 58° 5' 47" N  12° 2' 44" W  View metadata report for BODC series reference number 148411
1484231978-08-26 05:27 58° 5' 47" N  12° 2' 44" W  View metadata report for BODC series reference number 148423
1484351978-08-26 05:29 58° 5' 47" N  12° 2' 44" W  View metadata report for BODC series reference number 148435
1484471978-08-26 05:31 58° 5' 47" N  12° 2' 44" W  View metadata report for BODC series reference number 148447
1484591978-08-26 05:33 58° 5' 47" N  12° 2' 44" W  View metadata report for BODC series reference number 148459
1484601978-08-26 05:35 58° 5' 47" N  12° 2' 44" W  View metadata report for BODC series reference number 148460
1484721978-08-26 05:37 58° 5' 47" N  12° 2' 44" W  View metadata report for BODC series reference number 148472
1484841978-08-26 05:39 58° 5' 47" N  12° 2' 44" W  View metadata report for BODC series reference number 148484
1484961978-08-26 05:41 58° 5' 47" N  12° 2' 44" W  View metadata report for BODC series reference number 148496
1485031978-08-26 05:43 58° 5' 47" N  12° 2' 44" W  View metadata report for BODC series reference number 148503
1485151978-08-26 05:45 58° 5' 47" N  12° 2' 44" W  View metadata report for BODC series reference number 148515
1485271978-08-26 05:47 58° 5' 47" N  12° 2' 44" W  View metadata report for BODC series reference number 148527
1485391978-08-26 05:49 58° 5' 47" N  12° 2' 44" W  View metadata report for BODC series reference number 148539